Date StartTime U_cm/s V_cm/s W_cm/s Ustd_cm/s Vstd_cm/s Wstd_cm/s Uvar_(cm/s)^2 Vvar_(cm/s)^2 Wvar_(cm/s)^2 KE_(m/s)^2 TurbulentKE_(m/s)^2 HorizWindSpeed_cm/s FrictionSpeec_cm/s DragCoef SpeedOfSound_m/s SonicTemperature_C Pressure_mb 
05/15/2013  00:00:00     -205.905      -15.474      -21.206       58.909       65.775       38.498     3470.266     4326.360     1482.107        2.618        0.464      206.486       33.508        0.026      343.247       19.220      861.074
05/15/2013  00:01:00     -192.487      -57.255       -6.631       75.592       61.966       41.646     5714.225     3839.753     1734.386        2.583        0.564      200.822       42.004        0.044      343.220       19.175      861.078
05/15/2013  00:02:00     -279.129      -39.036      -28.391      165.502      101.150       57.119    27390.751    10231.369     3262.547        6.056        2.044      281.846       68.724        0.059      343.256       19.236      861.086
05/15/2013  00:03:00     -385.542      -63.136      -27.215      161.528      106.551       61.265    26091.212    11353.126     3753.392        9.728        2.060      390.677       76.760        0.039      343.290       19.294      861.088
05/15/2013  00:04:00     -284.087      -46.629      -18.910       78.227       96.643       40.986     6119.516     9339.900     1679.888        5.019        0.857      287.888       37.679        0.017      343.316       19.338      861.100
05/15/2013  00:05:00     -237.756      -10.196      -25.515       68.242      121.973       44.670     4656.981    14877.406     1995.450        3.940        1.076      237.974       35.570        0.022      343.277       19.272      861.098
05/15/2013  00:06:00     -189.716      -74.273      -28.022       74.390       48.489       44.672     5533.857     2351.162     1995.583        2.609        0.494      203.737       34.153        0.028      343.226       19.186      861.102
05/15/2013  00:07:00     -232.859      -72.062      -17.626       71.709       67.313       45.723     5142.200     4530.996     2090.615        3.574        0.588      243.754       39.016        0.026      343.190       19.123      861.109
05/15/2013  00:08:00     -273.287      -61.059       -9.045      144.412       78.505       53.268    20854.808     6163.032     2837.461        5.417        1.493      280.025       61.214        0.048      343.158       19.070      861.120
05/15/2013  00:09:00     -378.547      -95.281      -22.364      153.262      123.245       58.172    23489.252    15189.213     3383.983        9.746        2.103      390.354       63.892        0.027      343.248       19.222      861.130
05/15/2013  00:10:00     -331.440      -98.577      -27.627      170.432      128.212       60.199    29046.997    16438.199     3623.914        8.471        2.455      345.789       60.958        0.031      343.225       19.184      861.132
05/15/2013  00:11:00     -131.956      -56.136       10.024      127.740       85.487       59.400    16317.460     7308.075     3528.389        2.390        1.358      143.400       61.888        0.186      343.174       19.096      861.119
05/15/2013  00:12:00     -228.827      -54.343      -11.774      110.262       83.660       44.063    12157.640     6998.942     1941.525        3.827        1.055      235.191       30.976        0.017      343.188       19.119      861.125
05/15/2013  00:13:00     -318.692      -20.963      -29.597      118.742       97.770       47.545    14099.682     9558.954     2260.518        6.440        1.296      319.380       50.981        0.025      343.178       19.102      861.132
05/15/2013  00:14:00     -326.746      -70.722       -4.544      153.816       86.345       57.199    23659.424     7455.532     3271.731        7.308        1.719      334.313       66.113        0.039      343.188       19.118      861.135
05/15/2013  00:15:00     -325.713      -30.046      -20.139      115.064      135.475       60.828    13239.656    18353.598     3700.096        7.134        1.765      327.096       58.453        0.032      343.171       19.091      861.137
05/15/2013  00:16:00     -336.930     -106.904      -22.010      115.043       65.299       52.365    13234.994     4263.928     2742.091        7.283        1.012      353.483       50.053        0.020      343.181       19.106      861.124
05/15/2013  00:17:00     -178.021       -8.096        3.961       94.893       69.958       44.886     9004.767     4894.099     2014.726        2.384        0.796      178.205       41.855        0.055      343.099       18.970      861.122
05/15/2013  00:18:00     -167.892      -71.727        4.430      113.388       86.270       49.042    12856.871     7442.464     2405.106        2.802        1.135      182.572       57.843        0.100      343.080       18.938      861.125
05/15/2013  00:19:00     -184.764      -35.932        3.929       84.167       75.084       43.478     7084.029     5637.577     1890.297        2.503        0.731      188.225       47.150        0.063      343.110       18.988      861.114
05/15/2013  00:20:00     -284.415      -59.471      -17.830      106.698      120.409       52.526    11384.508    14498.394     2758.986        5.669        1.432      290.566       47.010        0.026      343.134       19.027      861.112
05/15/2013  00:21:00     -296.323      -40.091      -22.272       93.401       66.663       48.929     8723.715     4443.948     2394.067        5.273        0.778      299.023       44.018        0.022      343.189       19.122      861.110
05/15/2013  00:22:00     -278.665      -73.811        2.922      147.291       91.056       58.626    21694.780     8291.255     3437.062        5.826        1.671      288.275       70.263        0.059      343.146       19.049      861.107
05/15/2013  00:23:00     -352.541      -18.802      -19.454      125.003      115.437       60.254    15625.858    13325.717     3630.557        7.879        1.629      353.042       62.416        0.031      343.163       19.079      861.109
05/15/2013  00:24:00     -219.712      -62.923       -6.791      114.534       89.003       46.032    13117.951     7921.512     2118.914        3.771        1.158      228.545       46.458        0.041      343.099       18.969      861.106
05/15/2013  00:25:00     -274.926     -123.933      -14.502       80.626       99.571       49.917     6500.526     9914.431     2491.673        5.503        0.945      301.569       45.749        0.023      343.138       19.034      861.107
05/15/2013  00:26:00     -223.500      -66.821       -5.333       80.775       75.908       37.708     6524.591     5761.968     1421.916        3.407        0.685      233.275       33.243        0.020      343.109       18.986      861.110
05/15/2013  00:27:00     -221.351      -45.213      -10.869       74.464       72.099       32.867     5544.847     5198.315     1080.216        3.149        0.591      225.921       38.166        0.029      343.090       18.952      861.112
05/15/2013  00:28:00     -209.542      -79.401       -6.627       74.390       80.382       39.500     5533.901     6461.325     1560.216        3.190        0.678      224.081       40.535        0.033      343.062       18.907      861.115
05/15/2013  00:29:00     -183.825      -31.535       -5.812       69.633       70.174       43.873     4848.712     4924.442     1924.836        2.326        0.585      186.510       33.467        0.032      343.085       18.946      861.116
05/15/2013  00:30:00     -166.835      -39.500        1.535       77.776       83.061       41.298     6049.052     6899.195     1705.564        2.202        0.733      171.447       38.625        0.051      343.072       18.925      861.125
05/15/2013  00:31:00      -95.284      -19.852       10.489       87.095       62.151       45.401     7585.510     3862.789     2061.241        1.154        0.675       97.330       41.105        0.178      343.017       18.832      861.139
05/15/2013  00:32:00     -242.220       35.487      -22.579       78.893       66.417       39.677     6224.142     4411.282     1574.257        3.632        0.610      244.806       41.356        0.029      343.063       18.906      861.149
05/15/2013  00:33:00     -120.289       -6.130        2.844      107.148       57.919       37.103    11480.631     3354.655     1376.639        1.536        0.811      120.445       54.089        0.202      343.014       18.826      861.134
05/15/2013  00:34:00     -187.622      -85.288      -12.354       99.802       85.863       42.973     9960.360     7372.514     1846.703        3.090        0.959      206.097       45.590        0.049      343.024       18.842      861.141
05/15/2013  00:35:00     -314.171      -11.720      -32.312      122.086       55.981       43.557    14904.976     3133.866     1897.205        5.991        0.997      314.390       50.948        0.026      343.108       18.985      861.151
05/15/2013  00:36:00     -215.318      -31.858      -13.493       88.133       58.615       47.217     7767.487     3435.691     2229.477        3.049        0.672      217.662       46.042        0.045      343.120       19.006      861.157
05/15/2013  00:37:00     -180.324      -62.304       -4.914       71.516       63.387       44.129     5114.484     4017.936     1947.378        2.375        0.554      190.784       38.368        0.040      343.063       18.908      861.159
05/15/2013  00:38:00     -158.309      -57.557      -11.187       81.232       58.990       40.359     6598.696     3479.810     1628.883        2.010        0.585      168.448       43.304        0.066      343.121       19.006      861.170
05/15/2013  00:39:00     -253.254      -50.919      -13.026       94.898       69.984       44.336     9005.599     4897.747     1965.678        4.138        0.793      258.322       48.876        0.036      343.063       18.906      861.183
05/15/2013  00:40:00     -237.532      -66.064       -7.254       94.248       43.691       37.481     8882.597     1908.869     1404.827        3.652        0.610      246.548       34.570        0.020      343.091       18.954      861.193
05/15/2013  00:41:00     -124.639      -30.855       -6.591       57.748       56.218       30.545     3334.801     3160.426      932.978        1.198        0.371      128.402       27.260        0.045      343.032       18.857      861.198
05/15/2013  00:42:00     -142.684      -11.792       -5.994       95.321       79.378       33.120     9085.999     6300.824     1096.961        1.851        0.824      143.171       36.467        0.065      343.081       18.940      861.187
05/15/2013  00:43:00     -205.706       37.056      -19.857       72.667       32.739       31.443     5280.485     1071.873      988.655        2.571        0.367      209.017       37.746        0.033      343.068       18.917      861.202
05/15/2013  00:44:00     -100.680       -6.600       -5.894       57.987       35.001       33.964     3362.520     1225.100     1153.583        0.798        0.287      100.896       35.950        0.127      342.992       18.791      861.200
05/15/2013  00:45:00     -171.304      -63.063       -8.528      104.228       77.983       38.536    10863.427     6081.275     1485.028        2.591        0.921      182.543       30.092        0.027      342.972       18.755      861.202
05/15/2013  00:46:00     -220.616     -108.448       -6.672       95.214       87.853       53.942     9065.663     7718.074     2909.770        4.008        0.985      245.830       48.941        0.040      343.036       18.861      861.208
05/15/2013  00:47:00     -196.489      -62.078      -16.882       54.452       46.320       31.645     2964.994     2145.500     1001.416        2.443        0.306      206.062       24.458        0.014      343.051       18.887      861.191
05/15/2013  00:48:00     -180.398       -9.805       -6.618       59.644       49.392       39.309     3557.400     2439.527     1545.175        2.011        0.377      180.664       38.172        0.045      342.950       18.718      861.182
05/15/2013  00:49:00     -218.046      -78.450      -14.367       74.466       90.641       42.036     5545.233     8215.776     1767.050        3.471        0.776      231.729       29.971        0.017      342.962       18.736      861.172
05/15/2013  00:50:00     -258.775     -116.288      -17.975       85.606       94.483       53.192     7328.304     8926.979     2829.406        4.994        0.954      283.703       46.698        0.027      343.061       18.902      861.164
05/15/2013  00:51:00     -191.433      -42.577       -6.641       51.828       61.530       33.769     2686.122     3785.907     1140.369        2.306        0.381      196.111       34.453        0.031      342.999       18.799      861.171
05/15/2013  00:52:00     -225.032      -44.878       -5.751       82.243       65.125       38.377     6763.918     4241.316     1472.790        3.258        0.624      229.464       40.362        0.031      343.018       18.831      861.164
05/15/2013  00:53:00     -183.469      -46.087      -16.376       85.894       64.808       38.769     7377.795     4200.022     1503.029        2.456        0.654      189.169       37.500        0.039      343.052       18.889      861.151
05/15/2013  00:54:00     -105.053        9.661       -6.918       42.514       37.529       22.063     1807.473     1408.432      486.771        0.744        0.185      105.496       17.890        0.029      342.949       18.715      861.145
05/15/2013  00:55:00     -147.628       28.092      -38.683       44.684       61.510       34.344     1996.686     3783.419     1179.478        1.552        0.348      150.277       18.940        0.016      342.947       18.713      861.147
05/15/2013  00:56:00      -88.305      -58.221       -9.410      116.916       55.586       39.146    13669.260     3089.763     1532.375        1.478        0.915      105.771       43.621        0.170      342.929       18.682      861.146
05/15/2013  00:57:00     -209.467      -72.885       -4.789       63.525       56.015       33.069     4035.379     3137.720     1093.544        2.874        0.413      221.785       23.398        0.011      342.954       18.722      861.164
05/15/2013  00:58:00     -176.126      -15.840       -9.901       62.074       42.752       29.065     3853.165     1827.752      844.768        1.895        0.326      176.837       29.682        0.028      342.949       18.715      861.151
05/15/2013  00:59:00     -180.670      -43.444       -5.845       73.176       45.239       32.150     5354.661     2046.564     1033.628        2.150        0.422      185.820       36.988        0.040      342.922       18.669      861.153
05/15/2013  01:00:00     -175.342       -8.001      -16.394       46.656       51.569       25.420     2176.743     2659.368      646.180        1.828        0.274      175.525       22.406        0.016      342.967       18.745      861.154
05/15/2013  01:01:00     -127.193      -28.971        1.022       51.381       35.662       23.154     2639.959     1271.772      536.107        1.073        0.222      130.451       23.072        0.031      342.832       18.516      861.156
05/15/2013  01:02:00     -127.734      -14.250      -11.469       60.389       37.444       30.279     3646.842     1402.065      916.843        1.131        0.298      128.526       35.986        0.078      342.885       18.608      861.139
05/15/2013  01:03:00     -173.640       -3.476      -12.259       50.612       37.829       26.506     2561.568     1431.006      702.578        1.750        0.235      173.675       28.668        0.027      342.895       18.623      861.123
05/15/2013  01:04:00     -164.590      -47.970      -12.367       86.804       58.434       33.083     7534.977     3414.477     1094.469        2.079        0.602      171.438       32.866        0.037      342.882       18.600      861.121
05/15/2013  01:05:00     -153.703      -40.250      -11.428       54.395       43.128       26.782     2958.822     1860.003      717.295        1.545        0.277      158.886       18.478        0.014      342.914       18.656      861.119
05/15/2013  01:06:00     -188.909       15.679      -16.647       55.218       57.575       31.362     3049.056     3314.912      983.581        2.178        0.367      189.559       28.178        0.022      342.869       18.577      861.120
05/15/2013  01:07:00      -71.711        8.489        5.086       39.438       37.928       22.970     1555.386     1438.499      527.640        0.438        0.176       72.212       19.712        0.075      342.740       18.361      861.114
05/15/2013  01:08:00     -176.681        6.606      -12.369       33.263       31.781       18.705     1106.431     1010.020      349.881        1.694        0.123      176.805       11.722        0.004      342.924       18.674      861.113
05/15/2013  01:09:00     -102.028       12.794      -10.866       26.432       26.893       15.906      698.667      723.260      253.010        0.618        0.084      102.827       13.382        0.017      342.831       18.516      861.115
05/15/2013  01:10:00      -65.729      -33.738      -15.660       14.168       18.289       15.061      200.745      334.497      226.846        0.323        0.038       73.882        7.909        0.011      342.816       18.489      861.124
05/15/2013  01:11:00     -138.076      -33.073      -14.473       28.499       24.979       15.942      812.218      623.934      254.149        1.103        0.085      141.982        9.115        0.004      342.776       18.421      861.137
05/15/2013  01:12:00     -123.221      -29.560      -12.740       42.714       34.777       28.016     1824.460     1209.442      784.914        1.002        0.191      126.717       27.815        0.048      342.691       18.278      861.133
05/15/2013  01:13:00      -91.105      -21.298        0.355       61.940       41.981       29.039     3836.502     1762.440      843.289        0.760        0.322       93.561       36.241        0.150      342.779       18.428      861.128
05/15/2013  01:14:00     -103.217      -24.146       -1.784       56.290       44.416       26.845     3168.586     1972.774      720.663        0.855        0.293      106.003       22.373        0.045      342.810       18.480      861.124
05/15/2013  01:15:00      -70.108      -30.025       -0.816       44.859       37.730       18.855     2012.353     1423.553      355.515        0.480        0.190       76.267       19.668        0.067      342.804       18.470      861.127
05/15/2013  01:16:00     -123.230      -36.166       -6.795       37.874       23.379       17.744     1434.445      546.585      314.864        0.942        0.115      128.428       19.373        0.023      342.781       18.431      861.136
05/15/2013  01:17:00      -56.299      -21.951       13.326       56.104       37.673       24.308     3147.683     1419.234      590.903        0.449        0.258       60.427       30.150        0.249      342.640       18.191      861.119
05/15/2013  01:18:00     -119.649      -16.456       -5.363       52.031       41.288       22.767     2707.200     1704.728      518.358        0.977        0.247      120.775       25.609        0.045      342.690       18.277      861.117
05/15/2013  01:19:00     -116.837      -44.883       -7.853       44.855       27.401       25.842     2011.982      750.804      667.788        0.958        0.172      125.162       27.094        0.047      342.705       18.300      861.110
05/15/2013  01:20:00      -95.534      -47.482        0.111       38.400       27.546       20.380     1474.539      758.803      415.329        0.701        0.132      106.683       18.297        0.029      342.713       18.316      861.094
05/15/2013  01:21:00      -29.186      -34.681       12.970       51.033       37.436       26.342     2604.413     1401.431      693.880        0.346        0.235       45.328       30.271        0.446      342.799       18.462      861.081
05/15/2013  01:22:00      -65.208      -29.250        5.988       39.829       26.735       14.203     1586.327      714.739      201.739        0.382        0.125       71.468       13.216        0.034      342.763       18.400      861.075
05/15/2013  01:23:00      -97.031      -37.286       -5.448       69.368       36.151       20.105     4811.877     1306.872      404.200        0.868        0.326      103.949       25.465        0.060      342.766       18.405      861.064
05/15/2013  01:24:00     -114.898      -20.205      -17.493       50.733       41.223       24.813     2573.794     1699.354      615.693        0.940        0.244      116.661       17.846        0.023      342.784       18.435      861.063
05/15/2013  01:25:00     -129.790        5.479      -11.587       47.921       34.342       17.648     2296.454     1179.387      311.436        1.040        0.189      129.906       21.000        0.026      342.714       18.317      861.064
05/15/2013  01:26:00     -113.137       -2.865      -16.913       57.180       31.124       25.756     3269.529      968.676      663.365        0.900        0.245      113.173       33.352        0.087      342.700       18.292      861.058
05/15/2013  01:27:00      -67.977      -44.568        0.442       23.573       21.673       12.257      555.667      469.713      150.245        0.389        0.059       81.285        9.479        0.014      342.690       18.275      861.054
05/15/2013  01:28:00      -69.151      -56.541       -3.376       34.247       26.461       17.253     1172.847      700.196      297.668        0.508        0.109       89.324        9.972        0.012      342.656       18.220      861.064
05/15/2013  01:29:00      -67.225      -46.492       -1.894       23.541       19.162       14.382      554.192      367.168      206.855        0.391        0.056       81.736       12.056        0.022      342.694       18.282      861.064
05/15/2013  01:30:00      -47.496      -25.112        0.320       26.470       12.446       15.286      700.658      154.912      233.673        0.199        0.054       53.726       16.149        0.090      342.664       18.230      861.069
05/15/2013  01:31:00      -91.296      -39.763       -3.284       32.343       25.880       18.702     1046.074      669.793      349.750        0.600        0.103       99.580       16.016        0.026      342.696       18.286      861.067
05/15/2013  01:32:00      -56.208      -22.089        2.384       43.665       26.677       18.104     1906.664      711.684      327.747        0.330        0.147       60.392       19.921        0.109      342.622       18.160      861.072
05/15/2013  01:33:00      -87.369      -48.514       -1.692       21.477       18.337       14.918      461.241      336.241      222.544        0.550        0.051       99.935        8.043        0.006      342.685       18.266      861.071
05/15/2013  01:34:00      -80.446      -28.687       -1.497       24.954       21.151       11.252      622.705      447.378      126.609        0.425        0.060       85.408       10.401        0.015      342.576       18.081      861.060
05/15/2013  01:35:00      -47.024      -27.901        0.220       16.684       15.353       12.987      278.362      235.710      168.654        0.184        0.034       54.679       11.373        0.043      342.548       18.035      861.041
05/15/2013  01:36:00      -28.497      -39.621       18.757       25.086       39.129       18.834      629.300     1531.070      354.731        0.262        0.126       48.805       20.580        0.178      342.628       18.171      861.025
05/15/2013  01:37:00      -56.943       13.780       -2.182       14.971       15.916        8.398      224.143      253.330       70.532        0.199        0.027       58.587        6.591        0.013      342.618       18.154      861.016
05/15/2013  01:38:00      -78.091       39.697      -12.446       17.780       13.381       11.427      316.113      179.050      130.572        0.423        0.031       87.602        8.334        0.009      342.659       18.224      861.013
05/15/2013  01:39:00      -93.640       38.306       -8.580       34.947       27.127       21.107     1221.309      735.897      445.492        0.636        0.120      101.172       22.356        0.049      342.733       18.348      861.005
05/15/2013  01:40:00     -101.206       84.044      -21.470       36.192       42.346       20.133     1309.895     1793.177      405.347        1.064        0.175      131.553       16.607        0.016      342.574       18.078      861.000
05/15/2013  01:41:00     -128.862       39.493      -16.361       31.456       36.554       22.911      989.496     1336.208      524.892        1.064        0.143      134.778       16.673        0.015      342.621       18.158      860.994
05/15/2013  01:42:00      -87.729        1.208      -13.014       21.119       26.458       14.225      446.006      700.006      202.353        0.461        0.067       87.737       11.946        0.019      342.541       18.023      860.991
05/15/2013  01:43:00      -44.876      -34.285       -1.926       48.488       33.648       25.124     2351.108     1132.157      631.215        0.365        0.206       56.474       17.238        0.093      342.500       17.952      860.986
05/15/2013  01:44:00      -24.182      -24.920        0.585       30.211       20.498       17.245      912.734      420.183      297.377        0.142        0.082       34.724       14.261        0.169      342.418       17.813      860.977
05/15/2013  01:45:00      -40.118      -24.984       -5.868       29.460       14.653       15.271      867.920      214.706      233.192        0.179        0.066       47.261       16.597        0.123      342.384       17.756      860.961
05/15/2013  01:46:00     -108.963      -47.951      -10.016       25.917       20.139       12.948      671.680      405.560      167.642        0.776        0.062      119.047        5.164        0.002      342.423       17.823      860.959
05/15/2013  01:47:00      -92.515      -34.098       -7.646       26.815       16.844       12.302      719.020      283.714      151.349        0.547        0.058       98.598        9.921        0.010      342.352       17.701      860.963
05/15/2013  01:48:00      -74.700      -48.953      -14.894       18.041       13.632       12.388      325.481      185.839      153.466        0.443        0.033       89.311        6.224        0.005      342.347       17.692      860.958
05/15/2013  01:49:00      -87.345      -33.849       -7.711       30.891       14.762       12.674      954.250      217.911      160.635        0.508        0.067       93.674       13.943        0.022      342.236       17.504      860.955
05/15/2013  01:50:00     -131.774      -45.514       -3.998       36.905       23.385       21.403     1361.987      546.862      458.087        1.091        0.118      139.413       18.717        0.018      342.184       17.417      860.967
05/15/2013  01:51:00      -88.422      -34.622       -3.580       34.077       37.942       15.985     1161.242     1439.578      255.520        0.594        0.143       94.958       16.258        0.029      342.081       17.240      860.967
05/15/2013  01:52:00      -48.677       -8.318       -2.423       47.218       15.311       13.295     2229.567      234.416      176.754        0.254        0.132       49.382       17.551        0.126      342.048       17.187      860.953
05/15/2013  01:53:00      -24.647       34.167       -2.993       25.104       18.618       14.047      630.192      346.623      197.314        0.148        0.059       42.129       12.703        0.091      342.328       17.661      860.943
05/15/2013  01:54:00       21.004       51.822       -1.244       22.013       31.097       17.737      484.587      967.001      314.592        0.245        0.088       55.917       18.978        0.115      342.321       17.650      860.930
05/15/2013  01:55:00      -38.247       48.584      -15.409       43.368       55.085       10.916     1880.782     3034.319      119.152        0.455        0.252       61.833       17.813        0.083      342.400       17.784      860.935
05/15/2013  01:56:00      -81.868       21.802      -12.600       22.817       28.438       19.676      520.613      808.699      387.133        0.453        0.086       84.722        7.229        0.007      342.269       17.561      860.947
05/15/2013  01:57:00     -103.382       -0.154       -8.806       35.746       36.036       17.725     1277.757     1298.597      314.189        0.683        0.145      103.382       17.388        0.028      342.123       17.313      860.951
05/15/2013  01:58:00     -133.405       17.061      -12.068       39.859       32.181       15.944     1588.734     1035.608      254.197        1.056        0.144      134.492       15.707        0.014      341.970       17.054      860.972
05/15/2013  01:59:00       10.900       39.374        6.387       41.928       29.001       20.410     1757.952      841.045      416.557        0.236        0.151       40.854       19.511        0.228      341.973       17.057      860.951
05/15/2013  02:00:00       10.310       89.471       -6.133       46.689       45.870       24.436     2179.880     2104.050      597.114        0.651        0.244       90.063       15.447        0.029      342.090       17.256      860.931
05/15/2013  02:01:00      -46.539       92.638       -6.474       36.641       56.382       23.433     1342.540     3178.969      549.083        0.793        0.254      103.671       24.316        0.055      342.235       17.502      860.951
05/15/2013  02:02:00      -66.348       -3.666        2.975       30.067       29.941       17.084      904.031      896.456      291.879        0.326        0.105       66.449       15.312        0.053      342.018       17.133      860.976
05/15/2013  02:03:00      -53.153      -26.153       -6.173       47.387       21.634       15.914     2245.567      468.016      253.269        0.326        0.148       59.239       18.701        0.100      341.961       17.037      860.991
05/15/2013  02:04:00      -12.905      -32.784       -7.054       11.567       13.716        8.466      133.791      188.138       71.681        0.084        0.020       35.233        8.107        0.053      342.096       17.268      860.991
05/15/2013  02:05:00       -0.670       45.467       -5.889       21.453       24.047       13.211      460.210      578.254      174.522        0.166        0.061       45.472       13.223        0.085      342.208       17.456      860.985
05/15/2013  02:06:00      -77.817       33.354      -19.089       28.318       32.706       14.229      801.924     1069.714      202.465        0.480        0.104       84.664        5.719        0.005      342.216       17.470      860.983
05/15/2013  02:07:00      -53.347       59.592      -17.127       18.929       43.275       17.946      358.311     1872.749      322.064        0.462        0.128       79.982        9.484        0.014      342.083       17.245      860.973
05/15/2013  02:08:00        4.856        2.881       13.851       21.557        8.081       14.238      464.700       65.307      202.723        0.048        0.037        5.646       15.042        7.098      341.989       17.086      860.962
05/15/2013  02:09:00        1.981       16.768       -1.927       22.206       16.275       15.625      493.088      264.890      244.127        0.065        0.050       16.884       13.057        0.598      342.092       17.260      860.949
05/15/2013  02:10:00       11.976        9.032        4.022       10.915       10.214        6.353      119.131      104.321       40.362        0.025        0.013       15.000        4.508        0.090      342.081       17.240      860.956
05/15/2013  02:11:00       -6.738      -11.018       -5.006       15.974       12.857        8.036      255.178      165.294       64.576        0.034        0.024       12.915        8.382        0.421      342.066       17.215      860.946
05/15/2013  02:12:00      -44.131      -24.380       -7.166       13.312       16.041       11.357      177.201      257.317      128.972        0.158        0.028       50.418        8.512        0.029      342.060       17.206      860.947
05/15/2013  02:13:00       -0.452       12.997        5.552       13.374       30.585       11.514      178.858      935.454      132.577        0.072        0.062       13.005       12.242        0.886      342.063       17.211      860.930
05/15/2013  02:14:00        7.821       26.900       -5.533       12.865       15.456        6.939      165.501      238.900       48.154        0.063        0.023       28.014        7.542        0.072      342.181       17.412      860.911
05/15/2013  02:15:00      -14.064       -0.420       -1.785       19.873       18.032        5.045      394.954      325.141       25.453        0.047        0.037       14.070        8.173        0.337      342.026       17.148      860.907
05/15/2013  02:16:00      -85.896      -22.279       -5.918       25.077       22.030       12.781      628.844      485.335      163.361        0.459        0.064       88.738       10.310        0.013      341.786       16.741      860.916
05/15/2013  02:17:00      -37.103      -16.564        3.175       38.916       20.230       13.616     1514.430      409.257      185.396        0.188        0.105       40.633        7.371        0.033      341.766       16.707      860.912
05/15/2013  02:18:00        4.547       31.892       -0.507       23.222       22.782       13.015      539.244      519.027      169.384        0.113        0.061       32.214       12.259        0.145      341.889       16.914      860.878
05/15/2013  02:19:00      -19.943      -13.621       -3.511       46.206       19.141        6.777     2135.021      366.376       45.929        0.157        0.127       24.151       12.894        0.285      342.054       17.195      860.874
05/15/2013  02:20:00      -68.986      -51.971       -8.787       33.137       20.620       15.068     1098.090      425.181      227.033        0.464        0.088       86.371       12.960        0.023      341.741       16.664      860.880
05/15/2013  02:21:00       -6.553      -50.464       -5.034       21.553       16.903       16.836      464.523      285.709      283.453        0.182        0.052       50.887       13.875        0.074      341.778       16.728      860.879
05/15/2013  02:22:00     -100.791      -13.542      -12.539       29.916       17.959       13.781      894.985      322.509      189.909        0.595        0.070      101.697       12.814        0.016      341.749       16.678      860.899
05/15/2013  02:23:00      -88.605      -34.601       -2.873       12.795       13.447       10.036      163.720      180.832      100.713        0.475        0.022       95.121        5.939        0.004      341.661       16.527      860.917
05/15/2013  02:24:00      -91.887      -54.888       -4.548       22.985       22.943       15.714      528.327      526.379      246.932        0.639        0.065      107.032       13.254        0.015      341.600       16.425      860.919
05/15/2013  02:25:00      -51.262      -39.158        3.777       36.314       22.235       15.385     1318.709      494.387      236.709        0.311        0.102       64.507       15.952        0.061      341.674       16.551      860.911
05/15/2013  02:26:00      -60.154      -39.879        2.572       31.963       22.286       18.017     1021.642      496.650      324.619        0.353        0.092       72.172       12.408        0.030      341.653       16.516      860.894
05/15/2013  02:27:00      -38.457      -11.264       -2.354       22.781        7.549       10.344      518.965       56.992      107.002        0.115        0.034       40.073       12.216        0.093      341.725       16.637      860.881
05/15/2013  02:28:00     -108.281      -26.410      -13.750       11.190       16.510        9.659      125.215      272.596       93.297        0.655        0.025      111.456        7.586        0.005      341.713       16.617      860.878
05/15/2013  02:29:00      -84.015        4.467      -10.680       31.369       22.654       15.276      984.032      513.188      233.351        0.446        0.087       84.134       15.758        0.035      341.499       16.254      860.875
05/15/2013  02:30:00     -101.476       37.981      -12.878       31.675       34.845       19.879     1003.324     1214.199      395.176        0.726        0.131      108.351       13.806        0.016      341.624       16.467      860.874
05/15/2013  02:31:00     -140.409      -12.450      -19.066       28.353       32.815       21.156      803.914     1076.840      447.563        1.128        0.116      140.960       15.855        0.013      341.523       16.294      860.881
05/15/2013  02:32:00     -127.588      -30.457       -0.227       30.481       33.866       19.888      929.065     1146.889      395.551        0.984        0.124      131.173       16.240        0.015      341.403       16.091      860.877
05/15/2013  02:33:00     -156.059      -17.716      -12.402       48.171       35.657       26.100     2320.452     1271.443      681.185        1.455        0.214      157.062       26.816        0.029      341.288       15.896      860.891
05/15/2013  02:34:00      -73.348        2.698      -10.634       36.968       29.173       20.566     1366.621      851.042      422.960        0.407        0.132       73.398       11.832        0.026      341.392       16.073      860.894
05/15/2013  02:35:00     -113.214        0.450       -9.677       32.333       35.648       22.285     1045.395     1270.753      496.610        0.786        0.141      113.215       16.503        0.021      341.384       16.059      860.901
05/15/2013  02:36:00     -114.695      -17.666      -10.078       33.139       17.115       15.453     1098.213      292.911      238.809        0.760        0.081      116.047       14.004        0.015      341.373       16.040      860.905
05/15/2013  02:37:00     -140.067      -29.311      -10.017       27.951       29.853       17.875      781.247      891.228      319.522        1.128        0.100      143.101        9.391        0.004      341.317       15.947      860.921
05/15/2013  02:38:00      -93.979       13.010        0.205       28.529       17.783       15.760      813.925      316.219      248.377        0.519        0.069       94.875       14.739        0.024      341.294       15.907      860.927
05/15/2013  02:39:00      -36.663      -16.656       -3.953       25.062       14.449       10.035      628.106      208.762      100.693        0.129        0.047       40.269        9.874        0.060      341.381       16.054      860.917
05/15/2013  02:40:00        0.171      -44.903        1.308       21.192       14.889       13.333      449.096      221.670      177.758        0.143        0.042       44.903        8.407        0.035      341.467       16.199      860.912
05/15/2013  02:41:00       -7.741      -40.699        4.910       19.884       20.880       10.284      395.384      435.964      105.755        0.134        0.047       41.429        6.228        0.023      341.433       16.140      860.926
05/15/2013  02:42:00      -37.420      -36.260       -6.541       17.253       15.496       11.615      297.651      240.135      134.900        0.172        0.034       52.106       10.991        0.044      341.508       16.269      860.939
05/15/2013  02:43:00      -36.397      -18.994       -2.004       25.571       11.042        8.051      653.895      121.925       64.817        0.126        0.042       41.055        8.801        0.046      341.484       16.227      860.946
05/15/2013  02:44:00       -7.621      -26.267       -4.318       12.516       15.841       11.153      156.654      250.948      124.379        0.065        0.027       27.350       10.249        0.140      341.516       16.281      860.942
05/15/2013  02:45:00      -80.429      -45.051       -5.128       40.334       26.979       15.499     1626.838      727.891      240.211        0.556        0.130       92.187        9.417        0.010      341.558       16.352      860.971
05/15/2013  02:46:00      -42.974      -53.379        2.538       57.890       32.756       20.428     3351.286     1072.937      417.306        0.477        0.242       68.528       24.582        0.129      341.407       16.097      860.990
05/15/2013  02:47:00      -96.413        6.647       -8.835       43.138       32.330       15.868     1860.889     1045.217      251.788        0.629        0.158       96.642       12.876        0.018      341.393       16.074      860.985
05/15/2013  02:48:00      -57.270      -32.968       -3.448       27.320       18.684       12.021      746.407      349.088      144.511        0.281        0.062       66.081       13.915        0.044      341.329       15.965      860.973
05/15/2013  02:49:00       -6.552      -19.709       -6.573       23.503       23.141        7.738      552.407      535.490       59.883        0.081        0.057       20.769        8.080        0.151      341.435       16.145      860.955
05/15/2013  02:50:00      -76.941       -7.488       -8.193       22.395       29.246       16.165      501.544      855.353      261.294        0.383        0.081       77.305       12.440        0.026      341.411       16.105      860.982
05/15/2013  02:51:00      -77.734      -39.082        1.662       37.029       33.831       18.293     1371.135     1144.516      334.648        0.521        0.143       87.006       16.922        0.038      341.173       15.703      860.985
05/15/2013  02:52:00      -71.931      -13.857       -8.638       19.555       31.055       12.762      382.408      964.401      162.868        0.347        0.075       73.254        9.981        0.019      341.174       15.704      860.980
05/15/2013  02:53:00      -30.825        1.902       -2.330       33.376        7.924        7.381     1113.978       62.793       54.479        0.110        0.062       30.884        2.091        0.005      341.185       15.723      860.985
05/15/2013  02:54:00       51.650       27.035        5.629       24.577       25.053       18.488      604.038      627.639      341.810        0.250        0.079       58.298       14.469        0.062      341.238       15.813      860.955
05/15/2013  02:55:00       31.593       24.568       35.187       32.719       28.536       21.370     1070.562      814.301      456.686        0.259        0.117       40.021       15.816        0.156      341.083       15.550      860.925
05/15/2013  02:56:00       43.268       70.993       43.694       22.998       26.295       27.939      528.921      691.417      780.611        0.541        0.100       83.139       21.162        0.065      341.147       15.659      860.912
05/15/2013  02:57:00       26.130       25.866       34.007       30.774       27.311       20.723      947.051      745.876      429.431        0.231        0.106       36.767       21.741        0.350      341.291       15.904      860.903
05/15/2013  02:58:00       -0.329       29.297       41.512       16.142       18.814       12.281      260.575      353.961      150.828        0.167        0.038       29.299        9.378        0.102      341.211       15.767      860.898
05/15/2013  02:59:00       27.727       15.148       18.612       21.496       11.185       11.399      462.071      125.105      129.939        0.103        0.036       31.595        7.901        0.063      341.231       15.800      860.897
05/15/2013  03:00:00       27.794       18.465       12.499       16.183        9.617        9.050      261.883       92.482       81.895        0.085        0.022       33.369        6.836        0.042      341.329       15.966      860.899
05/15/2013  03:01:00       39.011       26.581       11.769       10.030        9.371       11.854      100.604       87.815      140.519        0.135        0.016       47.206        7.601        0.026      341.408       16.098      860.906
05/15/2013  03:02:00       34.921       29.497       21.686       20.467       16.968       13.172      418.892      287.917      173.494        0.172        0.044       45.712       13.283        0.084      341.348       15.998      860.900
05/15/2013  03:03:00       -7.700       -8.789       24.630       10.266       29.743       14.252      105.398      884.649      203.111        0.097        0.060       11.685       11.369        0.947      341.337       15.978      860.895
05/15/2013  03:04:00      -10.531      -20.166        6.662       23.350       30.442       13.633      545.242      926.721      185.857        0.111        0.083       22.750       13.141        0.334      341.312       15.936      860.888
05/15/2013  03:05:00      -58.617      -37.428        3.155       31.717       18.668       14.939     1005.975      348.505      223.187        0.321        0.079       69.547       14.836        0.046      341.166       15.690      860.889
05/15/2013  03:06:00      -39.131      -21.394       -3.928       11.396       17.376        8.869      129.876      301.931       78.661        0.126        0.026       44.598        3.748        0.007      341.272       15.870      860.890
05/15/2013  03:07:00      -20.014        9.747       -0.488        7.749        7.823        5.162       60.050       61.203       26.643        0.032        0.007       22.261        3.741        0.028      341.428       16.134      860.889
05/15/2013  03:08:00       -8.652      -29.271       -4.281        6.235       14.500        6.512       38.881      210.251       42.411        0.062        0.015       30.523        5.145        0.028      341.632       16.478      860.887
05/15/2013  03:09:00     -100.050       -0.527      -12.732       40.805       23.230       16.422     1665.062      539.615      269.678        0.632        0.124      100.051       17.910        0.032      341.285       15.892      860.894
05/15/2013  03:10:00      -78.136       -3.322      -14.396       48.214       17.827       14.612     2324.619      317.818      213.516        0.459        0.143       78.206       21.440        0.075      341.269       15.866      860.914
05/15/2013  03:11:00      -13.113      -19.743       -6.012       19.321        8.717        8.019      373.320       75.986       64.305        0.056        0.026       23.701       10.398        0.192      341.272       15.868      860.891
05/15/2013  03:12:00      -46.309      -14.242       -3.429       21.281       17.725        8.645      452.869      314.184       74.738        0.160        0.042       48.450        5.201        0.012      341.289       15.898      860.893
05/15/2013  03:13:00     -102.505       -6.838       -3.846       37.038       43.180       18.836     1371.827     1864.554      354.795        0.708        0.180      102.733       17.112        0.028      341.017       15.437      860.909
05/15/2013  03:14:00     -107.814       47.830       -9.933       45.073       21.061       15.163     2031.565      443.579      229.905        0.836        0.135      117.948        9.666        0.007      340.870       15.189      860.912
05/15/2013  03:15:00      -17.349       31.004       -5.269       14.734       26.422       11.845      217.084      698.140      140.306        0.117        0.053       35.528        7.894        0.049      340.916       15.268      860.891
05/15/2013  03:16:00      -35.116       -3.290       -4.935       15.940       14.720        6.429      254.080      216.685       41.328        0.089        0.026       35.270        5.749        0.027      340.907       15.251      860.869
05/15/2013  03:17:00      -55.239       10.869       -5.205       11.042        7.266        6.717      121.935       52.795       45.120        0.171        0.011       56.298        5.536        0.010      340.918       15.271      860.857
05/15/2013  03:18:00      -22.676        0.288       -4.592       14.426       10.316        4.491      208.119      106.424       20.168        0.043        0.017       22.678        3.291        0.021      341.044       15.483      860.843
05/15/2013  03:19:00        3.497      -41.418       -9.720       10.125       26.175        9.057      102.524      685.115       82.027        0.135        0.043       41.565        1.566        0.001      341.006       15.420      860.828
05/15/2013  03:20:00       -4.088       20.655       37.619       26.131       41.290       14.813      682.805     1704.837      219.412        0.223        0.130       21.056       18.983        0.813      340.961       15.343      860.817
05/15/2013  03:21:00      -33.495      -11.021       10.303       28.221       15.240       13.273      796.405      232.261      176.167        0.128        0.060       35.262       13.847        0.154      340.951       15.325      860.821
05/15/2013  03:22:00      -53.967      -18.309        2.728       18.961       16.757       11.003      359.532      280.794      121.069        0.201        0.038       56.988        9.402        0.027      340.896       15.233      860.822
05/15/2013  03:23:00      -63.976        4.447       -4.049       11.354        8.777        7.100      128.921       77.028       50.404        0.219        0.013       64.130        6.020        0.009      340.877       15.202      860.817
05/15/2013  03:24:00      -33.161       -1.002       -4.123       14.226        6.908        6.358      202.384       47.725       40.420        0.070        0.015       33.176        4.876        0.022      340.950       15.325      860.809
05/15/2013  03:25:00       16.220       -2.487       -2.129       20.082        9.999        7.062      403.288       99.981       49.876        0.041        0.028       16.410       10.504        0.410      341.042       15.482      860.800
05/15/2013  03:26:00       10.399       -2.536       -4.335       11.352        3.976        7.028      128.869       15.811       49.387        0.016        0.010       10.704        8.192        0.586      341.066       15.523      860.792
05/15/2013  03:27:00      -32.841       -8.092       -3.797       17.860        6.976        6.881      318.980       48.666       47.343        0.079        0.021       33.823        8.672        0.066      340.937       15.301      860.790
05/15/2013  03:28:00      -74.314      -30.759       -2.392       44.860       23.600       19.616     2012.410      556.941      384.771        0.471        0.148       80.428       23.304        0.084      340.755       14.995      860.790
05/15/2013  03:29:00      -32.947      -18.029        8.413       38.668       21.431       17.287     1495.179      459.300      298.823        0.187        0.113       37.557       20.790        0.306      340.673       14.855      860.792
05/15/2013  03:30:00      -67.591       -3.205       -4.287       21.684       19.835        9.685      470.194      393.412       93.790        0.278        0.048       67.667        6.879        0.010      340.738       14.965      860.793
05/15/2013  03:31:00      -76.930       -4.400       -9.908       13.770       19.214        7.901      189.611      369.161       62.419        0.333        0.031       77.056        6.871        0.008      340.677       14.864      860.783
05/15/2013  03:32:00      -66.201      -32.149        7.802       24.128       16.603       14.837      582.165      275.652      220.132        0.328        0.054       73.594       13.240        0.032      340.716       14.927      860.783
05/15/2013  03:33:00      -63.395      -40.419       -5.346       15.740       12.300       13.035      247.746      151.290      169.923        0.312        0.028       75.184        8.678        0.013      340.819       15.102      860.775
05/15/2013  03:34:00      -51.868      -27.690        0.353       16.358       21.400       10.896      267.570      457.973      118.725        0.215        0.042       58.797        5.690        0.009      340.788       15.050      860.771
05/15/2013  03:35:00      -46.078       14.913       -2.439       15.372       14.854        7.483      236.295      220.631       55.989        0.143        0.026       48.431        4.324        0.008      340.709       14.916      860.769
05/15/2013  03:36:00      -41.986       13.413       -5.311        7.623       16.116        5.145       58.108      259.720       26.470        0.116        0.017       44.076        4.725        0.011      340.806       15.080      860.751
05/15/2013  03:37:00      -47.992      -18.891       -7.137        9.740       10.197        7.308       94.864      103.982       53.411        0.148        0.013       51.577        6.315        0.015      340.844       15.141      860.748
05/15/2013  03:38:00      -49.773      -12.022       -7.833        7.355       10.141        5.104       54.095      102.836       26.055        0.143        0.009       51.204        4.855        0.009      340.774       15.026      860.760
05/15/2013  03:39:00      -36.192       -2.114       -5.051        5.323        6.112        4.335       28.337       37.359       18.791        0.071        0.004       36.254        2.229        0.004      340.682       14.875      860.768
05/15/2013  03:40:00      -35.908      -12.328       -9.365        5.440        5.967        4.899       29.595       35.608       23.996        0.081        0.004       37.965        2.356        0.004      340.629       14.782      860.779
05/15/2013  03:41:00      -18.489       -6.474       -7.887        8.057        9.006        5.873       64.923       81.104       34.492        0.031        0.009       19.589        3.394        0.030      340.743       14.977      860.784
05/15/2013  03:42:00      -32.095        1.768       -4.037        6.579        8.332        4.270       43.283       69.422       18.230        0.059        0.007       32.144        4.239        0.017      340.689       14.883      860.796
05/15/2013  03:43:00      -27.008       12.706       -2.198        6.825       12.996        6.629       46.578      168.893       43.949        0.058        0.013       29.848        3.624        0.015      340.591       14.717      860.809
05/15/2013  03:44:00      -12.909       44.727       -5.780       17.528       13.960        8.729      307.243      194.878       76.200        0.139        0.029       46.553        5.710        0.015      340.708       14.916      860.818
05/15/2013  03:45:00      -11.059       53.820       -6.427       13.922        9.790        5.788      193.830       95.842       33.496        0.169        0.016       54.945        3.744        0.005      340.771       15.021      860.817
05/15/2013  03:46:00       -6.623       42.711        2.245        9.681       26.599       11.787       93.721      707.485      138.943        0.141        0.047       43.221       13.959        0.104      340.690       14.885      860.814
05/15/2013  03:47:00        9.324       40.052        0.852        9.370       23.353        9.738       87.801      545.360       94.821        0.121        0.036       41.123       10.874        0.070      340.681       14.871      860.818
05/15/2013  03:48:00        0.402        3.611        1.387        8.142        5.348        6.518       66.293       28.605       42.489        0.008        0.007        3.633        5.596        2.372      340.605       14.739      860.824
05/15/2013  03:49:00       -3.515       10.816       -1.789        5.001        9.725        4.644       25.008       94.568       21.569        0.014        0.007       11.373        5.512        0.235      340.653       14.823      860.830
05/15/2013  03:50:00      -34.283       -3.793       -2.754       20.438       13.177        6.388      417.724      173.645       40.812        0.091        0.032       34.492        5.297        0.024      340.476       14.523      860.833
05/15/2013  03:51:00      -57.022       -2.925       -7.850       11.404       11.906        8.627      130.056      141.761       74.418        0.183        0.017       57.097        3.821        0.004      340.292       14.211      860.838
05/15/2013  03:52:00      -47.602        3.086       -4.751       13.036        6.841        9.169      169.933       46.798       84.076        0.130        0.015       47.702        6.937        0.021      340.417       14.422      860.832
05/15/2013  03:53:00       -9.007        7.409        8.114       20.375       15.257        8.669      415.132      232.777       75.150        0.046        0.036       11.663       10.993        0.888      340.536       14.624      860.831
05/15/2013  03:54:00       10.849       16.842        2.204       15.498       13.782        5.798      240.192      189.937       33.613        0.043        0.023       20.034        7.251        0.131      340.676       14.862      860.837
05/15/2013  03:55:00      -35.613      -14.982       -1.544       16.257       11.462        7.695      264.288      131.385       59.217        0.097        0.023       38.636        7.317        0.036      340.484       14.537      860.839
05/15/2013  03:56:00      -64.809      -23.700       -5.812       15.235       13.704       12.581      232.117      187.801      158.294        0.269        0.029       69.007        8.616        0.016      340.162       13.990      860.828
05/15/2013  03:57:00      -33.141       -9.557       -6.898       11.456       13.369        8.190      131.248      178.730       67.076        0.081        0.019       34.491        6.258        0.033      340.223       14.095      860.817
05/15/2013  03:58:00       -3.838      -11.322       -0.697        6.163       13.287        6.567       37.977      176.536       43.129        0.020        0.013       11.955        4.703        0.155      340.345       14.300      860.806
05/15/2013  03:59:00      -13.678       -3.045       -2.118        7.691        7.580        3.737       59.149       57.457       13.968        0.017        0.007       14.013        2.846        0.041      340.438       14.460      860.814
05/15/2013  04:00:00      -48.292       -7.786       -6.845       18.777        5.922        6.736      352.578       35.073       45.369        0.144        0.022       48.915        7.196        0.022      340.279       14.189      860.822
05/15/2013  04:01:00      -96.525      -10.583      -12.806       14.560       13.657        8.672      211.987      186.511       75.202        0.503        0.024       97.104        5.052        0.003      340.046       13.796      860.823
05/15/2013  04:02:00      -63.120       -5.605       -5.437       20.866       21.153       13.433      435.392      447.434      180.447        0.255        0.053       63.368        8.671        0.019      340.134       13.944      860.821
05/15/2013  04:03:00      -57.425       -8.228       -6.026       16.073       15.433       11.593      258.348      238.184      134.388        0.202        0.032       58.012        2.624        0.002      340.055       13.811      860.827
05/15/2013  04:04:00      -59.955      -19.267      -13.014       11.217       14.339       10.863      125.815      205.610      117.999        0.229        0.022       62.975        4.633        0.005      340.037       13.781      860.824
05/15/2013  04:05:00      -30.172      -22.713       -3.647       18.553       20.230       12.750      344.223      409.273      162.556        0.118        0.046       37.766        6.052        0.026      340.012       13.741      860.822
05/15/2013  04:06:00       -9.205        6.322        2.782       13.333       17.760       11.470      177.762      315.416      131.565        0.038        0.031       11.167        5.823        0.272      340.054       13.810      860.816
05/15/2013  04:07:00       45.383       39.125        9.075       13.501       15.866       17.846      182.281      251.728      318.467        0.221        0.038       59.920       11.128        0.034      340.020       13.751      860.812
05/15/2013  04:08:00       27.007       47.032       -6.124       19.930       23.442       10.647      397.188      549.539      113.352        0.202        0.053       54.234       11.809        0.047      340.098       13.884      860.813
05/15/2013  04:09:00       23.673       83.333      -12.981       13.647       15.188       12.969      186.231      230.663      168.203        0.413        0.029       86.630        9.191        0.011      340.244       14.131      860.814
05/15/2013  04:10:00       20.420       30.618       -5.497       13.805       27.750       10.530      190.586      770.081      110.875        0.123        0.054       36.803       12.135        0.109      340.256       14.150      860.805
05/15/2013  04:11:00       -3.501        2.235        4.935        4.297        6.217        4.875       18.468       38.652       23.763        0.006        0.004        4.154        3.216        0.599      340.220       14.089      860.812
05/15/2013  04:12:00       -3.113       -6.978        7.135        4.470       11.601        6.052       19.983      134.580       36.625        0.015        0.010        7.640        4.308        0.318      340.231       14.109      860.825
05/15/2013  04:13:00        4.492        2.242       15.940        9.588       13.242        6.719       91.923      175.341       45.144        0.030        0.016        5.020        5.338        1.131      340.216       14.081      860.824
05/15/2013  04:14:00       38.586       14.042        8.537       10.983       10.493       10.838      120.626      110.101      117.457        0.105        0.017       41.062        6.338        0.024      340.249       14.139      860.813
05/15/2013  04:15:00       36.329        9.826        7.379       23.696       12.898        9.991      561.488      166.348       99.812        0.115        0.041       37.634        6.700        0.032      340.175       14.014      860.820
05/15/2013  04:16:00        7.252       -0.384        6.294        9.189       11.130        6.669       84.442      123.879       44.473        0.017        0.013        7.262        4.784        0.434      340.167       14.000      860.843
05/15/2013  04:17:00       41.694        5.126        9.247       17.552       10.537        8.678      308.059      111.028       75.301        0.117        0.025       42.008        5.977        0.020      340.261       14.158      860.833
05/15/2013  04:18:00       63.752       -1.877        3.891       36.501       11.656       14.120     1332.311      135.858      199.363        0.287        0.083       63.780       14.098        0.049      340.323       14.264      860.825
05/15/2013  04:19:00       -3.864      -34.839       12.321       16.981       27.861       15.062      288.343      776.233      226.854        0.134        0.065       35.052       10.651        0.092      340.416       14.420      860.831
05/15/2013  04:20:00      -15.629        9.972       14.841       12.685       13.051       14.923      160.922      170.335      222.682        0.056        0.028       18.539       12.419        0.449      340.276       14.186      860.819
05/15/2013  04:21:00      -41.148       -8.160      -10.550        6.144        9.846        6.418       37.753       96.938       41.186        0.102        0.009       41.950        3.380        0.006      340.028       13.764      860.799
05/15/2013  04:22:00      -38.474      -14.524       -7.219        5.968        7.680        5.473       35.617       58.979       29.953        0.093        0.006       41.124        3.702        0.008      340.035       13.778      860.796
05/15/2013  04:23:00      -30.142      -16.676      -10.877       12.897        7.772        8.206      166.342       60.407       67.337        0.080        0.015       34.448        3.498        0.010      340.031       13.769      860.800
05/15/2013  04:24:00      -53.359      -23.905       -5.088       18.776       12.094        9.261      352.537      146.268       85.770        0.201        0.029       58.469        8.289        0.020      339.946       13.627      860.797
05/15/2013  04:25:00      -63.856        7.202       -8.394       27.666       15.013       12.385      765.404      225.403      153.393        0.267        0.057       64.260        7.267        0.013      339.776       13.341      860.787
05/15/2013  04:26:00      -77.065        3.951      -11.728       14.100        9.244        5.787      198.796       85.446       33.488        0.320        0.016       77.166        1.826        0.001      340.036       13.780      860.809
05/15/2013  04:27:00      -69.702      -22.872       -4.828       26.013       13.516        9.069      676.686      182.677       82.255        0.317        0.047       73.359        7.243        0.010      339.976       13.678      860.826
05/15/2013  04:28:00     -101.837        5.693      -10.959       21.360       15.986       14.471      456.241      255.565      209.404        0.572        0.046      101.996       11.480        0.013      339.694       13.204      860.817
05/15/2013  04:29:00      -75.451       10.655      -10.349       23.443       10.633        9.008      549.567      113.054       81.147        0.333        0.037       76.200        5.006        0.004      339.844       13.454      860.822
05/15/2013  04:30:00      -74.853       -9.997      -11.402       15.470       12.878        8.793      239.323      165.832       77.314        0.316        0.024       75.518        6.720        0.008      339.693       13.202      860.837
05/15/2013  04:31:00     -106.594      -22.808       -7.856       32.135       30.914       16.555     1032.688      955.673      274.079        0.710        0.113      109.007       10.292        0.009      339.603       13.051      860.839
05/15/2013  04:32:00     -106.886       10.602      -10.242       44.620       35.120       29.245     1990.946     1233.444      855.265        0.786        0.204      107.410       13.658        0.016      339.474       12.832      860.851
05/15/2013  04:33:00     -110.820       24.012       -8.579       51.145       36.025       21.133     2615.811     1297.807      446.598        0.865        0.218      113.392       15.218        0.018      339.509       12.892      860.858
05/15/2013  04:34:00     -107.085       -5.022      -14.415       41.269       24.743       14.533     1703.131      612.232      211.196        0.711        0.126      107.203       15.293        0.020      339.506       12.884      860.868
05/15/2013  04:35:00     -102.177      -12.128       -3.108       36.715       35.697       21.822     1348.007     1274.240      476.188        0.685        0.155      102.894       18.558        0.033      339.421       12.743      860.866
05/15/2013  04:36:00      -47.139      -28.596        1.274       36.249       35.117       18.842     1314.011     1233.221      355.023        0.297        0.145       55.135        5.865        0.011      339.431       12.760      860.850
05/15/2013  04:37:00      -75.812      -10.384       -9.260       39.032       22.243       19.739     1523.495      494.768      389.633        0.417        0.120       76.520       15.151        0.039      339.448       12.788      860.849
05/15/2013  04:38:00      -41.268      -30.157        5.578       37.878       27.894       23.986     1434.742      778.081      575.305        0.272        0.139       51.113       17.917        0.123      339.406       12.718      860.850
05/15/2013  04:39:00      -88.945      -53.551        4.560       35.425       32.685       24.425     1254.921     1068.282      596.591        0.686        0.146      103.822       14.828        0.020      339.578       13.007      860.842
05/15/2013  04:40:00      -69.612      -36.291        0.617       54.679       42.729       20.119     2989.740     1825.786      404.788        0.569        0.261       78.504       15.796        0.040      339.560       12.977      860.827
05/15/2013  04:41:00      -96.462        8.867       -3.555       52.419       28.638       23.124     2747.715      820.107      534.725        0.675        0.205       96.869       24.220        0.063      339.403       12.711      860.811
05/15/2013  04:42:00     -112.317      -15.406       -2.795       45.764       31.492       24.072     2094.332      991.733      579.441        0.826        0.183      113.369       25.381        0.050      339.368       12.654      860.784
05/15/2013  04:43:00     -113.631      -25.462       -6.315       33.818       37.749       18.379     1143.682     1425.021      337.802        0.825        0.145      116.449       15.725        0.018      339.359       12.639      860.781
05/15/2013  04:44:00      -85.377       -5.899       -5.392       38.459       33.532       19.003     1479.067     1124.413      361.132        0.516        0.148       85.580       17.836        0.043      339.356       12.633      860.771
05/15/2013  04:45:00     -114.185       -2.130       -8.552       36.305       37.315       22.660     1318.063     1392.446      513.472        0.817        0.161      114.205       19.120        0.028      339.362       12.642      860.768
05/15/2013  04:46:00     -120.397       21.290       -7.048       33.623       34.480       20.889     1130.515     1188.851      436.332        0.888        0.138      122.265       16.557        0.018      339.325       12.581      860.778
05/15/2013  04:47:00      -86.341      -21.641       -7.837       42.400       40.185       16.681     1797.760     1614.844      278.240        0.584        0.185       89.012       13.331        0.022      339.314       12.560      860.776
05/15/2013  04:48:00      -63.342       -8.159       -4.269       26.436       25.056       16.441      698.861      627.799      270.295        0.285        0.080       63.866        5.117        0.006      339.344       12.613      860.771
05/15/2013  04:49:00      -92.401      -18.854      -10.202       30.252       28.944       13.817      915.201      837.752      190.899        0.547        0.097       94.305        9.283        0.010      339.363       12.644      860.785
05/15/2013  04:50:00     -117.777      -51.171       -9.558       26.580       30.036       18.413      706.518      902.162      339.052        0.926        0.097      128.413        9.434        0.005      339.374       12.662      860.787
05/15/2013  04:51:00     -106.568      -44.952       -4.827       39.909       43.294       22.490     1592.696     1874.411      505.790        0.869        0.199      115.661       21.079        0.033      339.365       12.649      860.793
05/15/2013  04:52:00     -100.319      -33.614       -3.204       38.827       23.573       20.106     1507.546      555.697      404.259        0.684        0.123      105.801       21.072        0.040      339.389       12.690      860.796
05/15/2013  04:53:00     -111.117      -40.926       -7.032       38.977       40.828       22.249     1519.175     1666.962      495.029        0.888        0.184      118.414       19.864        0.028      339.328       12.585      860.786
05/15/2013  04:54:00     -111.731      -46.543       -4.264       43.294       36.468       20.355     1874.332     1329.883      414.345        0.914        0.181      121.037       21.763        0.032      339.365       12.650      860.798
05/15/2013  04:55:00     -123.922      -33.636      -11.083       25.561       25.265       13.819      653.388      638.323      190.962        0.905        0.074      128.406       10.824        0.007      339.408       12.719      860.785
05/15/2013  04:56:00     -115.196      -25.801       -8.239       29.982       21.997       18.315      898.932      483.879      335.452        0.786        0.086      118.050       12.833        0.012      339.477       12.838      860.772
05/15/2013  04:57:00      -86.515      -40.505       -2.211       33.296       21.656       15.101     1108.594      469.001      228.036        0.547        0.090       95.528       15.555        0.027      339.493       12.865      860.762
05/15/2013  04:58:00     -101.574      -29.676       -9.765       19.374       16.547       10.189      375.350      273.817      103.825        0.602        0.038      105.821        8.159        0.006      339.502       12.878      860.750
05/15/2013  04:59:00     -109.911      -13.015       -4.834       21.476       14.288       13.145      461.210      204.148      172.797        0.656        0.042      110.679       13.203        0.014      339.516       12.901      860.740
05/15/2013  05:00:00      -83.301      -26.892        0.348       22.721       16.715       13.237      516.247      279.380      175.220        0.432        0.049       87.534       11.410        0.017      339.596       13.037      860.735
05/15/2013  05:01:00      -91.930      -37.555       -1.042       21.391       15.264       12.633      457.568      232.977      159.596        0.536        0.043       99.306       11.346        0.013      339.598       13.042      860.730
05/15/2013  05:02:00     -104.479      -28.641       -4.271       17.641       16.164       15.335      311.188      261.277      235.160        0.628        0.040      108.333       12.772        0.014      339.492       12.862      860.733
05/15/2013  05:03:00     -118.480      -16.639       -9.137       30.609       35.204       17.590      936.930     1239.321      309.411        0.844        0.124      119.643       16.643        0.019      339.379       12.671      860.743
05/15/2013  05:04:00     -159.572       -7.457      -15.462       45.956       33.816       16.130     2111.945     1143.513      260.182        1.464        0.176      159.746       16.665        0.011      339.417       12.736      860.741
05/15/2013  05:05:00      -81.223      -24.753        4.524       32.570       26.528       21.286     1060.794      703.757      453.087        0.472        0.111       84.911       18.710        0.049      339.365       12.648      860.748
05/15/2013  05:06:00     -102.847      -39.088       -5.448       27.289       23.320       19.704      744.694      543.823      388.230        0.691        0.084      110.025       18.478        0.028      339.364       12.647      860.764
05/15/2013  05:07:00     -102.498       -1.410       -3.820       39.152       25.636       21.193     1532.903      657.229      449.150        0.658        0.132      102.508       22.565        0.048      339.426       12.751      860.778
05/15/2013  05:08:00      -78.577       -1.055       -0.500       36.741       26.128       18.324     1349.873      682.677      335.776        0.427        0.118       78.584       19.342        0.061      339.409       12.722      860.792
05/15/2013  05:09:00     -131.207       13.508      -10.874       29.846       25.647       15.098      890.797      657.774      227.958        0.965        0.089      131.900       10.436        0.006      339.417       12.737      860.802
05/15/2013  05:10:00     -108.474        7.498       -6.980       23.113       26.471       18.132      534.225      700.688      328.759        0.672        0.078      108.733        9.663        0.008      339.379       12.671      860.800
05/15/2013  05:11:00      -85.343      -16.778      -11.713       17.386       24.508       13.569      302.256      600.622      184.107        0.439        0.054       86.977       11.938        0.019      339.443       12.781      860.805
05/15/2013  05:12:00      -74.313        7.641      -10.617       19.368       20.908       13.585      375.129      437.126      184.556        0.334        0.050       74.705        9.781        0.017      339.416       12.734      860.806
05/15/2013  05:13:00     -104.802       -1.603      -12.079       13.376       19.836       10.772      178.927      393.447      116.044        0.591        0.034      104.815        9.542        0.008      339.428       12.755      860.799
05/15/2013  05:14:00      -94.581      -35.124      -10.702       24.130       20.080       17.027      582.276      403.204      289.914        0.578        0.064      100.893       14.923        0.022      339.414       12.731      860.800
05/15/2013  05:15:00     -134.000      -26.992       -6.555       38.577       33.260       20.088     1488.167     1106.196      403.543        1.086        0.150      136.692       15.735        0.013      339.375       12.665      860.807
05/15/2013  05:16:00      -51.813      -26.026       -6.093       19.697       21.060       10.338      387.991      443.535      106.872        0.217        0.047       57.982        9.693        0.028      339.320       12.573      860.782
05/15/2013  05:17:00      -38.133      -42.689       -2.987       23.594       16.525       10.115      556.683      273.084      102.316        0.211        0.047       57.241        9.829        0.029      339.487       12.853      860.764
05/15/2013  05:18:00      -51.105      -22.635        0.100       18.871       17.261       10.124      356.127      297.925      102.502        0.194        0.038       55.894        9.060        0.026      339.397       12.703      860.772
05/15/2013  05:19:00       -1.568       10.651       14.751       23.043       12.839       12.707      530.969      164.846      161.471        0.060        0.043       10.766       16.537        2.360      339.409       12.724      860.754
05/15/2013  05:20:00      -41.738        9.411       -1.037       41.249       14.772       14.274     1701.443      218.212      203.761        0.198        0.106       42.786       20.214        0.223      339.425       12.751      860.744
05/15/2013  05:21:00     -100.827      -19.514      -11.548       27.086       19.488       14.635      733.636      379.771      214.188        0.600        0.066      102.698       14.068        0.019      339.345       12.614      860.769
05/15/2013  05:22:00      -56.909      -19.899      -11.524       23.732        7.866        7.122      563.192       61.875       50.729        0.222        0.034       60.288        6.641        0.012      339.314       12.562      860.783
05/15/2013  05:23:00      -43.034       19.527       -5.219       20.378       13.867        8.173      415.247      192.298       66.797        0.147        0.034       47.257        8.301        0.031      339.379       12.670      860.766
05/15/2013  05:24:00      -80.354      -28.224      -13.029       19.586       26.002       11.167      383.631      676.122      124.691        0.430        0.059       85.167        9.116        0.011      339.523       12.915      860.771
05/15/2013  05:25:00     -101.394      -46.252       -6.263       13.367       10.299        8.315      178.670      106.067       69.137        0.641        0.018      111.445        1.925        0.000      339.410       12.724      860.782
05/15/2013  05:26:00      -86.888      -31.761      -15.543       15.298       13.126        8.764      234.029      172.300       76.807        0.464        0.024       92.511        5.420        0.003      339.404       12.714      860.778
05/15/2013  05:27:00     -106.647      -31.956      -10.093       23.751       17.705       13.855      564.133      313.482      191.962        0.678        0.053      111.332        6.848        0.004      339.439       12.774      860.786
05/15/2013  05:28:00     -150.236      -45.446       -8.158       26.738       24.434       16.377      714.926      597.039      268.221        1.314        0.079      156.959       12.840        0.007      339.300       12.539      860.812
05/15/2013  05:29:00     -120.505      -21.984       -5.655       45.552       33.908       22.406     2074.963     1149.733      502.040        0.938        0.186      122.494       18.261        0.022      339.195       12.364      860.841
05/15/2013  05:30:00     -120.960      -20.647       -9.145       44.285       33.652       21.588     1961.149     1132.447      466.051        0.935        0.178      122.709       18.994        0.024      339.161       12.304      860.867
05/15/2013  05:31:00      -78.362      -16.904        0.583       40.281       32.461       19.450     1622.566     1053.740      378.313        0.474        0.153       80.164       17.304        0.047      339.145       12.278      860.884
05/15/2013  05:32:00      -50.791      -36.416       -3.907       45.520       27.517       15.303     2072.106      757.192      234.184        0.349        0.153       62.497       10.099        0.026      339.260       12.471      860.895
05/15/2013  05:33:00      -56.907      -35.346        4.479       51.092       28.693       16.423     2610.429      823.296      269.704        0.410        0.185       66.990       21.097        0.099      339.253       12.460      860.908
05/15/2013  05:34:00      -10.335      -20.867        5.560       18.447       11.683       14.477      340.288      136.483      209.581        0.063        0.034       23.287       11.894        0.261      339.299       12.537      860.913
05/15/2013  05:35:00       -4.066      -11.041        7.113        7.802       12.126       11.161       60.868      147.028      124.576        0.026        0.017       11.766        6.280        0.285      339.404       12.714      860.910
05/15/2013  05:36:00      -20.239      -21.603       -4.740       15.921       12.068       10.000      253.464      145.641      100.008        0.070        0.025       29.603        6.545        0.049      339.510       12.890      860.911
05/15/2013  05:37:00      -50.941      -47.318       -3.478       24.575       17.088       15.912      603.912      291.984      253.207        0.300        0.057       69.527       12.165        0.031      339.366       12.650      860.916
05/15/2013  05:38:00      -69.815      -45.801      -10.933       15.405       25.572       16.317      237.320      653.924      266.260        0.412        0.058       83.497        6.142        0.005      339.322       12.575      860.923
05/15/2013  05:39:00     -102.733      -55.130      -16.052       15.892       21.254       12.150      252.554      451.731      147.625        0.735        0.043      116.590        8.377        0.005      339.263       12.477      860.942
05/15/2013  05:40:00     -120.654      -63.500      -10.194       21.058       24.872       16.438      443.432      618.598      270.194        1.001        0.067      136.344       12.859        0.009      339.255       12.463      860.952
05/15/2013  05:41:00      -82.976      -37.319       -1.953       47.072       42.222       22.993     2215.780     1782.664      528.666        0.640        0.226       90.982       23.200        0.065      339.339       12.606      860.957
05/15/2013  05:42:00     -102.043      -28.939       -3.171       44.061       34.027       34.147     1941.412     1157.851     1166.037        0.776        0.213      106.067       28.199        0.071      339.319       12.571      860.959
05/15/2013  05:43:00     -124.354      -34.049       -0.452       44.004       31.701       23.536     1936.346     1004.961      553.942        1.006        0.175      128.931       21.707        0.028      339.147       12.280      860.947
05/15/2013  05:44:00      -28.804       -4.156       13.861       62.917       37.719       25.194     3958.527     1422.727      634.763        0.353        0.301       29.103       25.194        0.749      339.248       12.451      860.942
05/15/2013  05:45:00      -13.050       -8.822      -10.512       42.954       38.692       19.000     1845.053     1497.049      361.014        0.203        0.185       15.752       17.424        1.224      339.450       12.790      860.944
05/15/2013  05:46:00      -26.205      -39.974       -4.516       31.349       22.386       18.619      982.778      501.136      346.680        0.207        0.092       47.798        9.720        0.041      339.472       12.829      860.947
05/15/2013  05:47:00      -49.919      -33.940        0.694       44.971       23.856       19.546     2022.416      569.097      382.056        0.331        0.149       60.364       20.271        0.113      339.273       12.494      860.959
05/15/2013  05:48:00      -95.465      -50.538      -12.508       19.102       16.466       11.187      364.892      271.140      125.148        0.629        0.038      108.017        5.308        0.002      339.093       12.192      860.962
05/15/2013  05:49:00       -8.849      -43.564       -0.091       20.531       20.087       17.999      421.542      403.496      323.949        0.156        0.057       44.454       18.442        0.172      339.225       12.412      860.961
05/15/2013  05:50:00       13.258      -15.737        4.984       14.452       16.350       15.641      208.852      267.330      244.634        0.058        0.036       20.577       11.621        0.319      339.298       12.535      860.947
05/15/2013  05:51:00      -66.964      -34.576       -6.704       33.042       21.035       14.680     1091.785      442.481      215.510        0.374        0.087       75.364       17.239        0.052      339.226       12.415      860.942
05/15/2013  05:52:00     -100.669      -34.776      -17.092       11.624       13.285        9.222      135.108      176.490       85.044        0.602        0.020      106.507        5.025        0.002      339.265       12.480      860.936
05/15/2013  05:53:00      -40.394      -27.693       -9.699       35.595       27.401       14.486     1267.002      750.831      209.833        0.236        0.111       48.975       17.093        0.122      339.418       12.738      860.941
05/15/2013  05:54:00       14.487        3.578        3.537       14.332       13.316        8.958      205.402      177.320       80.243        0.035        0.023       14.922        8.752        0.344      339.532       12.929      860.934
05/15/2013  05:55:00      -17.085      -18.575        3.156       28.798       14.092       11.406      829.337      198.579      130.098        0.090        0.058       25.238       13.463        0.285      339.550       12.960      860.938
05/15/2013  05:56:00      -57.588      -25.732       -5.835       13.592       12.227       10.160      184.733      149.510      103.222        0.222        0.022       63.076        8.759        0.019      339.354       12.631      860.936
05/15/2013  05:57:00      -65.819      -11.865       -8.772       13.750       11.409        8.287      189.066      130.156       68.668        0.247        0.019       66.880        3.801        0.003      339.487       12.856      860.940
05/15/2013  05:58:00      -31.481        5.496      -10.405       31.567       25.227       11.721      996.476      636.422      137.371        0.145        0.089       31.957        8.373        0.069      339.698       13.211      860.936
05/15/2013  05:59:00      -45.933       -7.713       -6.981       41.600       42.966       12.357     1730.562     1846.120      152.707        0.297        0.186       46.576        4.072        0.008      339.503       12.880      860.940
05/15/2013  06:00:00     -108.848      -64.608      -11.517       32.772       29.946       14.704     1074.022      896.738      216.194        0.917        0.109      126.579       14.040        0.012      339.098       12.200      860.943
05/15/2013  06:01:00      -16.023      -32.298       12.229       42.115       30.120       27.207     1773.700      907.201      740.217        0.243        0.171       36.055       26.676        0.547      339.090       12.184      860.957
05/15/2013  06:02:00      -73.555      -20.825       -8.774       28.590       27.357       20.062      817.366      748.425      402.487        0.394        0.098       76.446       13.116        0.029      339.178       12.334      860.965
05/15/2013  06:03:00      -72.328      -37.549       -5.843       50.884       30.927       17.731     2589.219      956.456      314.388        0.527        0.193       81.494       14.566        0.032      339.209       12.385      860.962
05/15/2013  06:04:00     -131.767      -53.252      -12.112       17.168       24.262       15.020      294.745      588.639      225.597        1.073        0.055      142.121        8.465        0.004      339.226       12.413      860.970
05/15/2013  06:05:00     -128.219      -49.723      -14.709       21.762       21.638       12.552      473.570      468.196      157.563        1.011        0.055      137.523       11.545        0.007      339.238       12.433      860.981
05/15/2013  06:06:00      -92.291      -42.531       -5.016       21.055       15.962       15.452      443.296      254.790      238.774        0.564        0.047      101.619       11.881        0.014      339.263       12.475      860.989
05/15/2013  06:07:00     -107.509      -37.318       -8.878       24.232       20.026       16.965      587.167      401.023      287.827        0.715        0.064      113.802       10.511        0.009      339.305       12.547      860.994
05/15/2013  06:08:00      -99.649      -45.515       -1.319       33.846       17.991       19.165     1145.523      323.667      367.306        0.692        0.092      109.551       19.999        0.033      339.368       12.653      860.998
05/15/2013  06:09:00      -74.296      -53.521        0.731       27.437       24.736       18.163      752.781      611.855      329.910        0.504        0.085       91.566       16.978        0.034      339.454       12.798      861.007
05/15/2013  06:10:00      -93.245      -49.816      -18.718       12.649        8.367       11.812      159.995       69.998      139.525        0.595        0.018      105.718        7.727        0.005      339.393       12.696      861.018
05/15/2013  06:11:00      -95.189      -39.103      -12.501       13.103       14.235       11.193      171.698      202.633      125.276        0.562        0.025      102.908        6.925        0.005      339.347       12.618      861.035
05/15/2013  06:12:00      -89.775      -48.623      -15.746       14.581       12.184        9.851      212.592      148.444       97.036        0.556        0.023      102.097        5.870        0.003      339.327       12.583      861.050
05/15/2013  06:13:00     -103.483      -60.022      -10.254       22.405       19.064       11.408      501.999      363.441      130.137        0.771        0.050      119.630       11.956        0.010      339.276       12.498      861.068
05/15/2013  06:14:00      -86.869      -53.837      -11.129       13.461       22.682       10.985      181.200      514.463      120.677        0.569        0.041      102.198        6.216        0.004      339.257       12.465      861.077
05/15/2013  06:15:00      -99.381      -34.899       -6.076       33.309       23.708       15.994     1109.522      562.051      255.810        0.653        0.096      105.331       17.414        0.027      339.348       12.620      861.085
05/15/2013  06:16:00     -120.361      -46.271      -12.625       23.573       17.909       16.242      555.705      320.725      263.804        0.896        0.057      128.949       10.629        0.007      339.268       12.483      861.100
05/15/2013  06:17:00      -70.576      -30.614       10.188       49.810       40.537       21.681     2480.988     1643.262      470.080        0.531        0.230       76.930       19.599        0.065      339.281       12.507      861.109
05/15/2013  06:18:00     -115.440        4.300       -0.964       67.695       42.701       31.411     4582.666     1823.406      986.622        1.037        0.370      115.520       24.826        0.046      339.705       13.221      861.130
05/15/2013  06:19:00      -79.453        5.345        1.495       33.733       37.110       19.960     1137.945     1377.181      398.409        0.463        0.146       79.633       14.291        0.032      339.591       13.029      861.148
05/15/2013  06:20:00      -68.851       -7.243       -5.399       35.250       49.963       20.117     1242.573     2496.335      404.679        0.448        0.207       69.231       20.726        0.090      339.485       12.851      861.153
05/15/2013  06:21:00      -24.553       -3.458        2.950       23.561       16.076       17.691      555.143      258.447      312.979        0.087        0.056       24.796       16.468        0.441      339.685       13.187      861.167
05/15/2013  06:22:00      -31.208      -43.827       -0.354       25.955       18.087       18.058      673.650      327.146      326.095        0.211        0.066       53.803       13.229        0.060      339.554       12.967      861.181
05/15/2013  06:23:00      -26.291      -38.391       10.251       22.966       20.374       16.252      527.437      415.082      264.125        0.174        0.060       46.530       10.546        0.051      339.471       12.827      861.187
05/15/2013  06:24:00      -12.294      -52.624        4.867       27.054       22.364       23.370      731.910      500.128      546.174        0.236        0.089       54.042        9.148        0.029      339.474       12.833      861.188
05/15/2013  06:25:00      -23.151      -38.072        4.975       29.920       18.654       16.353      895.202      347.984      267.436        0.176        0.076       44.559       14.396        0.104      339.566       12.986      861.193
05/15/2013  06:26:00      -48.205      -63.717       -3.161       14.571       11.786       11.564      212.327      138.901      133.721        0.344        0.024       79.897        9.775        0.015      339.566       12.987      861.187
05/15/2013  06:27:00      -51.502      -53.440       -3.737       19.430       13.352       12.808      377.513      178.288      164.039        0.312        0.036       74.218        9.265        0.016      339.712       13.234      861.170
05/15/2013  06:28:00      -46.342      -66.129       -4.217       19.282       14.192       17.530      371.785      201.404      307.293        0.371        0.044       80.750       15.402        0.036      339.710       13.231      861.163
05/15/2013  06:29:00      -32.154      -44.001        3.137       26.801       10.877       13.307      718.286      118.315      177.063        0.200        0.051       54.497       13.542        0.062      339.643       13.117      861.166
05/15/2013  06:30:00      -12.692      -46.512       -9.973       19.130       16.284       20.171      365.947      265.182      406.870        0.173        0.052       48.213       10.425        0.047      339.706       13.223      861.163
05/15/2013  06:31:00      -26.402      -32.502       -6.898       17.066       11.620       15.715      291.240      135.026      246.963        0.124        0.034       41.874        6.408        0.023      339.738       13.277      861.154
05/15/2013  06:32:00       -9.952       -0.533       17.770       21.308       15.256        7.094      454.044      232.733       50.327        0.058        0.037        9.966        9.212        0.854      340.015       13.743      861.152
05/15/2013  06:33:00        6.852        0.343       14.862       11.297        7.049        9.006      127.619       49.686       81.105        0.026        0.013        6.860        7.223        1.108      340.149       13.969      861.160
05/15/2013  06:34:00      -17.575      -24.614        6.448       12.934       13.829       13.011      167.284      191.249      169.296        0.074        0.026       30.244        9.453        0.098      339.964       13.659      861.157
05/15/2013  06:35:00        7.007       -1.425       11.106       12.468       16.574        8.288      155.440      274.710       68.687        0.034        0.025        7.150        5.747        0.646      340.229       14.106      861.172
05/15/2013  06:36:00        6.168      -33.660        0.224       13.152       22.465       17.630      172.982      504.682      310.810        0.108        0.049       34.221        6.287        0.034      340.017       13.747      861.183
05/15/2013  06:37:00      -23.156       -5.468        4.543       15.904        6.815       10.859      252.949       46.446      117.916        0.050        0.021       23.793       11.390        0.229      340.176       14.016      861.199
05/15/2013  06:38:00       -9.288        5.706        7.487       13.519       10.984       18.723      182.757      120.658      350.534        0.041        0.033       10.901       10.756        0.974      340.251       14.142      861.171
05/15/2013  06:39:00       29.694       34.117       -0.330       16.780       12.912       13.708      281.584      166.716      187.905        0.134        0.032       45.230       11.313        0.063      340.091       13.872      861.145
05/15/2013  06:40:00       28.848       35.014       -6.613       13.803       10.219       14.711      190.536      104.426      216.409        0.131        0.026       45.367        8.935        0.039      340.082       13.856      861.146
05/15/2013  06:41:00       14.688        2.526        9.435       18.618       30.823       17.816      346.613      950.064      317.401        0.096        0.081       14.904       11.542        0.600      340.341       14.294      861.154
05/15/2013  06:42:00        2.722      -21.551        2.564       16.553       24.068       15.332      273.986      579.265      235.080        0.078        0.054       21.722       12.509        0.332      340.221       14.092      861.162
05/15/2013  06:43:00       56.759       37.241       18.829       16.622       13.930       14.116      276.287      194.050      199.274        0.282        0.033       67.886        8.098        0.014      340.103       13.893      861.145
05/15/2013  06:44:00       45.336       50.008       18.241       20.807       15.091       20.699      432.951      227.723      428.447        0.299        0.054       67.499       10.982        0.026      340.142       13.958      861.132
05/15/2013  06:45:00       53.049       39.901       14.181       18.739       14.038       15.103      351.163      197.056      228.086        0.269        0.039       66.380        8.944        0.018      340.196       14.049      861.122
05/15/2013  06:46:00       71.733       46.124        3.394       28.418       21.421       16.386      807.593      458.869      268.493        0.441        0.077       85.282        6.864        0.006      339.990       13.702      861.117
05/15/2013  06:47:00       61.249       50.229        3.905       25.723       17.112       15.707      661.687      292.826      246.711        0.375        0.060       79.211        4.117        0.003      339.924       13.591      861.113
05/15/2013  06:48:00       41.388       29.704       -8.225       23.130       15.380       13.017      535.013      236.537      169.444        0.180        0.047       50.944        4.901        0.009      339.973       13.674      861.106
05/15/2013  06:49:00       49.556       35.980       21.082       17.741       22.302       18.993      314.760      497.383      360.750        0.268        0.059       61.240        7.462        0.015      339.953       13.640      861.126
05/15/2013  06:50:00       31.326       25.257       27.931       22.541       19.063       20.614      508.089      363.385      424.923        0.185        0.065       40.240       15.881        0.156      339.991       13.705      861.147
05/15/2013  06:51:00       41.986       50.195       57.203       35.915       29.252       16.393     1289.908      855.698      268.743        0.498        0.121       65.440        3.812        0.003      340.039       13.785      861.142
05/15/2013  06:52:00       85.539       61.410       42.247       46.534       26.443       25.803     2165.457      699.227      665.803        0.820        0.177      105.300       17.410        0.027      339.997       13.713      861.124
05/15/2013  06:53:00       58.284       45.947       34.662       34.978       27.632       30.158     1223.491      763.536      909.508        0.480        0.145       74.217       12.941        0.030      340.098       13.885      861.120
05/15/2013  06:54:00       33.881       29.572       37.198       34.020       23.867       19.368     1157.355      569.619      375.119        0.275        0.105       44.971        9.815        0.048      340.320       14.259      861.118
05/15/2013  06:55:00       50.738       45.695       30.722       47.017       34.707       27.682     2210.597     1204.576      766.303        0.489        0.209       68.282       19.126        0.078      340.210       14.072      861.118
05/15/2013  06:56:00       11.511       13.969       22.523       27.402       32.066       25.647      750.877     1028.212      657.748        0.164        0.122       18.101       20.506        1.283      340.341       14.295      861.141
05/15/2013  06:57:00       21.978     -101.122        3.353       39.369       42.144       36.663     1549.891     1776.104     1344.208        0.769        0.234      103.483       23.809        0.053      340.244       14.131      861.164
05/15/2013  06:58:00        7.733      -54.094       13.557       32.075       34.831       30.628     1028.794     1213.184      938.091        0.317        0.159       54.644       20.862        0.146      340.477       14.524      861.174
05/15/2013  06:59:00        5.692       -0.801       42.842       18.697       27.036       14.425      349.590      730.965      208.069        0.158        0.064        5.748        5.961        1.076      340.577       14.693      861.150
05/15/2013  07:00:00       50.661       45.840       37.110       37.238       27.401       23.262     1386.645      750.842      541.099        0.436        0.134       68.322       18.562        0.074      340.501       14.566      861.132
05/15/2013  07:01:00       46.253       20.364       24.183       31.105       19.398       19.456      967.552      376.270      378.523        0.243        0.086       50.537       16.831        0.111      340.466       14.506      861.124
05/15/2013  07:02:00       78.427       37.023       17.270       23.614       15.970       22.745      557.601      255.047      517.314        0.457        0.066       86.726       15.486        0.032      340.323       14.264      861.136
05/15/2013  07:03:00       60.180       43.580       17.968       24.944       24.586       22.428      622.205      604.466      503.012        0.379        0.086       74.302       13.249        0.032      340.349       14.307      861.150
05/15/2013  07:04:00       76.070       59.995        8.307       19.179       18.459       21.463      367.848      340.730      460.677        0.531        0.058       96.882       12.373        0.016      340.215       14.083      861.161
05/15/2013  07:05:00       31.302       43.746       32.584       47.954       28.307       24.819     2299.604      801.301      615.971        0.384        0.186       53.792        8.688        0.026      340.426       14.437      861.154
05/15/2013  07:06:00       73.167       51.651       20.660       50.072       30.091       25.665     2507.176      905.482      658.683        0.626        0.204       89.561       25.817        0.083      340.493       14.551      861.144
05/15/2013  07:07:00       69.906       45.367       13.016       32.761       26.929       22.797     1073.300      725.188      519.692        0.472        0.116       83.337       10.842        0.017      340.388       14.375      861.124
05/15/2013  07:08:00      109.494       69.012        9.084       33.641       30.233       30.235     1131.719      914.018      914.143        0.990        0.148      129.427       22.757        0.031      340.244       14.131      861.110
05/15/2013  07:09:00       70.151       65.273       54.889       43.284       34.160       39.674     1873.526     1166.892     1574.065        0.840        0.231       95.822       16.820        0.031      340.419       14.425      861.114
05/15/2013  07:10:00       39.772       35.340       22.858       36.282       25.443       28.506     1316.404      647.362      812.582        0.306        0.139       53.204       17.680        0.110      340.520       14.598      861.124
05/15/2013  07:11:00       95.055       45.593       12.749       43.973       26.259       29.515     1933.655      689.531      871.133        0.738        0.175      105.424       19.433        0.034      340.462       14.499      861.111
05/15/2013  07:12:00      104.442       70.487        4.760       48.936       38.702       29.601     2394.743     1497.867      876.200        1.033        0.238      126.002       23.663        0.035      340.446       14.473      861.096
05/15/2013  07:13:00      112.214       82.821       27.166       39.547       37.688       34.257     1563.929     1420.383     1173.568        1.217        0.208      139.468       25.980        0.035      340.433       14.450      861.099
05/15/2013  07:14:00      107.041       71.139       13.522       31.447       29.050       27.894      988.887      843.886      778.081        0.966        0.131      128.525       10.337        0.006      340.292       14.212      861.112
05/15/2013  07:15:00       60.985       32.856       28.925       46.021       34.562       32.224     2117.960     1194.523     1038.354        0.499        0.218       69.273       18.841        0.074      340.721       14.938      861.126
05/15/2013  07:16:00       38.416       40.538       44.475       45.558       53.880       29.819     2075.533     2903.083      889.146        0.548        0.293       55.849       19.308        0.120      340.673       14.856      861.119
05/15/2013  07:17:00       34.532      -35.179       20.421       31.072       59.172       38.327      965.448     3501.298     1468.979        0.439        0.297       49.295       28.122        0.325      340.711       14.920      861.100
05/15/2013  07:18:00       58.734      -57.260        7.334       72.621       62.305       35.601     5273.784     3881.927     1267.459        0.860        0.521       82.027       41.008        0.250      340.631       14.784      861.097
05/15/2013  07:19:00       61.434      -91.319       -9.224       43.588       44.944       41.098     1899.942     2019.990     1689.083        0.890        0.280      110.061       28.868        0.069      340.423       14.432      861.109
05/15/2013  07:20:00       34.115      -74.524       -5.564       43.932       42.714       34.418     1930.030     1824.472     1184.633        0.584        0.247       81.961       28.705        0.123      340.342       14.296      861.113
05/15/2013  07:21:00       12.012      -13.645       21.863       25.564       29.013       24.229      653.508      841.756      587.053        0.145        0.104       18.179       13.340        0.538      340.945       15.316      861.094
05/15/2013  07:22:00       36.703       44.584       56.859       38.317       31.802       25.805     1468.208     1011.364      665.904        0.486        0.157       57.748       14.732        0.065      340.996       15.403      861.073
05/15/2013  07:23:00       68.794       27.205       20.985       58.008       65.502       27.843     3364.953     4290.575      775.244        0.717        0.422       73.978       14.691        0.039      340.684       14.875      861.049
05/15/2013  07:24:00       38.248      -66.663       20.032       42.687       44.925       37.550     1822.200     2018.281     1410.008        0.578        0.263       76.856       32.989        0.184      340.762       15.008      861.042
05/15/2013  07:25:00       15.777       -7.443       26.949       24.404       42.041       22.145      595.548     1767.485      490.388        0.194        0.143       17.445       15.354        0.775      341.006       15.419      861.049
05/15/2013  07:26:00       33.539       25.013       25.709       42.557       29.122       26.211     1811.066      848.067      687.022        0.288        0.167       41.839       23.847        0.325      340.847       15.150      861.040
05/15/2013  07:27:00       34.467       49.206       41.466       34.917       31.412       26.935     1219.214      986.700      725.503        0.413        0.147       60.077       23.800        0.157      340.877       15.201      861.028
05/15/2013  07:28:00       73.927       39.377        0.670       34.806       21.119       18.594     1211.468      446.022      345.754        0.451        0.100       83.760        9.236        0.012      340.736       14.963      861.009
05/15/2013  07:29:00       94.147       50.033       11.195       35.296       32.397       26.042     1245.779     1049.535      678.208        0.723        0.149      106.616       15.722        0.022      340.761       15.004      861.011
05/15/2013  07:30:00       61.477       47.651        6.728       26.434       26.759       28.838      698.759      716.053      831.632        0.417        0.112       77.782       18.444        0.056      340.943       15.315      861.007
05/15/2013  07:31:00       73.839       78.851       10.310       37.369       29.039       28.035     1396.410      843.255      785.943        0.740        0.151      108.026       18.154        0.028      340.857       15.166      861.005
05/15/2013  07:32:00      102.945       82.470       35.066       30.802       26.127       30.079      948.739      682.621      904.735        1.058        0.127      131.905       20.697        0.025      340.898       15.236      861.015
05/15/2013  07:33:00      101.600       51.989       10.625       36.225       35.931       31.066     1312.262     1291.070      965.092        0.835        0.178      114.129       22.368        0.038      340.890       15.223      861.034
05/15/2013  07:34:00       87.684       49.818       15.829       33.192       26.790       26.478     1101.717      717.694      701.068        0.647        0.126      100.848       13.880        0.019      340.788       15.051      861.063
05/15/2013  07:35:00       30.936       32.110        5.707       26.823       26.294       18.539      719.499      691.358      343.697        0.189        0.088       44.588       13.195        0.088      341.175       15.706      861.081
05/15/2013  07:36:00       40.037       43.359       31.107       45.309       29.210       29.603     2052.875      853.230      876.366        0.412        0.189       59.017       22.922        0.151      341.324       15.958      861.078
05/15/2013  07:37:00      111.797       78.485       20.345       41.268       28.288       29.734     1703.055      800.227      884.140        1.123        0.169      136.596       22.208        0.026      340.863       15.177      861.075
05/15/2013  07:38:00      109.086       58.632       16.612       33.792       39.355       29.631     1141.870     1548.793      877.986        0.959        0.178      123.845       18.954        0.023      340.817       15.099      861.069
05/15/2013  07:39:00       38.903       22.561       23.583       47.875       46.124       28.106     2292.058     2127.392      789.959        0.389        0.260       44.972       26.937        0.359      341.260       15.849      861.083
05/15/2013  07:40:00       87.298       60.889       17.866       30.852       20.897       20.433      951.853      436.669      417.514        0.673        0.090      106.435        7.670        0.005      340.906       15.250      861.089
05/15/2013  07:41:00       42.747       42.066       10.903       22.594       21.556       27.921      510.508      464.659      779.586        0.273        0.088       59.973       12.042        0.040      340.990       15.392      861.105
05/15/2013  07:42:00       67.834       41.448       11.617       27.371       31.420       31.822      749.164      987.205     1012.645        0.460        0.137       79.494       21.240        0.071      340.931       15.292      861.118
05/15/2013  07:43:00       44.519       51.837       10.372       27.046       25.150       25.623      731.467      632.515      656.541        0.340        0.101       68.330        9.229        0.018      341.036       15.470      861.110
05/15/2013  07:44:00       53.255       37.920       13.695       55.924       44.957       31.744     3127.462     2021.098     1007.713        0.531        0.308       65.376       26.550        0.165      341.323       15.956      861.085
05/15/2013  07:45:00       42.965       38.910        3.247       39.810       29.928       21.978     1584.825      895.712      483.050        0.317        0.148       57.965       18.051        0.097      341.374       16.044      861.059
05/15/2013  07:46:00       24.453       59.409        6.570       31.766       28.564       28.048     1009.081      815.910      786.693        0.339        0.131       64.244       21.800        0.115      341.432       16.141      861.047
05/15/2013  07:47:00       29.530       40.417        0.493       34.938       37.741       23.243     1220.641     1424.383      540.259        0.285        0.159       50.056       24.802        0.246      341.546       16.334      861.055
05/15/2013  07:48:00       -7.010       60.038       -7.767       41.948       33.620       17.457     1759.650     1130.333      304.762        0.345        0.160       60.446       16.429        0.074      341.230       15.799      861.078
05/15/2013  07:49:00      -51.427       39.668       -9.487       27.462       33.091       24.276      754.176     1095.008      589.313        0.337        0.122       64.948       13.463        0.043      341.332       15.971      861.104
05/15/2013  07:50:00      -75.110       17.111      -18.992       32.201       41.571       15.398     1036.927     1728.175      237.110        0.465        0.150       77.034        6.544        0.007      341.358       16.014      861.123
05/15/2013  07:51:00       -5.402       -3.150       17.900       36.213       17.141       22.565     1311.357      293.829      509.188        0.124        0.106        6.253       12.472        3.977      342.097       17.270      861.096
05/15/2013  07:52:00       17.824       34.005        9.057       20.633       23.402       19.051      425.703      547.658      362.959        0.145        0.067       38.393       14.703        0.147      341.667       16.539      861.042
05/15/2013  07:53:00       40.001       63.070      -11.845       46.676       26.617       25.242     2178.692      708.471      637.171        0.462        0.176       74.686       24.635        0.109      341.420       16.121      860.996
05/15/2013  07:54:00       48.063       42.121        9.587       31.047       29.518       21.373      963.892      871.331      456.801        0.323        0.115       63.908       15.399        0.058      341.445       16.164      860.957
05/15/2013  07:55:00      -31.418       52.659        3.933       31.925       40.703       26.130     1019.182     1656.752      682.755        0.357        0.168       61.320       27.306        0.198      341.765       16.705      860.944
05/15/2013  07:56:00      -74.897       70.457       -7.886       33.896       36.307       25.543     1148.914     1318.204      652.445        0.688        0.156      102.828       20.812        0.041      341.487       16.234      860.942
05/15/2013  07:57:00      -26.837       45.291       -0.561       22.295       38.356       21.767      497.074     1471.177      473.796        0.261        0.122       52.645       18.726        0.127      341.459       16.188      860.948
05/15/2013  07:58:00      -11.677        7.864       16.087       16.091       17.072       17.258      258.928      291.451      297.837        0.065        0.042       14.078       10.915        0.601      342.038       17.169      860.955
05/15/2013  07:59:00      -51.702      -27.222        2.585       26.232       33.947       20.244      688.114     1152.386      409.830        0.284        0.113       58.430       18.877        0.104      341.541       16.326      860.964
05/15/2013  08:00:00      -26.892      -39.871       -3.183       20.253       14.372       19.458      410.166      206.568      378.605        0.166        0.050       48.092        7.237        0.023      341.314       15.941      860.970
05/15/2013  08:01:00      -32.901      -53.034       13.359       17.172       15.045       16.515      294.861      226.366      272.729        0.243        0.040       62.410        7.765        0.015      341.375       16.044      860.959
05/15/2013  08:02:00      -18.766      -18.244       22.717       14.554       16.126       16.178      211.828      260.051      261.715        0.097        0.037       26.172        7.810        0.089      341.828       16.812      860.948
05/15/2013  08:03:00       -5.886        0.850       27.047       13.230       24.898       15.463      175.030      619.904      239.095        0.090        0.052        5.947       13.751        5.347      342.269       17.560      860.952
05/15/2013  08:04:00       -5.793      -24.650        3.061       24.114       16.565       17.276      581.479      274.405      298.469        0.090        0.058       25.322       13.810        0.297      341.639       16.492      860.964
05/15/2013  08:05:00      -16.660      -28.305        0.819       14.760       13.134       10.082      217.857      172.509      101.643        0.079        0.025       32.844        5.014        0.023      341.496       16.247      860.967
05/15/2013  08:06:00       -1.489       -6.692       20.264       10.929       11.123       15.366      119.438      123.717      236.110        0.047        0.024        6.855        9.636        1.976      342.143       17.347      860.965
05/15/2013  08:07:00        5.587       10.650        7.999       19.569       26.804       14.056      382.943      718.458      197.565        0.075        0.065       12.026       10.600        0.777      341.836       16.826      860.949
05/15/2013  08:08:00      -48.616      -19.121       -2.074       49.575       22.353       19.042     2457.678      499.677      362.585        0.303        0.166       52.241       17.434        0.111      341.792       16.751      860.938
05/15/2013  08:09:00      -11.560       31.760       11.315       32.848       46.788       26.956     1078.998     2189.112      726.628        0.263        0.200       33.799       17.317        0.263      342.176       17.403      860.920
05/15/2013  08:10:00      -13.142      114.455       -9.620       40.435       53.647       28.657     1634.956     2878.019      821.242        0.935        0.267      115.207       28.650        0.062      341.838       16.830      860.905
05/15/2013  08:11:00      -25.914       61.075       -7.168       21.851       53.556       24.714      477.453     2868.256      610.789        0.420        0.198       66.346       23.133        0.122      341.754       16.687      860.898
05/15/2013  08:12:00        3.023       64.835       -0.505       33.625       48.108       24.981     1130.613     2314.359      624.054        0.414        0.203       64.905       30.983        0.228      341.855       16.858      860.902
05/15/2013  08:13:00      -36.035       48.512       -8.133       46.135       66.437       20.071     2128.433     4413.882      402.859        0.533        0.347       60.431       21.410        0.126      341.843       16.838      860.925
05/15/2013  08:14:00      -73.638      -33.075       -4.332       61.382       28.427       26.800     3767.701      808.098      718.256        0.591        0.265       80.725       24.148        0.089      341.768       16.710      860.951
05/15/2013  08:15:00      -77.013      -35.140      -10.771       52.528       25.000       16.620     2759.192      625.002      276.209        0.547        0.183       84.651       14.646        0.030      341.674       16.550      860.983
05/15/2013  08:16:00       13.954      -44.849       18.572       33.506       30.256       23.351     1122.665      915.424      545.276        0.257        0.129       46.970       17.486        0.139      341.819       16.796      860.977
05/15/2013  08:17:00      -13.995       -8.663       20.372       30.652       17.581       25.540      939.544      309.093      652.271        0.129        0.095       16.459       25.026        2.312      342.486       17.930      860.953
05/15/2013  08:18:00        0.381       -3.079       29.544       25.077       22.133       14.053      628.838      489.890      197.500        0.110        0.066        3.102       15.270       24.225      342.382       17.754      860.934
05/15/2013  08:19:00       51.626       51.274        4.636       30.886       35.497       28.489      953.963     1260.022      811.598        0.417        0.151       72.762       19.632        0.073      342.048       17.185      860.916
05/15/2013  08:20:00      -18.715       73.115      -13.111       29.274       32.819       16.411      856.956     1077.091      269.336        0.404        0.110       75.472        7.466        0.010      341.945       17.010      860.931
05/15/2013  08:21:00     -120.808      -35.986      -15.911       43.203       38.044       21.818     1866.496     1447.373      476.027        0.997        0.189      126.054       20.458        0.026      341.762       16.700      860.958
05/15/2013  08:22:00      -34.767      -20.766        0.977       33.302       25.066       19.295     1109.033      628.293      372.316        0.187        0.105       40.497       12.649        0.098      341.934       16.992      860.974
05/15/2013  08:23:00        3.807      -82.401        0.945       23.860       19.543       14.209      569.298      381.948      201.889        0.398        0.058       82.489        4.257        0.003      341.851       16.851      860.970
05/15/2013  08:24:00       -8.481      -32.478        9.500       31.046       31.760       18.425      963.883     1008.711      339.466        0.176        0.116       33.567       19.342        0.332      342.183       17.415      860.962
05/15/2013  08:25:00      -36.656       29.443      -13.274       28.945       20.950       19.155      837.799      438.903      366.906        0.201        0.082       47.016       12.489        0.071      341.949       17.018      860.936
05/15/2013  08:26:00      -11.117       29.783        0.875       21.933       23.737       27.098      481.068      563.447      734.326        0.139        0.089       31.790       15.769        0.246      342.393       17.772      860.898
05/15/2013  08:27:00      -37.284        8.675       -4.298       22.808       16.608       19.690      520.183      275.835      387.693        0.133        0.059       38.280        9.023        0.056      342.093       17.261      860.865
05/15/2013  08:28:00      -57.663       35.859        0.847       25.366       24.822       20.818      643.453      616.134      433.381        0.315        0.085       67.903        6.012        0.008      342.280       17.581      860.858
05/15/2013  08:29:00      -23.778       31.488       -1.282       26.843       27.728       22.388      720.522      768.849      501.218        0.177        0.100       39.458       21.843        0.306      342.516       17.981      860.880
05/15/2013  08:30:00      -71.960      -23.820       -5.194       47.138       22.785       20.549     2221.963      519.162      422.267        0.447        0.158       75.800       25.234        0.111      342.090       17.256      860.895
05/15/2013  08:31:00      -41.036      -27.429        3.063       47.620       26.924       26.601     2267.652      724.898      707.610        0.307        0.185       49.359       27.202        0.304      342.687       18.273      860.894
05/15/2013  08:32:00      -37.731       -4.616        4.859       40.562       21.080       23.765     1645.314      444.352      564.755        0.206        0.133       38.012       24.045        0.400      342.416       17.811      860.891
05/15/2013  08:33:00       15.390        6.169       25.987       18.891       12.245       16.475      356.867      149.937      271.420        0.086        0.039       16.581        9.505        0.329      343.142       19.046      860.879
05/15/2013  08:34:00      -18.790        0.675       11.178       29.387       29.839       14.625      863.566      890.379      213.880        0.122        0.098       18.802        7.186        0.146      342.729       18.342      860.861
05/15/2013  08:35:00      -48.988      -29.672       -0.789       30.308       16.260       16.640      918.564      264.381      276.890        0.237        0.073       57.274       17.453        0.093      342.438       17.849      860.852
05/15/2013  08:36:00      -12.150       -8.022       17.548       24.915       15.789       13.952      620.779      249.290      194.659        0.079        0.053       14.559       14.553        0.999      343.155       19.069      860.830
05/15/2013  08:37:00       -1.718       11.600       26.728       15.226       23.843       19.311      231.818      568.478      372.929        0.101        0.059       11.726       16.100        1.885      343.659       19.927      860.806
05/15/2013  08:38:00       23.325       20.487       20.387       32.100       28.654       31.246     1030.381      821.071      976.323        0.210        0.141       31.045       24.646        0.630      343.537       19.720      860.782
05/15/2013  08:39:00        9.843      126.073      -18.138       32.667       33.949       21.837     1067.127     1152.516      476.846        0.951        0.135      126.457       16.714        0.017      342.355       17.709      860.763
05/15/2013  08:40:00       -2.732       92.925      -19.997       23.462       37.588       20.005      550.469     1412.884      400.194        0.570        0.118       92.965       19.698        0.045      342.279       17.579      860.752
05/15/2013  08:41:00       -8.674       26.126       -8.644       25.235       18.091       18.392      636.805      327.279      338.278        0.107        0.065       27.528        8.787        0.102      342.469       17.899      860.761
05/15/2013  08:42:00      -13.613      -19.196        0.126       28.451       18.110       14.722      809.463      327.962      216.731        0.095        0.068       23.533       13.537        0.331      342.692       18.279      860.778
05/15/2013  08:43:00      -18.709       -2.748       23.504       28.806       19.348       26.229      829.800      374.362      687.968        0.140        0.095       18.910       25.310        1.791      343.055       18.900      860.784
05/15/2013  08:44:00       18.407       -8.183       31.191       27.221       22.519       24.195      740.994      507.095      585.381        0.161        0.092       20.144       12.698        0.397      343.189       19.126      860.790
05/15/2013  08:45:00       24.712      -29.080       24.575       29.188       48.689       40.753      851.948     2370.606     1660.808        0.347        0.244       38.162       38.203        1.002      342.992       18.792      860.797
05/15/2013  08:46:00       26.611      -44.847       29.460       43.911       47.169       42.142     1928.194     2224.885     1775.952        0.476        0.296       52.148       26.881        0.266      343.060       18.905      860.798
05/15/2013  08:47:00       60.943      -43.986       20.731       31.818       34.062       37.829     1012.413     1160.235     1431.012        0.484        0.180       75.158       31.129        0.172      342.902       18.637      860.803
05/15/2013  08:48:00       17.408       12.644       46.949       27.268       41.235       25.413      743.541     1700.344      645.806        0.288        0.154       21.515       22.507        1.094      343.156       19.070      860.806
05/15/2013  08:49:00        7.236       18.600       23.818       31.413       26.546       33.799      986.772      704.680     1142.401        0.190        0.142       19.958       16.004        0.643      343.294       19.305      860.795
05/15/2013  08:50:00       33.092       24.052       53.566       55.541       48.032       31.841     3084.791     2307.043     1013.853        0.547        0.320       40.910       34.490        0.711      343.185       19.122      860.778
05/15/2013  08:51:00       36.197        5.148       52.225       47.248       50.926       32.014     2232.408     2593.459     1024.869        0.496        0.293       36.561       30.666        0.704      343.097       18.969      860.752
05/15/2013  08:52:00       38.324       36.808       24.776       36.674       27.290       25.614     1344.970      744.720      656.090        0.309        0.137       53.137       15.549        0.086      342.921       18.670      860.739
05/15/2013  08:53:00       95.109       64.251       17.134       45.614       46.862       39.234     2080.647     2196.011     1539.300        0.964        0.291      114.778       24.436        0.045      342.847       18.544      860.727
05/15/2013  08:54:00       60.080       57.916       16.496       37.989       35.711       38.238     1443.174     1275.259     1462.161        0.571        0.209       83.449       14.009        0.028      342.728       18.342      860.730
05/15/2013  08:55:00       38.481       44.125        6.820       36.113       34.843       25.713     1304.145     1214.026      661.149        0.333        0.159       58.547       17.759        0.092      343.164       19.084      860.753
05/15/2013  08:56:00       48.476       50.822       29.981       30.628       26.184       27.674      938.089      685.611      765.870        0.411        0.119       70.234       16.329        0.054      343.404       19.491      860.776
05/15/2013  08:57:00       66.330       60.729       33.751       32.106       23.070       32.190     1030.776      532.222     1036.196        0.591        0.130       89.932       22.059        0.060      342.963       18.740      860.784
05/15/2013  08:58:00       54.562       46.675       16.968       37.784       24.171       28.744     1427.655      584.250      826.193        0.414        0.142       71.802       23.237        0.105      342.900       18.633      860.794
05/15/2013  08:59:00       -3.142       18.222       23.840       26.861       22.798       19.392      721.513      519.740      376.047        0.126        0.081       18.491       16.058        0.754      343.725       20.040      860.785
05/15/2013  09:00:00      -21.106       12.576        3.704       25.842       19.694       20.557      667.814      387.873      422.593        0.105        0.074       24.569       17.977        0.535      343.499       19.655      860.769
05/15/2013  09:01:00       17.042       -3.160       23.477       29.044       27.600       15.981      843.535      761.741      255.390        0.136        0.093       17.333       12.049        0.483      343.681       19.963      860.739
05/15/2013  09:02:00       51.357      -43.487       21.872       69.987       63.514       33.754     4898.220     4034.009     1139.342        0.754        0.504       67.295       28.993        0.186      343.120       19.009      860.704
05/15/2013  09:03:00       31.766      -24.635       35.931       41.579       50.795       33.314     1728.841     2580.154     1109.802        0.416        0.271       40.199       26.132        0.423      343.376       19.446      860.686
05/15/2013  09:04:00       82.522      -79.352       11.154       62.538       56.634       50.176     3911.045     3207.438     2517.650        1.143        0.482      114.484       31.081        0.074      343.000       18.804      860.669
05/15/2013  09:05:00       55.056      -77.017      -10.733       45.133       47.940       33.578     2037.007     2298.270     1127.454        0.727        0.273       94.672       32.053        0.115      343.146       19.053      860.680
05/15/2013  09:06:00       41.032      -31.002       24.127       46.745       49.637       35.691     2185.118     2463.845     1273.876        0.457        0.296       51.427       40.006        0.605      343.267       19.259      860.689
05/15/2013  09:07:00      -11.719        2.322       22.887       25.722       21.627       17.272      661.622      467.738      298.318        0.105        0.071       11.947       10.637        0.793      343.536       19.717      860.684
05/15/2013  09:08:00        8.550       52.661       -6.781       27.871       21.242       22.580      776.776      451.240      509.864        0.231        0.087       53.350       15.379        0.083      343.218       19.177      860.682
05/15/2013  09:09:00       96.434       89.520       36.917       38.301       24.344       32.462     1466.929      592.611     1053.755        1.089        0.156      131.581       17.412        0.018      343.078       18.935      860.674
05/15/2013  09:10:00       89.540       99.663       67.279       40.387       23.210       24.103     1631.150      538.724      580.935        1.261        0.138      133.978       16.476        0.015      342.916       18.659      860.655
05/15/2013  09:11:00       71.794       58.012        9.596       33.666       37.263       43.164     1133.402     1388.551     1863.146        0.650        0.219       92.303       25.063        0.074      343.024       18.844      860.652
05/15/2013  09:12:00       34.285       80.875      -16.248       25.601       27.959       27.039      655.412      781.725      731.113        0.507        0.108       87.842       20.770        0.056      343.067       18.919      860.636
05/15/2013  09:13:00       62.964       47.097        4.046       39.447       39.259       28.297     1556.085     1541.251      800.726        0.505        0.195       78.629       19.855        0.064      343.618       19.856      860.629
05/15/2013  09:14:00       56.076       45.863       28.204       40.793       28.250       28.308     1664.047      798.049      801.356        0.465        0.163       72.443       22.071        0.093      343.590       19.809      860.633
05/15/2013  09:15:00        6.282       29.407       32.337       33.063       56.425       37.210     1093.186     3183.804     1384.552        0.380        0.283       30.071       16.529        0.302      343.822       20.206      860.632
05/15/2013  09:16:00       22.544      -27.664       44.193       68.916      104.609       51.374     4749.451    10943.028     2639.313        1.078        0.917       35.687       46.842        1.723      343.353       19.404      860.629
05/15/2013  09:17:00      114.737       99.335       47.960       40.929       30.650       37.595     1675.151      939.407     1413.390        1.468        0.201      151.763       17.574        0.013      343.116       18.999      860.617
05/15/2013  09:18:00       46.771        8.650       33.720       42.980       57.731       35.363     1847.280     3332.881     1250.551        0.491        0.322       47.564       31.185        0.430      343.610       19.842      860.621
05/15/2013  09:19:00        8.383       -8.578       13.628       27.404       31.321       33.771      750.982      981.000     1140.510        0.160        0.144       11.995       20.927        3.044      343.710       20.013      860.625
05/15/2013  09:20:00       29.421      -12.552       16.911       36.676       37.689       37.730     1345.149     1420.438     1423.529        0.275        0.209       31.987       28.390        0.788      343.965       20.450      860.608
05/15/2013  09:21:00       43.094      -48.692       21.654       41.384       54.689       49.943     1712.631     2990.874     2494.352        0.595        0.360       65.023       37.196        0.327      343.927       20.383      860.608
05/15/2013  09:22:00       20.950       44.528       62.317       30.336       55.321       31.755      920.243     3060.427     1008.377        0.565        0.249       49.210       34.829        0.501      343.890       20.323      860.622
05/15/2013  09:23:00       13.512       31.578       49.690       26.770       30.889       26.837      716.620      954.128      720.235        0.302        0.120       34.347       22.429        0.426      343.950       20.423      860.616
05/15/2013  09:24:00       44.319       11.199       44.432       41.393       44.407       31.703     1713.410     1971.969     1005.081        0.438        0.235       45.712       26.751        0.342      343.985       20.482      860.616
05/15/2013  09:25:00        1.819      -25.065       -0.129       31.789       62.475       23.939     1010.552     3903.094      573.064        0.306        0.274       25.131       10.214        0.165      343.704       20.004      860.606
05/15/2013  09:26:00        0.684       54.561        7.515       26.137       42.096       27.188      683.122     1772.110      739.179        0.311        0.160       54.565       25.025        0.210      344.121       20.717      860.599
05/15/2013  09:27:00       46.872       69.351       53.988       57.491       44.223       38.933     3305.228     1955.664     1515.775        0.835        0.339       83.705       21.710        0.067      344.087       20.657      860.583
05/15/2013  09:28:00       32.529       44.150       31.959       49.315       39.363       37.438     2432.013     1549.432     1401.640        0.470        0.269       54.839       25.833        0.222      344.335       21.081      860.571
05/15/2013  09:29:00       79.712       59.473       18.400       51.514       37.147       36.674     2653.678     1379.879     1344.986        0.780        0.269       99.454       34.503        0.120      344.033       20.566      860.564
05/15/2013  09:30:00        0.833       29.531       58.986       23.122       32.370       18.680      534.633     1047.826      348.925        0.314        0.097       29.543       18.147        0.377      344.862       21.981      860.554
05/15/2013  09:31:00        6.658       32.224       58.235       27.298       37.798       43.962      745.172     1428.723     1932.620        0.429        0.205       32.905       28.178        0.733      344.618       21.564      860.544
05/15/2013  09:32:00       19.462       34.831       61.199       35.029       55.769       38.122     1227.028     3110.158     1453.249        0.556        0.290       39.899       40.349        1.023      344.449       21.277      860.522
05/15/2013  09:33:00        0.005        3.216       77.486       43.212       64.978       29.331     1867.293     4222.122      860.308        0.648        0.347        3.216       21.366       44.137      344.731       21.758      860.490
05/15/2013  09:34:00       31.555       44.190       97.080       72.917      107.522       67.990     5316.858    11560.998     4622.681        1.693        1.075       54.300       83.637        2.372      344.139       20.746      860.464
05/15/2013  09:35:00       24.571       66.601       74.431       48.922       62.207       42.063     2393.327     3869.725     1769.336        0.930        0.402       70.989       35.344        0.248      344.404       21.199      860.444
05/15/2013  09:36:00       43.574       -6.067       37.010       63.311       99.567       38.316     4008.231     9913.619     1468.138        0.935        0.769       43.994       40.092        0.830      344.237       20.914      860.437
05/15/2013  09:37:00       53.396     -106.229       15.489       54.896       87.292       50.542     3013.541     7619.968     2554.504        1.378        0.659      118.894       40.557        0.116      344.335       21.081      860.420
05/15/2013  09:38:00       42.852      -78.321        5.489       42.626       86.144       37.015     1816.973     7420.807     1370.134        0.930        0.530       89.278       45.542        0.260      344.288       21.003      860.428
05/15/2013  09:39:00       16.960      -80.892        3.965       35.506       42.138       31.626     1260.692     1775.606     1000.231        0.544        0.202       82.651       26.823        0.105      344.174       20.806      860.416
05/15/2013  09:40:00       36.149      -70.158       10.455       43.047       48.197       43.169     1853.066     2322.927     1863.532        0.619        0.302       78.923       31.638        0.161      344.264       20.960      860.404
05/15/2013  09:41:00       80.623      -85.445       13.865       66.639       82.828       50.259     4440.817     6860.504     2525.952        1.391        0.691      117.477       44.701        0.145      344.133       20.736      860.378
05/15/2013  09:42:00       78.994      -39.950       50.946       87.274      118.389       64.344     7616.742    14015.975     4140.210        1.810        1.289       88.521       75.001        0.718      344.461       21.295      860.362
05/15/2013  09:43:00       63.687      -59.392       19.386       84.356       73.874       43.064     7115.964     5457.346     1854.468        1.119        0.721       87.083       52.757        0.367      344.553       21.453      860.351
05/15/2013  09:44:00       32.119      -11.745       49.108       66.213       57.527       39.230     4384.196     3309.320     1538.992        0.641        0.462       34.199       29.857        0.762      344.650       21.620      860.358
05/15/2013  09:45:00      -28.945      -33.405       17.777       37.534       43.842       36.460     1408.825     1922.087     1329.349        0.346        0.233       44.201       22.448        0.258      344.307       21.033      860.360
05/15/2013  09:46:00       14.115      -74.539       17.621       57.700       83.857       51.466     3329.312     7031.935     2648.707        0.954        0.650       75.864       31.715        0.175      344.582       21.504      860.352
05/15/2013  09:47:00       34.302      -93.289        8.112       42.883       64.371       46.437     1838.951     4143.670     2156.410        0.904        0.407       99.395       40.993        0.170      344.164       20.789      860.364
05/15/2013  09:48:00        3.473      -63.548       -5.562       31.298       65.576       36.545      979.547     4300.234     1335.528        0.535        0.331       63.643       38.202        0.360      344.419       21.225      860.347
05/15/2013  09:49:00      -40.156      -19.630       18.136       29.376       43.138       22.282      862.951     1860.848      496.484        0.277        0.161       44.697       21.809        0.238      344.496       21.356      860.328
05/15/2013  09:50:00      -19.470       10.127       27.540       29.407       28.594       34.112      864.764      817.589     1163.656        0.204        0.142       21.946       31.934        2.117      344.669       21.653      860.316
05/15/2013  09:51:00       75.209       30.411       34.937       66.324       75.902       34.935     4398.853     5761.119     1220.451        0.959        0.569       81.124       25.437        0.098      344.368       21.136      860.286
05/15/2013  09:52:00      133.834       76.051       22.097       57.550       46.780       44.926     3312.023     2188.396     2018.324        1.585        0.376      153.933       30.008        0.038      344.314       21.045      860.271
05/15/2013  09:53:00      136.319       79.978       52.574       54.755       47.666       48.478     2998.136     2272.001     2350.133        1.768        0.381      158.048       40.624        0.066      344.250       20.936      860.252
05/15/2013  09:54:00       65.883       84.193       62.165       64.406       34.565       37.566     4148.090     1194.708     1411.193        1.102        0.338      106.907       31.517        0.087      344.578       21.496      860.236
05/15/2013  09:55:00      124.741       81.430       30.640       66.468       45.965       47.596     4417.943     2112.783     2265.354        1.596        0.440      148.967       21.303        0.020      344.364       21.129      860.220
05/15/2013  09:56:00      118.393       79.046       36.604       62.783       37.440       40.830     3941.709     1401.753     1667.096        1.431        0.351      142.356       34.612        0.059      344.353       21.112      860.213
05/15/2013  09:57:00       76.553       42.130       28.018       81.312       62.703       38.346     6611.685     3931.659     1470.381        1.022        0.601       87.380       24.342        0.078      344.808       21.889      860.209
05/15/2013  09:58:00       62.192       22.303       39.487       68.039       83.570       48.808     4629.310     6983.911     2382.195        0.996        0.700       66.070       44.376        0.451      344.919       22.080      860.199
05/15/2013  09:59:00      116.528     -167.193      -12.303       53.133       87.202       50.772     2823.159     7604.104     2577.824        2.734        0.650      203.795       49.153        0.058      344.680       21.668      860.192
05/15/2013  10:00:00       38.504       47.604       87.677       56.706       71.122       43.524     3215.546     5058.302     1894.320        1.080        0.508       61.227       40.041        0.428      345.037       22.281      860.177
05/15/2013  10:01:00       23.049       25.037       20.309       36.570       44.511       33.114     1337.374     1981.271     1096.553        0.299        0.221       34.031       23.672        0.484      344.868       21.993      860.187
05/15/2013  10:02:00      -31.174        2.699       12.975       29.122       26.292       21.634      848.080      691.270      468.044        0.158        0.100       31.290       13.567        0.188      344.989       22.200      860.167
05/15/2013  10:03:00      -15.316      -10.315      -21.574       24.031       23.614       20.990      577.508      557.602      440.591        0.119        0.079       18.466       10.124        0.301      344.892       22.034      860.149
05/15/2013  10:04:00      -23.819      -29.689       -0.532       53.034       46.308       22.646     2812.561     2144.417      512.855        0.346        0.273       38.063       13.622        0.128      344.744       21.781      860.127
05/15/2013  10:05:00      -46.142      -24.726        2.742       56.503       26.429       23.627     3192.645      698.503      558.258        0.360        0.222       52.349       17.356        0.110      344.346       21.100      860.114
05/15/2013  10:06:00      -88.692       15.870        4.020       29.873       29.253       15.375      892.380      855.727      236.394        0.506        0.099       90.101       14.916        0.027      344.236       20.912      860.103
05/15/2013  10:07:00       -2.941       25.011        8.148       25.967       18.556       25.317      674.278      344.307      640.947        0.118        0.083       25.184       15.115        0.360      345.112       22.411      860.084
05/15/2013  10:08:00       37.590       32.251       68.614       54.324       69.831       60.975     2951.097     4876.390     3717.922        0.935        0.577       49.529       50.420        1.036      345.355       22.826      860.060
05/15/2013  10:09:00       35.415       -2.320       75.396       66.672      135.140       80.843     4445.105    18262.864     6535.646        1.809        1.462       35.491       89.989        6.429      345.024       22.257      860.029
05/15/2013  10:10:00      -30.785      -65.686       27.824       70.066       84.589       59.359     4909.226     7155.378     3523.432        1.081        0.779       72.542       59.493        0.673      344.927       22.094      860.025
05/15/2013  10:11:00      -92.726     -142.298       -6.875       43.612       59.634       33.926     1901.978     3556.244     1150.980        1.775        0.330      169.844       23.231        0.019      344.389       21.172      860.028
05/15/2013  10:12:00      -57.578      -30.562       13.224       54.164       53.052       35.150     2933.776     2814.532     1235.521        0.570        0.349       65.187       40.568        0.387      344.726       21.751      860.020
05/15/2013  10:13:00      -35.538      -34.019       13.682       45.675       68.016       31.454     2086.235     4626.165      989.335        0.515        0.385       49.196       32.083        0.425      345.059       22.322      860.023
05/15/2013  10:14:00       47.747       46.829       29.397      101.481       84.372       43.149    10298.468     7118.636     1861.848        1.230        0.964       66.879       31.788        0.226      345.149       22.474      860.012
05/15/2013  10:15:00       32.001      -50.568       32.570       43.409       56.232       48.225     1884.356     3162.090     2325.640        0.601        0.369       59.843       37.358        0.390      345.240       22.631      860.029
05/15/2013  10:16:00       23.625       29.670        7.373       41.845       62.392       30.952     1750.964     3892.801      958.029        0.405        0.330       37.927       24.309        0.411      345.050       22.305      860.030
05/15/2013  10:17:00       19.153       70.279       61.332       44.910       47.014       26.896     2016.883     2210.319      723.384        0.701        0.248       72.842       12.440        0.029      345.629       23.296      860.017
05/15/2013  10:18:00       37.324       48.257       67.134       50.321       60.065       32.980     2532.249     3607.748     1087.699        0.773        0.361       61.007       27.084        0.197      345.497       23.069      860.020
05/15/2013  10:19:00       16.733        5.044       44.512       34.581       52.103       42.960     1195.862     2714.747     1845.572        0.402        0.288       17.476       37.605        4.630      345.239       22.630      860.015
05/15/2013  10:20:00        7.297       47.450       62.061       20.568       38.718       28.108      423.034     1499.096      790.042        0.443        0.136       48.008       24.845        0.268      345.224       22.603      860.006
05/15/2013  10:21:00       54.154       -6.903       65.245       61.384       68.923       38.546     3767.985     4750.351     1485.779        0.862        0.500       54.592       41.520        0.578      345.218       22.593      860.010
05/15/2013  10:22:00       67.228      108.489       98.263       84.789       64.089       39.085     7189.238     4107.440     1527.602        1.938        0.641      127.630       31.942        0.063      345.159       22.489      860.013
05/15/2013  10:23:00       66.096       29.144       26.686       72.179       59.700       34.760     5209.781     3564.061     1208.236        0.795        0.499       72.236       28.725        0.158      344.797       21.872      860.017
05/15/2013  10:24:00       16.548      -38.669       48.845       37.009       64.654       34.396     1369.673     4180.130     1183.116        0.544        0.337       42.061       37.601        0.799      345.748       23.500      860.012
05/15/2013  10:25:00       71.643       61.114       52.782       64.086       48.064       45.814     4106.954     2310.128     2098.886        1.008        0.426       94.168       35.299        0.141      345.081       22.356      860.016
05/15/2013  10:26:00        9.053      -16.683       40.130       46.511       56.067       29.342     2163.277     3143.502      860.958        0.407        0.308       18.981        5.269        0.077      345.492       23.061      860.022
05/15/2013  10:27:00      -90.178      -67.178        0.960       85.035       85.585       31.036     7230.970     7324.786      963.207        1.408        0.776      112.450       35.466        0.099      344.936       22.109      860.023
05/15/2013  10:28:00      -50.447      -64.094       -5.653       71.153       67.789       38.883     5062.758     4595.340     1511.876        0.893        0.558       81.566       27.433        0.113      344.929       22.097      859.988
05/15/2013  10:29:00      -36.481      -46.477       34.163       29.722       59.931       25.670      883.415     3591.685      658.934        0.490        0.257       59.084       27.224        0.212      345.057       22.317      859.986
05/15/2013  10:30:00      -78.435       -2.397       17.341       50.293       40.583       25.398     2529.381     1646.978      645.079        0.564        0.241       78.472       27.466        0.123      345.043       22.291      859.954
05/15/2013  10:31:00     -129.558      -61.147       -6.285       54.191       48.188       33.084     2936.681     2322.115     1094.540        1.346        0.318      143.263       35.775        0.062      344.640       21.600      859.942
05/15/2013  10:32:00     -105.616      -69.947      -17.377       74.306       58.440       31.427     5521.324     3415.182      987.659        1.314        0.496      126.678       21.152        0.028      344.508       21.376      859.921
05/15/2013  10:33:00       -2.531     -110.794       24.504       31.667       58.019       30.303     1002.782     3366.169      918.253        0.908        0.264      110.822       18.836        0.029      344.723       21.744      859.907
05/15/2013  10:34:00      -24.954       89.027        0.535       28.622       61.946       36.546      819.221     3837.309     1335.643        0.727        0.300       92.458       26.690        0.083      345.282       22.701      859.889
05/15/2013  10:35:00      -13.207       61.049       20.793       41.239       52.683       29.807     1700.640     2775.551      888.431        0.485        0.268       62.461       30.638        0.241      345.685       23.393      859.880
05/15/2013  10:36:00       38.806       45.219       14.836       32.275       23.876       28.549     1041.702      570.071      815.060        0.310        0.121       59.588        9.263        0.024      345.113       22.412      859.872
05/15/2013  10:37:00       66.060       70.037       36.385       43.582       42.551       39.846     1899.378     1810.588     1587.696        0.794        0.265       96.276       25.726        0.071      345.020       22.253      859.883
05/15/2013  10:38:00      105.870       99.423       53.329       52.963       30.453       34.144     2805.071      927.393     1165.830        1.442        0.245      145.235       24.566        0.029      344.900       22.048      859.875
05/15/2013  10:39:00      138.002      155.650      114.652       71.596       53.942       47.981     5125.965     2909.713     2302.182        3.338        0.517      208.018       22.650        0.012      345.082       22.356      859.872
05/15/2013  10:40:00       44.425       66.819       80.265       67.212       67.334       44.752     4517.470     4533.810     2002.758        1.197        0.553       80.239       40.290        0.252      345.513       23.098      859.880
05/15/2013  10:41:00       64.691       62.379       55.906       58.872       57.102       34.191     3465.881     3260.680     1169.026        0.955        0.395       89.867       22.189        0.061      345.704       23.425      859.887
05/15/2013  10:42:00       16.346       47.148       -9.448       63.376       38.772       30.595     4016.457     1503.244      936.080        0.452        0.323       49.901       24.586        0.243      345.048       22.301      859.900
05/15/2013  10:43:00        2.241       48.789       37.171       42.492       59.668       27.214     1805.540     3560.234      740.578        0.494        0.305       48.840       20.675        0.179      345.666       23.360      859.899
05/15/2013  10:44:00       32.125      -67.112       25.939       65.532       99.359       58.448     4294.386     9872.123     3416.121        1.189        0.879       74.404       60.155        0.654      345.688       23.396      859.907
05/15/2013  10:45:00       33.554       61.979       75.243       34.357       36.696       26.973     1180.406     1346.593      727.545        0.694        0.163       70.479       20.738        0.087      345.399       22.902      859.913
05/15/2013  10:46:00       14.046      -10.658       35.158       35.935       70.896       36.524     1291.345     5026.312     1333.969        0.460        0.383       17.632       31.681        3.228      345.910       23.780      859.897
05/15/2013  10:47:00      141.195     -138.461      -19.653       89.401       98.649       62.080     7992.452     9731.684     3853.987        3.053        1.079      197.756       71.428        0.130      345.415       22.926      859.875
05/15/2013  10:48:00       67.665     -110.431        3.815       63.368       92.376       67.048     4015.560     8533.346     4495.401        1.691        0.852      129.513       61.949        0.229      345.307       22.743      859.883
05/15/2013  10:49:00        6.421       45.393       67.332       26.750       33.292       37.399      715.584     1108.362     1398.686        0.493        0.161       45.845       24.283        0.281      345.545       23.153      859.895
05/15/2013  10:50:00       -7.036       13.619       19.997       19.895       26.518       20.991      395.809      703.207      440.635        0.109        0.077       15.329       15.892        1.075      345.646       23.325      859.896
05/15/2013  10:51:00      -51.360       50.350        3.704       46.105       42.503       27.177     2125.646     1806.476      738.589        0.493        0.234       71.924       27.283        0.144      345.504       23.082      859.890
05/15/2013  10:52:00      -71.922       49.054       -5.675       37.931       48.788       28.226     1438.728     2380.273      796.682        0.611        0.231       87.058       23.877        0.075      345.324       22.773      859.894
05/15/2013  10:53:00      -31.886       82.804        9.271       65.482       72.621       48.847     4287.844     5273.805     2385.996        0.995        0.597       88.731       32.238        0.132      345.784       23.563      859.866
05/15/2013  10:54:00     -114.179       16.608       -0.685      109.353       58.000       39.899    11958.174     3363.974     1591.895        1.511        0.846      115.380       39.331        0.116      345.782       23.558      859.852
05/15/2013  10:55:00     -227.600      -35.122      -19.875      106.929       98.609       52.800    11433.760     9723.642     2787.884        3.868        1.197      230.294       46.760        0.041      345.380       22.866      859.826
05/15/2013  10:56:00     -305.575      -35.260      -22.428       78.540       70.580       38.321     6168.563     4981.502     1468.469        5.387        0.631      307.602       37.675        0.015      344.931       22.095      859.853
05/15/2013  10:57:00     -191.707       35.733      -17.481       98.899       73.326       35.208     9781.004     5376.722     1239.608        2.736        0.820      195.009       37.088        0.036      345.022       22.255      859.864
05/15/2013  10:58:00     -174.250        2.187      -14.445       82.486       64.633       41.572     6804.001     4177.422     1728.216        2.164        0.635      174.263       40.853        0.055      345.087       22.366      859.864
05/15/2013  10:59:00      -23.830       90.961        6.610       48.147       72.612       43.884     2318.100     5272.452     1925.822        0.920        0.476       94.031       39.428        0.176      345.651       23.334      859.859
05/15/2013  11:00:00       42.814       60.697       -8.425       81.031       45.955       35.984     6566.004     2111.895     1294.820        0.778        0.499       74.278       19.593        0.070      345.634       23.305      859.824
05/15/2013  11:01:00       96.061       77.780        9.328       65.366       51.315       36.299     4272.653     2633.181     1317.625        1.179        0.411      123.602       25.670        0.043      345.733       23.474      859.789
05/15/2013  11:02:00       62.923       65.196       10.993       75.939       51.146       37.508     5766.686     2615.927     1406.842        0.906        0.489       90.608       22.175        0.060      345.695       23.409      859.776
05/15/2013  11:03:00       -1.877       80.602       15.037       40.381       67.626       37.420     1630.595     4573.229     1400.292        0.716        0.380       80.624       29.216        0.131      346.117       24.134      859.791
05/15/2013  11:04:00       49.290       38.773       29.926       44.050       43.250       41.505     1940.365     1870.551     1722.658        0.518        0.277       62.713        9.756        0.024      346.080       24.072      859.804
05/15/2013  11:05:00      -58.603       35.862      -17.072       54.770       59.484       24.980     2999.699     3538.322      624.006        0.609        0.358       68.705       17.995        0.069      345.781       23.556      859.834
05/15/2013  11:06:00      -73.272      -66.821        7.644       50.063       37.055       26.632     2506.281     1373.085      709.259        0.724        0.229       99.165       20.553        0.043      345.688       23.397      859.862
05/15/2013  11:07:00      -46.710      -59.613        4.942       77.276       60.837       39.920     5971.568     3701.128     1593.586        0.851        0.563       75.733       44.604        0.347      345.793       23.577      859.876
05/15/2013  11:08:00      -55.543      -84.236        4.761       65.910       64.093       48.306     4344.084     4107.893     2333.475        1.049        0.539      100.900       38.663        0.147      345.553       23.166      859.879
05/15/2013  11:09:00     -131.509      -74.416        6.881       98.517       63.992       41.575     9705.546     4095.019     1728.460        1.920        0.776      151.104       45.867        0.092      345.518       23.103      859.858
05/15/2013  11:10:00      -16.383      -30.787       38.096       81.836       84.748       47.884     6697.185     7182.208     2292.861        0.942        0.809       34.875       46.249        1.759      346.046       24.012      859.851
05/15/2013  11:11:00     -328.298       81.633      -32.276      203.491      110.631       79.168    41408.609    12239.215     6267.584        8.769        2.996      338.295       89.503        0.070      345.629       23.292      859.829
05/15/2013  11:12:00     -242.624       60.254      -35.515      171.025      101.798       65.305    29249.408    10362.924     4264.775        5.381        2.194      249.994       74.709        0.089      345.509       23.089      859.744
05/15/2013  11:13:00     -530.534      -31.159      -46.610      331.585      151.970      108.716   109948.302    23094.966    11819.113       21.471        7.243      531.449      137.782        0.067      345.520       23.105      859.564
05/15/2013  11:14:00     -699.986     -111.195      -32.194      342.465      243.389      113.255   117282.491    59238.427    12826.745       34.633        9.467      708.763      145.740        0.042      345.679       23.378      859.512
05/15/2013  11:15:00     -360.372     -230.232       -3.308      220.855      195.061      102.706    48776.838    38048.648    10548.558       14.011        4.869      427.639      114.885        0.072      345.596       23.235      859.775
05/15/2013  11:16:00     -249.855     -114.550       -5.728      175.980      121.098       71.138    30968.810    14664.829     5060.646        6.313        2.535      274.862       82.077        0.089      345.718       23.444      859.807
05/15/2013  11:17:00     -247.233     -109.066       -3.777      137.857      108.368       56.267    19004.461    11743.719     3166.027        5.347        1.696      270.221       48.364        0.032      345.556       23.168      859.826
05/15/2013  11:18:00     -354.121     -265.843       -2.046      196.978      181.324       94.611    38800.287    32878.285     8951.308       13.834        4.031      442.803      104.363        0.056      345.469       23.018      859.808
05/15/2013  11:19:00     -346.310     -338.460        0.092      203.234      174.880      107.180    41304.162    30582.943    11487.657       15.892        4.169      484.237       96.467        0.040      345.250       22.642      859.764
05/15/2013  11:20:00     -441.344     -238.652      -16.426      201.014      123.308       76.862    40406.599    15204.920     5907.775       15.675        3.076      501.736       83.041        0.027      345.294       22.719      859.767
05/15/2013  11:21:00     -298.094      -81.655      -25.821      164.156      142.581       71.321    26947.139    20329.206     5086.675        7.427        2.618      309.075       64.651        0.044      345.440       22.969      859.756
05/15/2013  11:22:00     -286.722      -25.390       -3.154      158.110      126.102       93.147    24998.804    15901.632     8676.317        6.621        2.479      287.844       92.944        0.104      345.575       23.199      859.686
05/15/2013  11:23:00     -302.674      -35.375       -8.389      197.246      152.238       71.868    38906.010    23176.535     5165.001        8.008        3.362      304.734       76.069        0.062      345.702       23.418      859.688
05/15/2013  11:24:00     -590.275     -136.979      -19.664      304.591      195.953      105.819    92775.750    38397.595    11197.615       25.495        7.119      605.961      140.221        0.054      345.478       23.033      859.662
05/15/2013  11:25:00     -373.296     -206.046        4.344      253.208      180.698      107.142    64114.473    32651.917    11479.342       14.502        5.412      426.385      121.223        0.081      345.418       22.931      859.708
05/15/2013  11:26:00     -307.464     -244.814        4.030      214.116      152.548      104.952    45845.642    23270.756    11014.847       11.729        4.007      393.024      118.500        0.091      345.390       22.881      859.731
05/15/2013  11:27:00     -406.717     -279.189      -13.833      198.200      165.758       99.306    39283.083    27475.756     9861.589       16.008        3.831      493.320      105.038        0.045      345.245       22.634      859.690
05/15/2013  11:28:00     -424.849     -295.268      -13.491      201.782      168.017       87.473    40715.948    28229.861     7651.599       17.222        3.830      517.378       91.966        0.032      345.266       22.670      859.669
05/15/2013  11:29:00     -312.952     -180.404       -3.577      175.535      124.890       80.166    30812.440    15597.630     6426.649        9.166        2.642      361.227       76.458        0.045      345.487       23.049      859.684
05/15/2013  11:30:00     -200.977     -184.241       16.210      189.745      156.851       91.518    36003.226    24602.323     8375.558        7.178        3.449      272.647       70.061        0.066      345.472       23.023      859.646
05/15/2013  11:31:00     -303.604      -82.872      -15.359      175.028      101.489       60.937    30634.642    10300.091     3713.299        7.196        2.232      314.711       72.783        0.053      345.557       23.169      859.617
05/15/2013  11:32:00     -130.960     -240.465       -1.260      138.709      329.026       66.483    19240.253   108257.966     4420.050       10.342        6.596      273.814       53.913        0.039      345.588       23.223      859.604
05/15/2013  11:33:00     -163.668     -399.709       10.827      153.172      244.388       83.931    23461.787    59725.729     7044.397       13.844        4.512      431.920       96.277        0.050      345.355       22.823      859.546
05/15/2013  11:34:00     -247.617     -235.431        6.175      179.876      149.432       77.439    32355.393    22329.844     5996.852        8.872        3.034      341.676       77.670        0.052      345.517       23.100      859.526
05/15/2013  11:35:00     -432.352     -267.753        0.057      240.244      217.133      107.712    57717.199    47146.577    11601.883       18.752        5.823      508.547      116.375        0.052      345.544       23.147      859.508
05/15/2013  11:36:00     -473.441     -245.899      -27.911      236.067      204.468       93.265    55727.741    41807.211     8698.327       19.579        5.312      533.491      102.222        0.037      345.566       23.184      859.554
05/15/2013  11:37:00     -626.141     -182.456      -36.447      264.231      174.470       97.277    69818.035    30439.689     9462.732       26.818        5.486      652.183      102.381        0.025      345.274       22.682      859.562
05/15/2013  11:38:00     -449.422     -188.881      -10.244      184.673      142.997       85.456    34104.248    20448.117     7302.736       14.980        3.093      487.500       90.539        0.034      345.406       22.910      859.599
05/15/2013  11:39:00     -342.161      -93.641      -24.332      186.856      166.956       78.781    34915.275    27874.192     6206.375        9.770        3.450      354.743       91.466        0.066      345.630       23.294      859.633
05/15/2013  11:40:00      -44.275     -158.890       26.830       84.764      169.496       57.631     7184.872    28729.000     3321.286        3.357        1.962      164.944       45.470        0.076      345.914       23.783      859.633
05/15/2013  11:41:00     -165.351     -216.585       -1.797      164.436      155.583       76.256    27039.313    24206.050     5814.989        6.565        2.853      272.488       83.148        0.093      345.405       22.910      859.619
05/15/2013  11:42:00      -87.230     -131.689       -2.904      117.035      125.555       51.602    13697.239    15763.949     2662.791        2.854        1.606      157.959       49.732        0.099      345.745       23.491      859.587
05/15/2013  11:43:00     -344.276     -300.414        8.912      287.529      222.798      115.501    82673.003    49638.761    13340.507       17.723        7.283      456.919      138.808        0.092      345.492       23.058      859.571
05/15/2013  11:44:00     -470.277     -130.228      -31.496      260.341      220.364       97.197    67777.603    48560.180     9447.163       18.243        6.289      487.976      106.282        0.047      345.387       22.878      859.556
05/15/2013  11:45:00     -451.811     -196.551      -29.845      239.796      167.992       96.444    57502.326    28221.188     9301.430       16.932        4.751      492.712      101.635        0.043      345.444       22.974      859.560
05/15/2013  11:46:00     -444.862      -39.191       -3.105      231.323      198.055      115.413    53510.489    39225.716    13320.245       15.273        5.303      446.585      131.417        0.087      345.588       23.222      859.564
05/15/2013  11:47:00     -423.346      -76.943      -22.060      247.844      174.152       99.013    61426.773    30328.818     9803.529       14.358        5.078      430.282      121.789        0.080      345.647       23.325      859.603
05/15/2013  11:48:00     -222.536     -172.462        5.231      130.737      145.313       67.934    17092.252    21115.752     4615.069        6.105        2.141      281.541       69.053        0.060      345.724       23.458      859.636
05/15/2013  11:49:00     -310.957     -186.681       13.811      220.055      182.638       95.226    48424.412    33356.673     9067.948       11.128        4.542      362.690      106.478        0.086      345.736       23.477      859.629
05/15/2013  11:50:00     -373.773     -221.100        7.739      270.886      205.073       98.088    73379.427    42054.754     9621.301       15.683        6.253      434.271      116.425        0.072      345.598       23.239      859.633
05/15/2013  11:51:00     -293.346     -114.745       18.275      248.133      149.474       91.355    61569.891    22342.369     8345.775        9.589        4.613      314.989      105.058        0.111      345.586       23.218      859.636
05/15/2013  11:52:00     -436.978     -292.129      -13.124      305.117      206.269      130.569    93096.162    42546.776    17048.338       21.455        7.635      525.632      149.145        0.081      345.576       23.201      859.593
05/15/2013  11:53:00     -472.250     -189.003      -20.957      208.101      197.608       97.316    43306.125    39049.000     9470.312       17.549        4.591      508.667      103.279        0.041      345.626       23.287      859.585
05/15/2013  11:54:00     -588.276     -286.064      -10.094      219.771      188.785      101.606    48299.192    35639.804    10323.845       26.112        4.713      654.141      116.547        0.032      345.692       23.402      859.588
05/15/2013  11:55:00     -336.254     -193.611      -10.543      223.392      158.991       79.991    49903.908    25278.238     6398.519       11.611        4.079      388.010      102.244        0.069      345.635       23.301      859.642
05/15/2013  11:56:00     -334.194     -257.407        1.855      179.553      166.840       94.018    32239.253    27835.483     8839.366       12.342        3.446      421.834       96.446        0.052      345.465       23.009      859.610
05/15/2013  11:57:00     -531.145     -250.348      -30.209      231.982      205.216      100.522    53815.785    42113.620    10104.752       22.585        5.302      587.187      113.394        0.037      345.541       23.141      859.615
05/15/2013  11:58:00     -419.153     -262.102       -6.323      261.241      225.776      102.100    68246.855    50974.770    10424.440       18.701        6.482      494.355      113.247        0.052      345.465       23.010      859.562
05/15/2013  11:59:00     -390.187     -115.646       -9.676      224.291      205.309       98.942    50306.674    42151.849     9789.599       13.396        5.112      406.965      108.474        0.071      345.683       23.385      859.544
05/15/2013  12:00:00     -430.326     -324.436      -10.178      241.299      185.366      107.347    58225.141    34360.502    11523.323       19.731        5.205      538.924      117.392        0.047      345.565       23.184      859.467
05/15/2013  12:01:00     -271.867     -261.571       -7.788      143.943      123.472       89.682    20719.625    15245.354     8042.893        9.319        2.200      377.268       77.441        0.042      345.880       23.722      859.469
05/15/2013  12:02:00     -186.123     -138.412       -3.031      147.037      112.094       59.779    21619.741    12565.037     3573.519        4.578        1.888      231.947       52.414        0.051      346.103       24.106      859.457
05/15/2013  12:03:00     -434.980     -341.268        1.082      341.807      258.811      119.620   116831.918    66982.891    14308.971       25.187        9.906      552.876      145.468        0.069      345.699       23.413      859.402
05/15/2013  12:04:00     -597.175     -259.800       -0.929      290.413      265.021      145.047    84339.585    70235.946    21038.580       29.984        8.781      651.240      154.539        0.056      345.517       23.101      859.408
05/15/2013  12:05:00     -523.124     -356.387      -15.597      296.823      197.326      122.982    88103.692    38937.732    15124.618       27.152        7.108      632.985      139.139        0.048      345.392       22.886      859.422
05/15/2013  12:06:00     -420.755     -157.838      -22.265      199.941      181.711      104.956    39976.423    33019.034    11015.780       14.321        4.201      449.386      108.773        0.059      345.468       23.018      859.460
05/15/2013  12:07:00     -435.824     -250.598      -20.945      223.877      263.084      101.088    50120.983    69213.231    10218.781       19.134        6.478      502.734      129.333        0.066      345.399       22.898      859.420
05/15/2013  12:08:00     -242.032     -222.790       14.710      220.312      204.679       94.854    48537.493    41893.512     8997.234       10.391        4.971      328.960      114.106        0.120      345.614       23.267      859.424
05/15/2013  12:09:00     -326.477     -238.960        2.300      298.714      183.428       97.850    89230.075    33645.975     9574.662       14.805        6.623      404.585      132.480        0.107      345.674       23.371      859.433
05/15/2013  12:10:00     -550.364     -136.220       -6.273      229.328      194.004      111.952    52591.407    37637.667    12533.360       21.211        5.138      566.971      124.109        0.048      345.436       22.961      859.442
05/15/2013  12:11:00     -399.548     -291.701       -7.371      243.881      196.619      103.353    59477.755    38658.960    10681.942       17.678        5.441      494.700      126.833        0.066      345.332       22.783      859.432
05/15/2013  12:12:00     -386.615     -365.751      -15.297      225.575      192.404       98.821    50884.017    37019.367     9765.649       19.056        4.883      532.207      125.707        0.056      345.327       22.775      859.410
05/15/2013  12:13:00     -354.314     -248.822        8.896      258.480      209.657      102.141    66812.145    43955.849    10432.879       15.435        6.060      432.956      111.867        0.067      345.481       23.036      859.427
05/15/2013  12:14:00     -542.497     -332.215      -12.894      223.933      229.052      114.927    50145.921    52464.760    13208.199       26.031        5.791      636.136      129.278        0.041      345.306       22.739      859.416
05/15/2013  12:15:00     -519.710     -260.325      -28.290      260.510      208.591      111.173    67865.653    43510.105    12359.376       23.118        6.187      581.263      102.881        0.031      345.271       22.679      859.444
05/15/2013  12:16:00     -378.970     -211.097        0.649      249.014      175.094      100.379    62007.730    30657.890    10075.999       14.544        5.137      433.797      113.379        0.068      345.257       22.655      859.460
05/15/2013  12:17:00     -497.704     -251.171      -20.129      300.746      165.649       95.835    90448.222    27439.725     9184.398       21.912        6.354      557.491      118.766        0.045      345.183       22.529      859.434
05/15/2013  12:18:00     -385.486     -263.768      -12.031      154.848      174.444       84.637    23977.840    30430.678     7163.354       13.993        3.079      467.090       70.549        0.023      345.146       22.465      859.446
05/15/2013  12:19:00     -533.090     -138.790      -44.186      179.007      227.243       97.076    32043.390    51639.350     9423.746       19.924        4.655      550.861      100.108        0.033      345.147       22.467      859.452
05/15/2013  12:20:00     -275.422     -205.155      -12.782      195.328      211.663       93.919    38153.199    44801.107     8820.686       10.493        4.589      343.433       99.716        0.084      345.258       22.656      859.452
05/15/2013  12:21:00     -136.985     -102.875        0.848      170.802      104.318       51.687    29173.452    10882.219     2671.501        3.603        2.136      171.312       72.864        0.181      345.275       22.686      859.457
05/15/2013  12:22:00     -201.712     -215.127      -18.014      158.035       78.847       58.855    24974.995     6216.906     3463.899        6.097        1.733      294.903       60.046        0.041      345.315       22.752      859.451
05/15/2013  12:23:00     -226.941     -419.397      -12.902      143.460      157.383       79.001    20580.705    24769.530     6241.221       13.957        2.580      476.861       56.114        0.014      345.329       22.778      859.433
05/15/2013  12:24:00     -276.150     -331.944      -25.169      159.972      149.014       76.403    25591.040    22205.054     5837.466       12.035        2.682      431.794       66.755        0.024      345.416       22.927      859.437
05/15/2013  12:25:00     -296.474     -247.049        0.480      177.972      132.041       81.548    31673.972    17434.794     6650.081       10.233        2.788      385.914       89.618        0.054      345.400       22.899      859.467
05/15/2013  12:26:00     -261.881     -119.849       -7.725      202.510      170.396       81.417    41010.468    29034.906     6628.801        7.983        3.834      288.002       84.212        0.085      345.306       22.738      859.429
05/15/2013  12:27:00     -340.369     -186.911       10.233      211.852      179.606       94.680    44881.399    32258.277     8964.224       11.848        4.305      388.313      105.737        0.074      345.254       22.649      859.411
05/15/2013  12:28:00     -249.148     -191.250       11.883      155.433      152.835       72.303    24159.417    23358.572     5227.710        7.576        2.637      314.088       84.846        0.073      345.252       22.645      859.383
05/15/2013  12:29:00     -155.855      -99.383       12.836      136.321      119.654       69.920    18583.418    14317.149     4888.851        3.605        1.889      184.846       60.001        0.105      345.333       22.786      859.376
05/15/2013  12:30:00     -193.510     -161.375       -9.621      107.077      117.035       57.796    11465.425    13697.216     3340.336        4.604        1.425      251.968       57.135        0.051      345.324       22.768      859.368
05/15/2013  12:31:00     -279.610      -98.490        2.014      132.483      106.253       62.614    17551.729    11289.608     3920.477        6.032        1.638      296.449       59.018        0.040      345.310       22.745      859.354
05/15/2013  12:32:00     -176.311     -100.448        9.541      133.836      115.788       62.918    17912.140    13406.764     3958.699        3.827        1.764      202.917       63.717        0.099      345.400       22.900      859.336
05/15/2013  12:33:00     -303.382     -137.605        1.412      150.985      168.104       73.055    22796.383    28259.045     5337.099        8.368        2.820      333.130       71.919        0.047      345.364       22.837      859.360
05/15/2013  12:34:00     -400.060     -174.676       20.746      239.534      172.589       98.757    57376.306    29786.978     9752.942       14.394        4.846      436.531      110.883        0.065      345.269       22.675      859.360
05/15/2013  12:35:00     -346.431     -232.290      -37.240      147.587      123.364       86.052    21781.859    15218.615     7404.952       10.988        2.220      417.101       71.928        0.030      345.285       22.703      859.362
05/15/2013  12:36:00     -266.409     -198.802        3.787      173.309      141.637       70.468    30035.918    20061.153     4965.765        8.278        2.753      332.409       68.045        0.042      345.354       22.820      859.373
05/15/2013  12:37:00     -247.244     -293.935      -11.395      165.514      194.462       83.726    27394.833    37815.519     7009.999       10.993        3.611      384.093       80.889        0.044      345.274       22.683      859.393
05/15/2013  12:38:00     -143.300     -227.547       27.603      143.912      220.117       76.335    20710.577    48451.536     5826.988        7.402        3.749      268.910       72.908        0.074      345.333       22.785      859.332
05/15/2013  12:39:00     -194.134     -352.517       -2.830      133.904      146.874       67.897    17930.208    21571.884     4610.014       10.303        2.206      402.438       65.622        0.027      345.293       22.716      859.307
05/15/2013  12:40:00     -155.815     -173.352       -7.426      119.547      112.084       64.666    14291.425    12562.910     4181.660        4.270        1.552      233.086       56.421        0.059      345.397       22.894      859.305
05/15/2013  12:41:00     -136.025     -109.693       15.973      142.221      103.664       56.360    20226.921    10746.232     3176.434        3.246        1.707      174.743       62.537        0.128      345.468       23.019      859.264
05/15/2013  12:42:00     -303.324     -223.000       13.734      173.004      147.050       87.453    29930.356    21623.827     7647.951       10.055        2.960      376.477       81.926        0.047      345.492       23.055      859.235
05/15/2013  12:43:00     -279.676     -189.738      -15.402      109.099      120.167       59.025    11902.591    14440.180     3483.959        7.214        1.491      337.963       51.631        0.023      345.642       23.314      859.277
05/15/2013  12:44:00     -377.156     -230.761       -7.133      189.879      166.143       89.571    36053.925    27603.439     8022.937       13.360        3.584      442.151       97.576        0.049      345.639       23.309      859.298
05/15/2013  12:45:00     -307.500      -55.540       21.736      211.839      214.418      102.913    44875.614    45974.950    10591.145        9.976        5.072      312.476      122.964        0.155      345.689       23.397      859.286
05/15/2013  12:46:00     -537.695     -176.620      -15.225      297.986      203.996      107.165    88795.640    41614.472    11484.278       23.119        7.095      565.960      120.609        0.045      345.502       23.074      859.256
05/15/2013  12:47:00     -505.487     -273.063      -18.992      218.734      202.350       98.001    47844.485    40945.596     9604.266       21.440        4.920      574.526      101.389        0.031      345.542       23.143      859.236
05/15/2013  12:48:00     -399.347     -205.210      -21.106      254.087      243.675      101.184    64560.294    59377.340    10238.149       16.808        6.709      448.987      126.693        0.080      345.543       23.144      859.240
05/15/2013  12:49:00     -267.120     -215.101       21.101      248.854      183.117      112.174    61928.333    33531.676    12583.011       11.304        5.402      342.960      126.973        0.137      345.671       23.365      859.251
05/15/2013  12:50:00     -370.446     -212.641        6.320      229.254      141.949       98.562    52557.220    20149.428     9714.396       13.244        4.121      427.137      125.895        0.087      345.612       23.263      859.255
05/15/2013  12:51:00     -321.297     -265.901       -4.272      213.956      169.895       83.886    45777.103    28864.413     7036.816       12.780        4.084      417.055       86.173        0.043      345.498       23.069      859.282
05/15/2013  12:52:00     -454.579     -309.268        2.271      270.373      194.474      119.295    73101.460    37819.946    14231.332       21.370        6.258      549.808      127.756        0.054      345.374       22.854      859.236
05/15/2013  12:53:00     -486.656     -366.241      -21.338      326.099      264.820      122.505   106340.441    70129.671    15007.375       28.142        9.574      609.070      153.745        0.064      345.418       22.930      859.253
05/15/2013  12:54:00     -279.653     -170.157       -8.392      182.785      124.184       77.372    33410.235    15421.595     5986.438        8.101        2.741      327.352       89.916        0.075      345.396       22.893      859.244
05/15/2013  12:55:00     -240.283     -137.451       -7.805      167.795      114.195       82.608    28155.080    13040.514     6824.005        6.235        2.401      276.819       88.201        0.102      345.385       22.873      859.188
05/15/2013  12:56:00     -351.988     -187.422      -18.910      161.742      151.170       74.453    26160.611    22852.380     5543.273       10.696        2.728      398.776       80.769        0.041      345.417       22.929      859.187
05/15/2013  12:57:00     -451.497      -88.510      -11.516      225.397      154.639       89.947    50804.020    23913.069     8090.449       14.730        4.140      460.091      104.086        0.051      345.406       22.909      859.210
05/15/2013  12:58:00     -360.216     -109.161      -10.582      175.117      107.606       70.285    30665.807    11579.134     4940.006        9.448        2.359      376.393       72.542        0.037      345.494       23.059      859.213
05/15/2013  12:59:00     -447.582     -296.670      -16.290      250.115      227.929       95.298    62557.573    51951.638     9081.694       20.608        6.180      536.975      108.250        0.041      345.535       23.132      859.162
05/15/2013  13:00:00     -555.369     -320.095      -16.702      342.945      236.564      128.004   117611.526    55962.587    16384.942       30.054        9.498      641.011      146.066        0.052      345.350       22.814      859.119
05/15/2013  13:01:00     -564.846     -295.898      -22.106      239.527      204.342      112.766    57373.381    41755.725    12716.106       25.945        5.592      637.657      117.080        0.034      345.499       23.068      859.173
05/15/2013  13:02:00     -404.043     -302.748      -21.180      271.455      213.890      103.910    73687.706    45749.019    10797.379       19.277        6.512      504.883      123.758        0.060      345.542       23.143      859.175
05/15/2013  13:03:00     -483.167     -244.102       -8.676      316.977      235.459      122.415   100474.360    55440.840    14985.393       23.198        8.545      541.328      137.985        0.065      345.358       22.828      859.165
05/15/2013  13:04:00     -515.931     -311.647      -38.721      212.701      186.563      107.819    45241.911    34805.694    11625.000       22.823        4.584      602.751      106.432        0.031      345.316       22.756      859.175
05/15/2013  13:05:00     -285.459      -52.783        5.433      214.835      112.588       78.529    46153.885    12676.115     6166.802        7.464        3.250      290.297       85.733        0.087      345.518       23.104      859.146
05/15/2013  13:06:00     -290.574     -186.384        5.992      273.860      163.635       92.351    74999.430    26776.429     8528.682       11.474        5.515      345.214      112.572        0.106      345.579       23.206      859.144
05/15/2013  13:07:00     -376.796     -179.900       -6.029      260.129      191.087       94.070    67667.276    36514.140     8849.126       14.368        5.652      417.539      106.342        0.065      345.633       23.299      859.154
05/15/2013  13:08:00     -391.132     -256.323        1.787      207.426      171.529      103.355    43025.467    29422.193    10682.259       15.090        4.156      467.638      101.860        0.047      345.655       23.335      859.144
05/15/2013  13:09:00     -373.559     -221.260       -8.441      234.170      191.733       94.652    54835.494    36761.551     8958.996       14.455        5.028      434.169      101.092        0.054      345.795       23.578      859.152
05/15/2013  13:10:00     -720.805     -397.919      -27.350      373.472      310.298      141.911   139481.520    96285.065    20138.685       46.723       12.795      823.346      168.807        0.042      345.379       22.863      859.109
05/15/2013  13:11:00     -496.626     -166.154        8.003      381.989      245.946      149.498   145915.861    60489.433    22349.710       25.149       11.438      523.683      179.305        0.117      345.467       23.015      859.092
05/15/2013  13:12:00     -376.028     -160.847       -0.138      260.848      253.718      117.671    68041.857    64372.902    13846.466       15.674        7.313      408.985      128.422        0.099      345.557       23.171      859.139
05/15/2013  13:13:00     -461.822     -148.930      -17.775      288.564      213.204      124.207    83268.909    45456.082    15427.402       18.994        7.208      485.242      141.308        0.085      345.524       23.113      859.149
05/15/2013  13:14:00     -517.243     -299.014      -32.677      241.171      233.166      114.399    58163.243    54366.276    13087.096       24.180        6.281      597.453      111.358        0.035      345.466       23.013      859.126
05/15/2013  13:15:00     -597.754     -239.794      -12.732      251.664      211.789      111.353    63334.914    44854.489    12399.396       26.776        6.029      644.058      127.039        0.039      345.529       23.120      859.131
05/15/2013  13:16:00     -440.398     -153.279        0.491      265.125      232.729      112.758    70291.479    54162.618    12714.474       17.728        6.858      466.310      132.114        0.080      345.649       23.328      859.130
05/15/2013  13:17:00     -369.921      -70.751        4.693      223.659      156.118      112.302    50023.312    24372.807    12611.703       11.442        4.350      376.626      107.434        0.081      345.630       23.294      859.143
05/15/2013  13:18:00     -159.306     -125.470        3.258      122.179      136.587       78.275    14927.634    18656.051     6127.010        4.041        1.986      202.783       62.505        0.095      345.745       23.492      859.136
05/15/2013  13:19:00     -307.522     -173.515        7.072      219.022      132.417       85.784    47970.815    17534.164     7358.890        9.878        3.643      353.096       90.652        0.066      345.810       23.605      859.134
05/15/2013  13:20:00     -650.036     -534.868        8.546      376.927      217.722      158.262   142073.723    47402.902    25046.990       46.158       10.726      841.802      186.682        0.049      345.565       23.184      859.091
05/15/2013  13:21:00     -474.553     -443.914       -5.415      279.722      252.790      135.609    78244.600    63902.948    18389.721       29.139        8.027      649.816      139.001        0.046      345.405       22.906      859.085
05/15/2013  13:22:00     -514.986     -330.340       19.390      273.356      197.966      127.234    74723.712    39190.614    16188.606       25.238        6.505      611.829      140.277        0.053      345.396       22.893      859.099
05/15/2013  13:23:00     -399.145     -201.121       -3.709      258.400      189.950      101.913    66770.414    36080.987    10386.275       15.649        5.662      446.953      109.485        0.060      345.593       23.229      859.047
05/15/2013  13:24:00     -305.532     -306.765        6.712      246.952      271.802      108.146    60985.264    73876.130    11695.476       16.700        7.328      432.960      130.861        0.091      345.834       23.645      859.036
05/15/2013  13:25:00     -545.546     -267.788      -32.625      230.989      226.048      115.766    53355.756    51097.851    13401.825       24.411        5.893      607.726      110.381        0.033      345.841       23.659      859.088
05/15/2013  13:26:00     -531.436     -306.881      -26.313      268.681      236.611      123.671    72189.643    55984.891    15294.512       26.036        7.173      613.677      141.478        0.053      345.593       23.231      859.064
05/15/2013  13:27:00     -616.112     -175.766      -15.540      372.731      252.815      120.921   138928.665    63915.394    14621.988       31.406       10.873      640.693      147.283        0.053      345.724       23.455      859.023
05/15/2013  13:28:00     -516.891     -253.651      -34.873      264.276      250.356      123.020    69841.839    62678.026    15133.860       24.017        7.383      575.773      145.482        0.064      345.642       23.314      859.055
05/15/2013  13:29:00     -295.239     -207.645       11.373      237.977      181.629      103.202    56633.102    32989.090    10650.677       11.533        5.014      360.947      120.852        0.112      345.707       23.428      859.068
05/15/2013  13:30:00     -392.363     -346.933       -8.895      243.404      231.787      113.769    59245.585    53725.057    12943.494       20.013        6.296      523.747      111.310        0.045      345.745       23.492      859.063
05/15/2013  13:31:00     -399.636     -225.927      -17.847      204.781      165.683       84.548    41935.324    27450.872     7148.288       14.379        3.827      459.077      102.335        0.050      345.783       23.557      859.091
05/15/2013  13:32:00     -460.953     -354.245        3.688      326.914      267.657      125.226   106873.057    71640.113    15681.610       26.606        9.710      581.349      154.479        0.071      345.500       23.072      859.110
05/15/2013  13:33:00     -411.460     -308.788        0.934      241.238      183.726      111.199    58195.793    33755.351    12365.289       18.447        5.216      514.441      109.399        0.045      345.251       22.645      859.092
05/15/2013  13:34:00     -371.446     -185.540        6.333      243.284      183.572       92.764    59186.874    33698.554     8605.153       13.695        5.075      415.208      124.349        0.090      345.455       22.995      859.057
05/15/2013  13:35:00     -209.525     -154.505       -4.738      184.245      137.913       78.037    33946.143    19019.946     6089.828        6.342        2.953      260.332       55.732        0.046      345.708       23.428      859.075
05/15/2013  13:36:00     -415.127     -258.051       -8.491      309.907      177.879       99.799    96042.217    31641.003     9959.867       18.829        6.882      488.795      129.099        0.070      345.611       23.261      859.124
05/15/2013  13:37:00     -523.080     -211.846      -16.926      288.168      255.045      121.556    83040.893    65047.880    14775.821       24.079        8.143      564.350      119.689        0.045      345.542       23.140      859.076
05/15/2013  13:38:00     -388.474     -251.763      -12.865      177.471      170.489       89.269    31495.953    29066.573     7968.927       14.149        3.427      462.921      100.712        0.047      345.639       23.310      859.091
05/15/2013  13:39:00     -373.677     -180.798       -8.341      247.478      144.720       79.719    61245.377    20943.737     6355.045       13.045        4.427      415.117       59.574        0.021      345.441       22.971      859.053
05/15/2013  13:40:00     -168.747     -178.084        9.847      206.357      177.922       86.186    42583.216    31656.397     7428.063        7.096        4.083      245.336       56.451        0.053      345.647       23.325      859.042
05/15/2013  13:41:00     -321.285     -323.321       15.056      267.475      183.706      116.744    71542.640    33747.856    13629.057       16.343        5.946      455.807      124.835        0.075      345.619       23.275      859.070
05/15/2013  13:42:00     -413.104     -357.919       -6.619      276.040      230.826      107.956    76198.180    53280.816    11654.422       21.995        7.057      546.590      105.169        0.037      345.457       22.997      859.042
05/15/2013  13:43:00     -325.895     -252.875       13.665      226.753      219.125      109.018    51416.797    48015.559    11884.924       14.081        5.566      412.496      130.041        0.099      345.586       23.218      859.079
05/15/2013  13:44:00     -407.099     -380.640      -15.097      209.109      233.075       98.722    43726.685    54323.870     9746.059       20.930        5.390      557.330      107.762        0.037      345.587       23.221      859.124
05/15/2013  13:45:00     -392.017     -225.649        3.618      214.319      172.927       82.832    45932.603    29903.666     6861.148       14.364        4.135      452.321       90.896        0.040      345.561       23.176      859.135
05/15/2013  13:46:00     -333.884     -192.263       12.232      221.548      166.829       83.094    49083.653    27831.856     6904.670       11.619        4.191      385.284       92.137        0.057      345.692       23.401      859.149
05/15/2013  13:47:00     -262.890     -209.112       -4.840      194.180      175.874       83.157    37705.725    30931.660     6915.054        9.419        3.778      335.915       98.338        0.086      345.707       23.429      859.175
05/15/2013  13:48:00     -300.220     -323.561        0.944      198.228      189.510      106.214    39294.192    35913.937    11281.318       14.064        4.324      441.388       88.258        0.040      345.642       23.313      859.160
05/15/2013  13:49:00     -410.834     -196.356      -30.825      269.254      159.388      102.612    72497.503    25404.473    10529.173       15.834        5.422      455.346      118.695        0.068      345.539       23.139      859.148
05/15/2013  13:50:00     -526.371     -266.859      -16.414      247.277      225.727       98.829    61145.686    50952.692     9767.163       23.519        6.093      590.153       89.559        0.023      345.669       23.361      859.119
05/15/2013  13:51:00     -504.489     -363.477        9.963      298.773      267.633      122.254    89265.028    71627.442    14946.143       28.125        8.792      621.791      137.923        0.049      345.583       23.214      859.099
05/15/2013  13:52:00     -528.424     -360.019        0.697      294.474      202.818      115.676    86715.188    41134.970    13380.924       27.502        7.062      639.411      128.672        0.040      345.529       23.121      859.061
05/15/2013  13:53:00     -381.377     -266.066        3.836      248.042      204.888      101.733    61524.709    41978.954    10349.669       16.503        5.693      465.016      108.441        0.054      345.646       23.321      859.150
05/15/2013  13:54:00     -263.914     -114.923       32.344      218.482      192.895      112.224    47734.273    37208.667    12594.179        9.070        4.877      287.851      121.720        0.179      345.710       23.433      859.128
05/15/2013  13:55:00     -500.281     -158.888       -3.656      341.830      158.498      114.293   116847.494    25121.670    13062.785       21.526        7.752      524.907      127.060        0.059      345.692       23.399      859.094
05/15/2013  13:56:00     -554.880     -296.587      -20.629      249.608      256.949      112.969    62304.152    66022.555    12761.908       26.866        7.054      629.171      129.379        0.042      345.713       23.437      859.138
05/15/2013  13:57:00     -552.191     -354.714      -39.013      234.798      184.356      116.462    55130.240    33987.010    13563.344       26.745        5.134      656.306      111.620        0.029      345.490       23.053      859.125
05/15/2013  13:58:00     -652.237     -207.460      -17.516      320.412      219.559      128.162   102664.111    48206.201    16425.434       31.800        8.365      684.436      140.368        0.042      345.630       23.294      859.042
05/15/2013  13:59:00     -511.560     -366.741      -34.079      289.661      235.722      126.671    83903.329    55564.989    16045.432       27.641        7.776      629.438      136.528        0.047      345.718       23.445      859.102
05/15/2013  14:00:00     -506.569     -299.873       -1.826      271.016      205.784      113.915    73449.427    42347.158    12976.678       23.763        6.439      588.673      128.190        0.047      345.841       23.657      859.109
05/15/2013  14:01:00     -502.212     -376.980      -24.440      267.059      210.439      119.934    71320.763    44284.732    14384.269       26.244        6.499      627.958      141.349        0.051      345.713       23.436      859.192
05/15/2013  14:02:00     -409.087     -296.158        5.724      239.136      163.137      101.648    57186.010    26613.778    10332.320       17.460        4.707      505.036      107.530        0.045      345.616       23.270      859.180
05/15/2013  14:03:00     -510.399     -299.218      -12.775      255.996      210.897      108.353    65533.715    44477.691    11740.423       23.596        6.088      591.641      117.530        0.039      345.535       23.132      859.140
05/15/2013  14:04:00     -465.071     -238.460       -3.180      245.201      199.573       94.265    60123.305    39829.515     8885.872       19.098        5.442      522.642       91.382        0.031      345.600       23.243      859.145
05/15/2013  14:05:00     -402.078     -296.039        4.152      230.591      222.353       94.124    53172.310    49440.886     8859.238       18.038        5.574      499.306       91.391        0.034      345.715       23.441      859.152
05/15/2013  14:06:00     -420.954     -383.197       -2.161      319.036      228.950      128.982   101783.669    52418.275    16636.261       24.741        8.542      569.247      153.617        0.073      345.682       23.383      859.127
05/15/2013  14:07:00     -655.439     -520.492      -15.127      301.671      219.346      125.776    91005.607    48112.632    15819.641       42.781        7.747      836.966      135.853        0.026      345.566       23.185      859.117
05/15/2013  14:08:00     -649.769     -419.933       -7.999      314.907      240.329      128.472    99166.648    57757.928    16505.164       38.599        8.671      773.656      145.794        0.036      345.590       23.224      859.097
05/15/2013  14:09:00     -563.504     -453.625      -21.677      349.683      256.037      135.915   122278.136    65554.714    18472.875       36.501       10.315      723.404      158.013        0.048      345.616       23.270      859.112
05/15/2013  14:10:00     -441.530     -272.468      -18.999      323.566      168.130      104.493   104695.214    28267.584    10918.730       20.669        7.194      518.833      127.154        0.060      345.791       23.571      859.136
05/15/2013  14:11:00     -633.304     -290.963      -40.075      270.466      249.542      119.847    73151.726    62271.141    14363.356       31.854        7.489      696.946      143.708        0.043      345.646       23.321      859.115
05/15/2013  14:12:00     -638.430     -158.882        0.595      334.305      241.437      132.954   111759.819    58291.734    17676.742       31.025        9.386      657.903      169.724        0.067      345.642       23.314      859.126
05/15/2013  14:13:00     -489.565     -287.535       -5.705      298.210      248.360      115.759    88929.392    61682.551    13400.040       24.317        8.201      567.759      144.533        0.065      345.680       23.380      859.120
05/15/2013  14:14:00     -476.190     -318.184        1.622      298.644      275.788      121.291    89188.228    76058.851    14711.481       25.395        8.998      572.711      142.282        0.062      345.705       23.423      859.156
05/15/2013  14:15:00     -557.170     -349.099      -13.263      332.564      256.798      128.451   110598.859    65945.352    16499.757       31.273        9.652      657.501      137.253        0.044      345.451       22.988      859.123
05/15/2013  14:16:00     -381.564     -339.832       11.982      274.893      221.676      120.359    75566.282    49140.395    14486.378       20.018        6.960      510.957      118.186        0.054      345.614       23.266      859.141
05/15/2013  14:17:00     -467.308     -243.962       -3.455      238.777      190.818      102.456    57014.380    36411.517    10497.142       19.090        5.196      527.157      101.075        0.037      345.629       23.293      859.124
05/15/2013  14:18:00     -289.252     -165.334       -9.129      208.238      147.375       79.413    43363.063    21719.257     6306.423        9.123        3.569      333.170       80.201        0.058      345.790       23.569      859.157
05/15/2013  14:19:00     -732.888     -450.473       -4.892      316.561      262.466      143.876   100210.913    68888.142    20700.222       46.491        9.490      860.262      157.930        0.034      345.428       22.946      859.149
05/15/2013  14:20:00     -633.781     -386.149      -32.558      281.097      194.802      107.229    79015.244    37947.948    11497.987       34.013        6.423      742.152      117.193        0.025      345.322       22.766      859.123
05/15/2013  14:21:00     -499.287     -204.280       11.026      284.281      258.802      128.093    80815.756    66978.614    16407.715       22.764        8.210      539.461      132.166        0.060      345.437       22.962      859.149
05/15/2013  14:22:00     -478.309     -327.355       11.260      299.843      231.879      125.921    89905.659    53767.913    15856.178       24.777        7.976      579.604      145.951        0.063      345.348       22.811      859.208
05/15/2013  14:23:00     -541.063     -228.294       -5.745      269.451      195.149       84.079    72603.577    38083.159     7069.313       23.131        5.888      587.254      108.067        0.034      345.372       22.850      859.220
05/15/2013  14:24:00     -510.988     -257.475      -24.803      274.948      188.430      106.909    75596.399    35505.774    11429.449       22.525        6.127      572.191      121.691        0.045      345.314       22.751      859.150
05/15/2013  14:25:00     -582.741     -158.428      -26.534      259.848      193.449      109.817    67521.122    37422.391    12059.702       24.118        5.850      603.893      117.865        0.038      345.432       22.955      859.119
05/15/2013  14:26:00     -370.203     -120.463      -12.792      179.340      159.794       92.684    32162.761    25533.983     8590.389       10.900        3.314      389.309       97.105        0.062      345.575       23.200      859.139
05/15/2013  14:27:00     -614.133     -352.291      -41.824      333.463      308.809      150.577   111197.484    95362.893    22673.307       36.609       11.462      708.003      182.869        0.067      345.402       22.903      859.121
05/15/2013  14:28:00     -482.383     -292.833        0.876      257.713      214.033      130.102    66416.043    45809.952    16926.547       22.378        6.458      564.309      149.323        0.070      345.387       22.877      859.118
05/15/2013  14:29:00     -574.654     -381.934       -9.105      300.644      232.205      133.422    90386.666    53919.093    17801.471       31.912        8.105      690.001      142.022        0.042      345.277       22.688      859.136
05/15/2013  14:30:00     -512.867     -384.554        3.663      307.155      236.602      144.753    94343.966    55980.393    20953.465       29.107        8.564      641.026      159.248        0.062      345.286       22.705      859.113
05/15/2013  14:31:00     -539.112     -264.355        4.260      329.381      214.083       95.595   108492.163    45831.637     9138.336       26.198        8.173      600.437      114.887        0.037      345.339       22.795      859.161
05/15/2013  14:32:00     -499.326     -148.455      -43.287      207.896      208.284      104.146    43220.678    43382.042    10846.322       18.533        4.872      520.927      105.285        0.041      345.304       22.735      859.114
05/15/2013  14:33:00     -449.277     -286.791      -19.068      254.248      237.938      115.222    64642.152    56614.708    13276.190       20.948        6.727      533.009      133.617        0.063      345.383       22.870      859.143
05/15/2013  14:34:00     -631.386     -221.699      -17.686      320.303      282.169      138.552   102593.873    79619.218    19196.557       32.473       10.070      669.177      173.256        0.067      345.301       22.730      859.133
05/15/2013  14:35:00     -685.808     -428.237      -24.071      307.378      327.234      142.231    94481.311   107082.239    20229.769       43.801       11.090      808.529      154.150        0.036      345.236       22.617      859.164
05/15/2013  14:36:00     -596.649     -319.158      -23.655      309.150      268.049      129.677    95573.461    71850.513    16816.025       32.130        9.212      676.648      149.195        0.049      345.185       22.532      859.182
05/15/2013  14:37:00     -477.526     -339.527      -11.958      364.293      231.945      141.863   132709.546    53798.707    20125.145       27.501       10.332      585.926      179.805        0.094      345.217       22.586      859.171
05/15/2013  14:38:00     -317.613      -95.748      -11.376      185.846      130.436       71.584    34538.651    17013.451     5124.280        8.342        2.834      331.731       79.741        0.058      345.402       22.903      859.184
05/15/2013  14:39:00     -318.354     -210.038        4.261      212.333      199.977      113.170    45085.149    39990.602    12807.496       12.167        4.894      381.399      135.670        0.127      345.620       23.277      859.194
05/15/2013  14:40:00     -482.820     -311.856      -11.166      281.444      233.825      128.135    79210.603    54674.196    16418.485       24.037        7.515      574.778      132.924        0.053      345.487       23.049      859.161
05/15/2013  14:41:00     -559.566     -362.077       -6.957      294.627      237.141      130.240    86805.280    56235.997    16962.454       30.211        8.000      666.494      149.425        0.050      345.279       22.693      859.162
05/15/2013  14:42:00     -437.089     -288.118      -27.838      209.403      230.620       99.722    43849.418    53185.483     9944.542       19.089        5.349      523.506       97.882        0.035      345.400       22.899      859.177
05/15/2013  14:43:00     -461.880     -246.413        5.831      343.761      224.042      122.557   118171.442    50194.607    15020.240       22.871        9.169      523.500      141.093        0.073      345.404       22.906      859.159
05/15/2013  14:44:00     -643.294     -527.855      -18.388      282.537      233.622      146.600    79827.144    54579.187    21491.611       42.432        7.795      832.140      167.473        0.041      345.308       22.741      859.115
05/15/2013  14:45:00     -695.647     -482.813       -3.002      337.447      290.949      154.079   113870.504    84651.344    23740.406       46.962       11.113      846.778      177.423        0.044      345.122       22.424      859.134
05/15/2013  14:46:00     -564.590     -292.417      -13.194      326.731      280.745      136.296   106753.283    78817.610    18576.683       30.426       10.207      635.822      161.782        0.065      345.209       22.573      859.205
05/15/2013  14:47:00     -540.345     -278.989      -17.867      264.993      237.794      125.129    70221.066    56545.855    15657.238       25.625        7.121      608.118      130.720        0.046      345.221       22.593      859.202
05/15/2013  14:48:00     -411.022     -210.759       -1.478      220.787      179.975       89.443    48746.714    32390.899     8000.086       15.123        4.457      461.907       97.873        0.045      345.305       22.738      859.169
05/15/2013  14:49:00     -323.613     -205.902       -2.399      168.870      225.399      100.408    28517.021    50804.910    10081.704       11.825        4.470      383.563      100.247        0.068      345.511       23.088      859.216
05/15/2013  14:50:00     -307.215     -254.229       -2.782      216.562      155.183       98.860    46899.037    24081.737     9773.292       11.987        4.038      398.765      103.313        0.067      345.521       23.106      859.190
05/15/2013  14:51:00     -367.735     -286.976        5.088      271.359      236.971       98.478    73635.507    56155.365     9698.004       17.853        6.974      466.459      123.775        0.070      345.457       22.997      859.174
05/15/2013  14:52:00     -507.163     -286.648      -10.793      287.193      189.194      118.167    82479.995    35794.263    13963.481       23.585        6.612      582.565      121.707        0.044      345.337       22.792      859.134
05/15/2013  14:53:00     -560.087     -255.372      -32.133      241.556      228.396      117.219    58349.452    52164.778    13740.274       25.208        6.213      615.559      120.371        0.038      345.366       22.841      859.120
05/15/2013  14:54:00     -556.881     -413.661      -28.999      230.173      264.548      119.485    52979.647    69985.805    14276.609       30.963        6.862      693.709      125.960        0.033      345.321       22.764      859.117
05/15/2013  14:55:00     -495.315     -201.468        4.123      277.101      222.031      116.332    76785.209    49297.558    13533.092       21.276        6.981      534.721      127.613        0.057      345.412       22.921      859.131
05/15/2013  14:56:00     -301.802     -138.764       10.142      189.225      184.271       99.123    35805.988    33955.734     9825.336        9.500        3.979      332.174       85.560        0.066      345.480       23.037      859.112
05/15/2013  14:57:00     -488.348     -366.652       -3.879      321.249      261.324      138.200   103201.225    68290.326    19099.305       28.173        9.530      610.669      162.705        0.071      345.482       23.039      859.118
05/15/2013  14:58:00     -647.167     -516.372      -18.450      338.344      245.329      159.359   114476.621    60186.211    25395.416       44.290       10.003      827.928      175.251        0.045      345.119       22.419      859.063
05/15/2013  14:59:00     -485.229     -381.054        7.270      258.030      245.584      119.196    66579.237    60311.585    14207.783       26.088        7.055      616.968      126.749        0.042      345.243       22.631      859.106
05/15/2013  15:00:00     -535.614     -345.131      -21.228      258.774      246.635      117.074    66963.922    60828.725    13706.236       27.395        7.075      637.180      125.682        0.039      345.245       22.634      859.062
05/15/2013  15:01:00     -528.481     -341.117      -26.074      279.158      219.285      106.570    77929.036    48085.927    11357.114       26.683        6.869      629.009      136.138        0.047      345.367       22.843      859.055
05/15/2013  15:02:00     -322.808     -245.260       -2.555      153.627      145.982       84.595    23601.232    21310.811     7156.294       10.821        2.603      405.410       88.609        0.048      345.573       23.196      859.097
05/15/2013  15:03:00     -447.073     -325.140      -20.581      227.954      163.135       90.704    51963.231    26613.141     8227.193       19.639        4.340      552.802       81.682        0.022      345.580       23.208      859.100
05/15/2013  15:04:00     -299.209     -187.965       -0.488      257.809      182.053      111.789    66465.417    33143.282    12496.858       11.846        5.605      353.351      125.109        0.125      345.683       23.386      859.053
05/15/2013  15:05:00     -307.369     -137.680        8.980      208.017      195.686       94.398    43271.034    38292.970     8911.025       10.198        4.524      336.795      103.688        0.095      345.618       23.275      859.056
05/15/2013  15:06:00     -200.643     -144.260        6.615      152.267      130.716       76.072    23185.330    17086.799     5786.929        5.358        2.303      247.121       69.542        0.079      345.697       23.410      859.039
05/15/2013  15:07:00     -363.788     -197.120      -10.765      176.971      150.781       74.490    31318.806    22734.796     5548.797       11.545        2.980      413.761       66.012        0.025      345.642       23.315      859.041
05/15/2013  15:08:00     -410.673     -300.991       -8.707      308.570      289.763      124.815    95215.715    83962.540    15578.793       22.701        9.738      509.163      148.649        0.085      345.538       23.136      859.054
05/15/2013  15:09:00     -391.539     -302.642       -9.314      240.274      177.435      114.326    57731.804    31483.302    13070.513       17.362        5.114      494.869      121.123        0.060      345.455       22.994      859.043
05/15/2013  15:10:00     -402.765     -241.321      -12.071      267.612      201.973       86.650    71616.001    40792.926     7508.195       17.024        5.996      469.527      101.359        0.047      345.442       22.971      859.025
05/15/2013  15:11:00     -270.852     -184.854       -5.193      149.819      192.343       80.674    22445.826    36996.018     6508.275        8.674        3.298      327.920       85.207        0.068      345.628       23.290      859.009
05/15/2013  15:12:00     -523.775     -217.137      -31.123      272.839      232.494       88.158    74441.044    54053.251     7771.757       22.934        6.813      567.000      107.129        0.036      345.501       23.073      859.011
05/15/2013  15:13:00     -490.387     -313.320      -19.535      231.946      207.692      100.267    53799.142    43136.096    10053.536       22.299        5.349      581.936      103.813        0.032      345.325       22.771      859.016
05/15/2013  15:14:00     -548.317     -413.435      -18.285      261.832      204.167      128.806    68556.027    41684.025    16591.064       29.935        6.342      686.717      148.639        0.047      345.204       22.564      859.011
05/15/2013  15:15:00     -584.336     -414.050      -29.857      303.361      248.250      130.411    92028.015    61628.043    17007.073       34.219        8.533      716.161      165.607        0.053      345.242       22.629      859.003
05/15/2013  15:16:00     -501.469     -265.623      -33.005      260.845      228.077      113.195    68040.372    52019.293    12813.010       22.797        6.644      567.474      124.517        0.048      345.198       22.552      858.994
05/15/2013  15:17:00     -526.553     -279.190      -15.567      266.716      212.852      102.741    71137.487    45305.963    10555.653       24.120        6.350      595.991      127.097        0.045      345.181       22.525      858.973
05/15/2013  15:18:00     -582.331     -455.691      -46.881      340.039      220.622      119.230   115626.485    48674.098    14215.712       36.371        8.926      739.435      151.995        0.042      345.184       22.529      858.968
05/15/2013  15:19:00     -498.362     -384.961        4.756      301.923      227.445      126.202    91157.530    51731.369    15926.948       27.767        7.941      629.730      160.872        0.065      345.186       22.531      858.994
05/15/2013  15:20:00     -399.536     -184.464      -10.458      237.416      189.984       99.175    56366.322    36094.048     9835.756       14.801        5.115      440.064      107.196        0.059      345.320       22.763      858.988
05/15/2013  15:21:00     -253.209     -228.587       13.498      276.015      236.440      108.721    76184.094    55903.640    11820.349       13.020        7.195      341.125      147.448        0.187      345.351       22.816      858.993
05/15/2013  15:22:00     -484.738     -344.457      -22.835      243.535      211.132       97.800    59309.183    44576.545     9564.838       23.378        5.673      594.661      102.192        0.030      345.244       22.633      858.980
05/15/2013  15:23:00     -431.173     -385.685       -1.525      233.532      191.255      114.972    54537.396    36578.392    13218.552       21.948        5.217      578.501      133.338        0.053      345.192       22.542      858.963
05/15/2013  15:24:00     -476.380     -305.019       15.671      347.202      224.834      120.503   120549.267    50550.341    14520.915       25.289        9.281      565.663      140.788        0.062      345.287       22.706      858.974
05/15/2013  15:25:00     -377.924     -397.913      -24.196      301.381      216.549      102.499    90830.776    46893.565    10505.957       22.496        7.412      548.782      109.272        0.040      345.252       22.645      858.990
05/15/2013  15:26:00     -382.769     -144.978       -0.522      279.894      143.375       93.730    78340.904    20556.531     8785.221       13.759        5.384      409.305      110.272        0.073      345.399       22.898      859.014
05/15/2013  15:27:00     -411.565     -265.866        4.523      252.462      177.140       97.239    63737.211    31378.710     9455.423       17.231        5.229      489.970       95.761        0.038      345.367       22.842      859.022
05/15/2013  15:28:00     -498.664     -276.081       11.480      251.067      227.930      123.970    63034.795    51952.013    15368.439       22.767        6.518      569.988      136.027        0.057      345.261       22.660      859.018
05/15/2013  15:29:00     -247.893     -392.820       13.681      265.977      263.897      110.830    70743.874    69641.471    12283.220       18.428        7.633      464.499      111.352        0.057      345.333       22.785      859.004
05/15/2013  15:30:00     -609.060     -406.337      -11.525      334.628      285.738      134.769   111975.651    81646.312    18162.747       37.396       10.589      732.164      165.366        0.051      345.227       22.604      859.026
05/15/2013  15:31:00     -555.106     -409.096        6.283      244.998      181.571      115.158    60024.257    32968.045    13261.351       29.088        5.313      689.567      116.905        0.029      345.257       22.653      859.010
05/15/2013  15:32:00     -561.686     -413.018      -15.373      251.835      200.303      119.780    63420.865    40121.393    14347.326       30.208        5.894      697.191      130.898        0.035      345.263       22.665      859.055
05/15/2013  15:33:00     -556.365     -435.542       -3.826      284.727      194.469      135.869    81069.261    37818.048    18460.442       31.828        6.867      706.568      143.613        0.041      345.156       22.482      859.033
05/15/2013  15:34:00     -617.530     -397.301      -22.879      233.381      233.593      126.028    54466.549    54565.510    15883.085       33.229        6.246      734.296      134.663        0.034      345.164       22.494      859.034
05/15/2013  15:35:00     -279.753     -230.945       -5.888      198.775      161.755       80.846    39511.374    26164.789     6536.132       10.191        3.611      362.764       89.459        0.061      345.366       22.840      859.081
05/15/2013  15:36:00     -312.890     -272.223       -0.983      194.835      181.779      100.834    37960.572    33043.726    10167.513       12.658        4.059      414.736      104.519        0.064      345.358       22.829      859.087
05/15/2013  15:37:00     -422.565     -278.135      -28.342      197.026      198.043       86.422    38819.094    39220.900     7468.710       17.110        4.275      505.886      110.760        0.048      345.336       22.791      859.058
05/15/2013  15:38:00     -314.496     -365.858      -14.974      171.822      216.591       88.533    29522.939    46911.850     7838.068       15.861        4.214      482.452       97.002        0.040      345.393       22.888      859.062
05/15/2013  15:39:00     -526.092      -99.754       -2.570      294.675      195.576      110.946    86833.159    38249.939    12308.955       21.204        6.870      535.466      136.209        0.065      345.392       22.885      859.081
05/15/2013  15:40:00     -466.809     -188.667      -36.886      235.836      156.532      104.874    55618.453    24502.162    10998.531       17.298        4.556      503.494      102.393        0.041      345.258       22.656      859.076
05/15/2013  15:41:00     -218.775      -99.093       13.102      191.808      124.475       81.465    36790.143    15493.978     6636.493        5.838        2.946      240.171       75.063        0.098      345.425       22.944      859.043
05/15/2013  15:42:00     -625.766     -434.967        5.609      306.618      210.889      113.937    94014.417    44473.961    12981.633       36.611        7.574      762.089      125.885        0.027      345.081       22.353      859.072
05/15/2013  15:43:00     -435.555     -268.463       -9.473      250.278      192.237      120.469    62639.106    36955.228    14512.862       18.797        5.705      511.645      129.215        0.064      345.117       22.416      859.075
05/15/2013  15:44:00     -333.015     -260.941        3.093      185.401      177.368       90.869    34373.422    31459.338     8257.116       12.653        3.704      423.071       82.540        0.038      345.187       22.534      859.086
05/15/2013  15:45:00     -151.927      -88.071       -9.604      104.347       86.658       54.809    10888.288     7509.589     3004.001        2.616        1.070      175.609       38.033        0.047      345.313       22.753      859.065
05/15/2013  15:46:00     -301.736     -262.090        9.066      228.470      220.839       95.858    52198.454    48769.823     9188.701       13.497        5.508      399.670      107.889        0.073      345.383       22.873      859.082
05/15/2013  15:47:00     -520.027     -310.635       -6.372      260.230      165.356      104.129    67719.497    27342.475    10842.930       23.642        5.295      605.741      113.643        0.035      345.272       22.679      859.075
05/15/2013  15:48:00     -320.774     -257.689      -15.469      183.375      199.419       79.313    33626.409    39767.933     6290.516       12.460        3.984      411.461       75.254        0.033      345.329       22.777      859.074
05/15/2013  15:49:00     -491.276     -351.864      -29.900      260.304      247.629      119.749    67757.965    61320.226    14339.793       25.471        7.171      604.285      117.075        0.038      345.189       22.540      859.060
05/15/2013  15:50:00     -356.036     -230.873      -12.520      232.594      183.465       98.519    54099.836    33659.269     9705.946       13.883        4.873      424.340      118.815        0.078      345.184       22.529      859.062
05/15/2013  15:51:00     -225.077      -69.664       -2.908      178.717      132.783       67.044    31939.602    17631.235     4494.890        5.478        2.703      235.612       79.953        0.115      345.470       23.019      859.061
05/15/2013  15:52:00     -221.958     -120.097        0.321      157.295      120.994       67.479    24741.641    14639.596     4553.359        5.380        2.197      252.366       83.464        0.109      345.565       23.183      859.068
05/15/2013  15:53:00     -226.478     -229.891       24.859      215.514      199.106      103.603    46446.376    39643.000    10733.632       10.078        4.841      322.710      119.288        0.137      345.382       22.870      859.042
05/15/2013  15:54:00     -264.282     -158.935        4.629      227.086      150.261       82.644    51568.062    22578.317     6830.045        8.804        4.049      308.391      101.592        0.109      345.373       22.855      859.000
05/15/2013  15:55:00     -177.826     -168.333        4.800      134.494      114.058       59.617    18088.703    13009.256     3554.184        4.731        1.733      244.864       69.988        0.082      345.419       22.932      859.044
05/15/2013  15:56:00     -273.390     -187.152       -0.624      205.850      154.831       69.036    42374.293    23972.786     4766.017        9.043        3.556      331.313      100.529        0.092      345.517       23.101      859.050
05/15/2013  15:57:00     -270.783     -163.169       11.649      212.322      167.089       87.482    45080.839    27918.570     7653.096        9.035        4.033      316.145      106.626        0.114      345.503       23.077      859.061
05/15/2013  15:58:00     -417.356     -267.972       -4.548      215.890      156.708      105.431    46608.336    24557.376    11115.758       16.413        4.114      495.979      118.794        0.057      345.306       22.737      859.040
05/15/2013  15:59:00     -243.086     -216.772      -11.353      168.200      132.357       85.479    28291.404    17518.382     7306.670        7.965        2.656      325.700       91.639        0.079      345.343       22.802      859.079
05/15/2013  16:00:00     -262.831     -115.877        9.085      160.764      170.286       88.992    25844.954    28997.475     7919.546        7.267        3.138      287.242       75.115        0.068      345.271       22.679      859.102
05/15/2013  16:01:00     -435.284     -236.113        2.322      221.555      200.470      111.834    49086.735    40188.039    12506.944       17.349        5.089      495.199      117.187        0.056      345.261       22.661      859.086
05/15/2013  16:02:00     -334.528     -162.017       13.113      191.206      119.407       79.452    36559.576    14257.921     6312.590        9.772        2.857      371.697       85.158        0.052      345.326       22.774      859.070
05/15/2013  16:03:00     -184.682     -138.296        7.523      156.369      189.903       61.917    24451.217    36063.285     3833.707        5.881        3.217      230.723       71.906        0.097      345.465       23.014      859.086
05/15/2013  16:04:00     -201.870     -294.181       15.190      177.484      134.327       68.814    31500.599    18043.619     4735.314        9.089        2.714      356.783       76.499        0.046      345.231       22.610      859.080
05/15/2013  16:05:00     -259.291     -197.894       -7.956      161.932      138.287       65.069    26221.939    19123.327     4233.961        7.801        2.479      326.181       63.660        0.038      345.422       22.938      859.084
05/15/2013  16:06:00     -404.600     -286.650        1.729      230.592      183.679      100.077    53172.599    33738.061    10015.461       17.138        4.846      495.852      104.049        0.044      345.285       22.702      859.026
05/15/2013  16:07:00     -327.567     -245.874        0.554      236.827      180.253       92.030    56086.815    32490.969     8469.480       13.238        4.852      409.578      102.016        0.062      345.447       22.981      859.046
05/15/2013  16:08:00     -366.574     -172.425        2.832      204.697      208.726      102.101    41901.042    43566.460    10424.625       12.999        4.795      405.101      118.004        0.085      345.302       22.732      859.071
05/15/2013  16:09:00     -260.905     -306.338      -10.786      209.727      222.724       83.050    43985.467    49605.866     6897.259       13.124        5.024      402.387       95.827        0.057      345.046       22.294      859.111
05/15/2013  16:10:00     -280.584     -334.645      -12.841      260.366      221.753       74.529    67790.262    49174.511     5554.632       15.668        6.126      436.709       96.455        0.049      345.180       22.522      859.116
05/15/2013  16:11:00     -293.627     -358.087        9.061      272.515      203.702      110.194    74264.207    41494.546    12142.661       17.119        6.395      463.080      116.422        0.063      345.136       22.447      859.111
05/15/2013  16:12:00     -199.148     -248.226        5.078      137.688      181.062       81.333    18958.064    32783.566     6614.978        7.982        2.918      318.239       82.669        0.067      345.226       22.601      859.093
05/15/2013  16:13:00     -293.511     -360.260      -13.749      193.444      167.673       93.790    37420.599    28114.150     8796.583       14.522        3.717      464.689       94.076        0.041      345.157       22.485      859.116
05/15/2013  16:14:00     -230.518     -190.633       13.282      221.617      112.311       79.601    49113.954    12613.771     6336.246        7.885        3.403      299.131       77.354        0.067      345.399       22.897      859.100
05/15/2013  16:15:00     -349.414     -243.210       11.342      199.664      173.471       95.796    39865.785    30092.030     9176.827       13.024        3.957      425.724       90.659        0.045      345.143       22.459      859.129
05/15/2013  16:16:00     -221.227     -231.950       16.973      161.063      143.706       83.531    25941.333    20651.481     6977.348        7.829        2.679      320.535       78.768        0.060      345.279       22.692      859.123
05/15/2013  16:17:00     -219.467     -250.648       16.525      174.028      162.159       84.776    30285.907    26295.639     7187.014        8.751        3.188      333.152       82.401        0.061      345.311       22.747      859.146
05/15/2013  16:18:00     -331.316     -118.399       -5.236      171.479      140.531       82.146    29405.131    19748.866     6747.905        8.985        2.795      351.837       75.014        0.045      345.262       22.663      859.135
05/15/2013  16:19:00     -250.634     -282.794       -4.792      178.840      154.813       94.935    31983.914    23967.195     9012.672       10.388        3.248      377.875      113.387        0.090      345.301       22.730      859.146
05/15/2013  16:20:00     -355.960     -106.761       -3.257      194.577      177.591       84.421    37860.093    31538.512     7126.925       10.731        3.826      371.625       97.505        0.069      345.309       22.744      859.123
05/15/2013  16:21:00     -501.861     -402.047      -14.725      221.890      193.618      107.714    49235.304    37488.037    11602.230       25.601        4.916      643.044       96.987        0.023      345.153       22.476      859.119
05/15/2013  16:22:00     -406.921     -303.922       -4.488      225.573      206.535      108.425    50883.295    42656.556    11755.939       18.162        5.265      507.891      109.252        0.046      345.087       22.363      859.165
05/15/2013  16:23:00     -311.864     -261.470      -13.112      177.864      160.848       72.163    31635.524    25871.927     5207.478       11.425        3.136      406.972       61.265        0.023      345.199       22.556      859.161
05/15/2013  16:24:00     -234.984     -222.473      -10.781      121.568      137.195       79.547    14778.871    18822.429     6327.742        7.237        1.996      323.592       55.982        0.030      345.311       22.748      859.159
05/15/2013  16:25:00     -350.662     -221.983      -15.320      198.372      156.594       84.767    39351.399    24521.696     7185.387       12.175        3.553      415.018       77.946        0.035      345.251       22.644      859.170
05/15/2013  16:26:00     -385.794     -324.500      -20.227      184.363      170.520       98.034    33989.533    29077.226     9610.609       16.360        3.634      504.120      111.019        0.048      345.163       22.494      859.138
05/15/2013  16:27:00     -388.901     -319.170       -1.060      227.379      219.865      110.334    51701.012    48340.407    12173.626       18.265        5.611      503.104      111.087        0.049      345.225       22.601      859.152
05/15/2013  16:28:00     -342.137     -278.146       13.472      248.535      172.893       89.458    61769.678    29892.082     8002.795       14.712        4.983      440.935       88.264        0.040      345.169       22.504      859.191
05/15/2013  16:29:00     -261.730     -264.529        7.468      186.202      169.966       89.370    34671.357    28888.314     7986.909       10.503        3.577      372.126       97.939        0.069      345.229       22.606      859.207
05/15/2013  16:30:00     -220.308     -187.774       -0.247      158.544      119.804       73.634    25136.157    14353.043     5421.915        6.435        2.246      289.474       77.399        0.071      345.286       22.705      859.176
05/15/2013  16:31:00     -244.238     -276.617       13.795      181.204      153.248       70.009    32834.797    23485.085     4901.242        9.878        3.061      369.011       82.938        0.051      345.154       22.480      859.178
05/15/2013  16:32:00     -263.446     -110.751        6.733      155.367      128.708       80.113    24138.951    16565.876     6418.062        6.441        2.356      285.779       95.029        0.111      345.096       22.378      859.144
05/15/2013  16:33:00     -333.360     -193.272       -5.329      185.714      163.154       89.340    34489.560    26619.158     7981.702       10.879        3.455      385.335       83.274        0.047      345.176       22.516      859.144
05/15/2013  16:34:00     -263.923     -197.898       22.417      201.486      159.607       84.557    40596.590    25474.477     7149.953        9.126        3.661      329.877      101.656        0.095      345.468       23.017      859.161
05/15/2013  16:35:00     -194.410     -206.665       -4.846      129.898      111.593       64.095    16873.575    12453.081     4108.142        5.698        1.672      283.735       70.972        0.063      345.423       22.939      859.156
05/15/2013  16:36:00     -340.901     -288.766      -17.800      155.249      150.998       76.971    24102.163    22800.296     5924.480       12.636        2.641      446.765       71.688        0.026      345.401       22.901      859.182
05/15/2013  16:37:00     -420.121     -295.424       -4.867      211.280      147.726      100.711    44639.377    21822.843    10142.801       17.019        3.830      513.592      109.130        0.045      345.085       22.361      859.160
05/15/2013  16:38:00     -460.579     -315.225      -21.673      175.189      143.326       87.751    30691.067    20542.480     7700.156       18.544        2.947      558.122       91.365        0.027      345.104       22.392      859.173
05/15/2013  16:39:00     -262.058     -198.108      -11.040      146.511      146.735       67.519    21465.389    21531.241     4558.786        7.779        2.378      328.513       72.057        0.048      345.261       22.662      859.156
05/15/2013  16:40:00      -91.676      -45.966       22.915      133.280      107.311       82.329    17763.639    11515.608     6778.119        2.354        1.803      102.554       78.300        0.583      345.673       23.369      859.165
05/15/2013  16:41:00     -498.299      -89.727      -16.093      228.537      156.653       89.579    52229.023    24540.087     8024.336       17.069        4.240      506.313       98.061        0.038      345.317       22.757      859.127
05/15/2013  16:42:00     -374.366      -39.071        2.329      228.805      124.838       82.919    52351.775    15584.459     6875.563       10.823        3.741      376.399       96.893        0.066      345.491       23.056      859.112
05/15/2013  16:43:00     -313.354      -79.100       -6.181      139.888      103.508       64.859    19568.627    10713.951     4206.678        6.948        1.724      323.183       70.600        0.048      345.516       23.098      859.158
05/15/2013  16:44:00     -149.310     -104.005        1.789      120.936      103.593       51.896    14625.599    10731.500     2693.215        3.058        1.403      181.963       46.562        0.065      345.797       23.584      859.171
05/15/2013  16:45:00     -245.732     -208.406       24.310      212.105      184.060       96.223    44988.466    33878.203     9258.928        9.625        4.406      322.206      116.890        0.132      345.494       23.063      859.177
05/15/2013  16:46:00     -563.543     -462.509      -16.712      257.270      164.245      112.244    66187.883    26976.507    12598.701       31.875        5.288      729.037      124.806        0.029      344.910       22.059      859.172
05/15/2013  16:47:00     -417.567     -298.383       -8.963      196.852      185.239       80.307    38750.779    34313.501     6449.191       17.148        3.976      513.220       96.792        0.036      345.030       22.266      859.161
05/15/2013  16:48:00     -346.665     -345.597       -5.866      214.943      168.172       97.581    46200.673    28281.893     9522.057       16.181        4.200      489.504       92.609        0.036      345.026       22.260      859.146
05/15/2013  16:49:00     -386.381     -104.279        9.483      188.630      178.625       94.123    35581.268    31906.847     8859.046       11.829        3.817      400.205      108.736        0.074      345.289       22.709      859.157
05/15/2013  16:50:00     -471.776     -238.428       -4.470      217.920      166.221       95.815    47489.217    27629.465     9180.551       18.186        4.215      528.603       97.374        0.034      345.215       22.584      859.179
05/15/2013  16:51:00     -357.328     -166.569        5.553      265.797      191.135      108.736    70648.106    36532.636    11823.621       13.721        5.950      394.245      143.073        0.132      345.155       22.481      859.192
05/15/2013  16:52:00     -387.726     -192.530      -10.611      213.852      195.283      110.608    45732.798    38135.436    12234.102       14.179        4.805      432.896      120.252        0.077      345.041       22.285      859.180
05/15/2013  16:53:00     -274.749     -129.243      -10.478      107.500      144.322       60.818    11556.266    20828.968     3698.815        6.419        1.804      303.630       50.476        0.028      345.108       22.399      859.181
05/15/2013  16:54:00     -186.545      -50.031        6.252      157.324      134.093       67.634    24750.930    17980.998     4574.417        4.232        2.365      193.138       74.257        0.148      345.444       22.976      859.183
05/15/2013  16:55:00     -166.829      -82.713       11.486      186.703      110.974       78.069    34857.948    12315.232     6094.720        4.403        2.663      186.208      100.562        0.292      345.467       23.016      859.192
05/15/2013  16:56:00     -430.653     -270.415       -2.324      194.638      163.961      106.005    37883.837    26883.094    11237.158       16.729        3.800      508.514      110.993        0.048      345.205       22.565      859.188
05/15/2013  16:57:00     -534.939     -280.610       -2.568      232.400      207.478      108.774    54009.795    43047.220    11831.813       23.688        5.444      604.071      114.131        0.036      345.019       22.247      859.181
05/15/2013  16:58:00     -482.055     -247.033        8.556      246.520      213.475      121.226    60772.140    45571.520    14695.752       20.724        6.052      541.666      131.791        0.059      344.845       21.949      859.208
05/15/2013  16:59:00     -334.523     -175.949      -12.681      166.101      152.968       86.677    27589.557    23399.266     7512.971       10.075        2.925      377.973       79.783        0.045      344.936       22.104      859.213
05/15/2013  17:00:00     -367.722     -411.879      -14.027      187.572      218.363       85.748    35183.266    47682.421     7352.640       19.762        4.511      552.145       83.808        0.023      344.935       22.103      859.219
05/15/2013  17:01:00     -311.770     -339.196       -6.111      195.159      203.333       89.301    38086.857    41344.235     7974.706       14.983        4.370      460.711       85.463        0.034      345.036       22.275      859.191
05/15/2013  17:02:00     -262.970     -194.911       13.266      183.609      138.717       84.688    33712.170    19242.423     7172.093        8.371        3.006      327.328       88.329        0.073      345.223       22.595      859.203
05/15/2013  17:03:00     -382.656     -266.820       -2.749      214.342      187.926      105.991    45942.403    35316.177    11234.171       15.504        4.625      466.496       92.850        0.040      344.986       22.191      859.153
05/15/2013  17:04:00     -173.482     -195.196        8.073      127.031      141.545       70.408    16136.941    20035.100     4957.254        5.469        2.056      261.146       62.102        0.057      345.198       22.553      859.179
05/15/2013  17:05:00     -291.052     -261.820       10.527      231.885      168.856       82.037    53770.864    28512.502     6730.128       12.118        4.451      391.486      102.012        0.068      345.086       22.362      859.179
05/15/2013  17:06:00     -234.089     -118.612        3.122      110.338       91.583       64.781    12174.579     8387.365     4196.525        4.681        1.238      262.425       52.875        0.041      345.150       22.471      859.163
05/15/2013  17:07:00     -338.324     -157.625       11.405      266.199      176.880       84.349    70861.678    31286.510     7114.690       12.433        5.463      373.241       99.104        0.071      345.150       22.472      859.173
05/15/2013  17:08:00     -417.190     -298.428       -2.506      254.334      192.308      116.821    64685.727    36982.353    13647.112       18.919        5.766      512.939      142.277        0.077      344.847       21.952      859.203
05/15/2013  17:09:00     -615.105     -271.599      -31.938      213.595      200.391      112.155    45622.717    40156.446    12578.659       27.573        4.918      672.399      110.021        0.027      344.827       21.918      859.178
05/15/2013  17:10:00     -384.762     -106.491       16.928      230.615      154.364       92.763    53183.082    23828.263     8605.001       12.263        4.281      399.227       97.822        0.060      345.111       22.405      859.213
05/15/2013  17:11:00     -335.216     -195.667       -6.606      180.501      214.615       88.979    32580.623    46059.703     7917.269       11.861        4.328      388.143       91.488        0.056      345.087       22.362      859.245
05/15/2013  17:12:00     -340.437     -230.360      -17.952      266.366      283.968      130.614    70950.801    80638.039    17060.011       16.894        8.432      411.051      137.544        0.112      345.162       22.493      859.240
05/15/2013  17:13:00     -349.216     -202.326       -1.979      245.559      184.704       97.574    60299.042    34115.705     9520.693       13.340        5.197      403.594      115.677        0.082      344.864       21.983      859.242
05/15/2013  17:14:00     -527.218     -381.144       -8.469      280.237      188.386      114.343    78532.965    35489.128    13074.348       27.518        6.355      650.561      133.437        0.042      344.710       21.718      859.249
05/15/2013  17:15:00     -552.223     -260.029      -16.266      267.534      202.542      117.053    71574.195    41023.171    13701.381       24.954        6.315      610.381      130.031        0.045      344.617       21.560      859.232
05/15/2013  17:16:00     -295.136     -265.200        4.861      233.149      225.590       92.463    54358.257    50890.749     8549.459       13.561        5.690      396.782      108.061        0.074      344.846       21.952      859.257
05/15/2013  17:17:00     -443.324     -331.605      -15.957      265.226      170.689      118.442    70345.069    29134.610    14028.583       21.011        5.675      553.622      135.923        0.060      344.846       21.951      859.217
05/15/2013  17:18:00     -262.731     -129.695       -1.063      115.729      149.985       68.556    13393.235    22495.353     4699.903        6.321        2.029      292.998       60.385        0.042      344.918       22.075      859.235
05/15/2013  17:19:00     -482.626      -98.984      -15.044      316.123      181.147      109.485    99933.574    32814.228    11986.900       19.382        7.237      492.672      133.969        0.074      344.978       22.177      859.243
05/15/2013  17:20:00     -374.538     -130.069       -6.415      260.036      151.186       85.959    67618.634    22857.180     7389.032       12.754        4.893      396.481      110.737        0.078      344.894       22.035      859.238
05/15/2013  17:21:00     -329.427      -56.217       16.634      269.036      176.276       98.846    72380.560    31073.212     9770.529       11.257        5.661      334.189      125.493        0.141      344.979       22.178      859.248
05/15/2013  17:22:00     -274.537     -201.513        2.161      218.284      165.494      105.257    47648.108    27388.268    11079.090       10.103        4.306      340.556      106.864        0.098      345.000       22.215      859.246
05/15/2013  17:23:00     -396.588     -223.195        7.148      285.476      214.259      112.579    81496.488    45906.852    12674.029       17.359        7.004      455.080      145.046        0.102      344.968       22.160      859.258
05/15/2013  17:24:00     -333.547     -251.644       -7.297      160.275      165.328       87.462    25688.099    27333.504     7649.681       11.764        3.034      417.826       86.404        0.043      344.825       21.914      859.294
05/15/2013  17:25:00     -264.954     -256.439       16.131      275.699      202.541       92.706    76010.060    41022.952     8594.486       13.090        6.281      368.729      120.011        0.106      344.834       21.932      859.258
05/15/2013  17:26:00     -333.016     -145.953       -8.853      226.420      136.446       72.291    51266.014    18617.431     5226.007       10.368        3.755      363.596      100.451        0.076      344.815       21.899      859.247
05/15/2013  17:27:00     -380.570      -85.491       -6.035      161.240      144.251       83.097    25998.338    20808.411     6905.082       10.294        2.686      390.054       88.502        0.051      344.922       22.082      859.252
05/15/2013  17:28:00     -224.546     -161.309        4.164      170.562      148.159       74.224    29091.450    21950.982     5509.168        6.650        2.828      276.480       90.808        0.108      344.835       21.931      859.255
05/15/2013  17:29:00     -296.008     -210.633       -7.275      173.605      125.624       88.661    30138.702    15781.395     7860.797        9.290        2.689      363.300       81.644        0.051      344.889       22.024      859.231
05/15/2013  17:30:00     -403.671     -224.824      -14.349      243.239      174.525      102.684    59165.340    30459.029    10544.099       15.692        5.008      462.056      107.378        0.054      344.743       21.775      859.254
05/15/2013  17:31:00     -416.509     -199.359        0.447      207.809      195.991      100.243    43184.555    38412.450    10048.654       15.242        4.582      461.762      100.188        0.047      344.807       21.883      859.238
05/15/2013  17:32:00     -430.889      -88.728      -12.923      190.912      126.223       76.797    36447.378    15932.143     5897.782       12.598        2.914      439.930       88.488        0.040      344.846       21.951      859.228
05/15/2013  17:33:00     -322.932     -248.278        0.973      196.330      140.841       89.427    38545.293    19836.093     7997.202       11.614        3.319      407.341      105.369        0.067      344.904       22.051      859.264
05/15/2013  17:34:00     -448.197     -279.186      -10.041      216.573      213.390      120.207    46903.744    45535.449    14449.692       19.289        5.344      528.039      127.387        0.058      344.664       21.639      859.241
05/15/2013  17:35:00     -367.417     -186.344        3.231      222.903      154.335      103.004    49685.925    23819.443    10609.759       12.691        4.206      411.970      105.303        0.065      344.673       21.656      859.237
05/15/2013  17:36:00     -558.812     -198.181        2.130      242.965      180.164      108.087    59032.157    32458.932    11682.695       22.735        5.159      592.914      114.913        0.038      344.523       21.398      859.186
05/15/2013  17:37:00     -559.003     -178.567       -8.368      246.951      193.936      100.654    60984.552    37611.170    10131.191       22.657        5.436      586.831      110.943        0.036      344.633       21.587      859.196
05/15/2013  17:38:00     -377.091     -207.666       -7.685      192.541      168.760       99.468    37072.196    28480.002     9893.827       13.040        3.772      430.492       96.638        0.050      344.751       21.789      859.220
05/15/2013  17:39:00     -462.056     -220.229      -32.649      217.046      205.541      110.232    47108.770    42247.188    12151.136       18.227        5.075      511.856       97.814        0.037      344.620       21.565      859.224
05/15/2013  17:40:00     -489.654     -240.161      -18.266      260.253      193.002       97.084    67731.489    37249.877     9425.397       20.607        5.720      545.379      103.991        0.036      344.656       21.626      859.235
05/15/2013  17:41:00     -374.127     -135.555        4.157      269.471      179.905      122.494    72614.662    32365.887    15004.790       13.915        5.999      397.927      136.637        0.118      344.656       21.627      859.219
05/15/2013  17:42:00     -327.047     -228.739        7.809      238.652      162.988       99.547    56954.663    26565.083     9909.589       12.637        4.671      399.101      119.972        0.090      344.658       21.631      859.253
05/15/2013  17:43:00     -331.767     -286.479      -12.304      201.769      180.274       99.953    40710.919    32498.741     9990.692       13.773        4.160      438.338      109.424        0.062      344.677       21.663      859.230
05/15/2013  17:44:00     -449.520      -28.214      -14.913      227.247      206.709       84.313    51641.332    42728.622     7108.733       15.227        5.074      450.405       83.876        0.035      344.767       21.815      859.234
05/15/2013  17:45:00     -419.586     -136.168      -43.338      181.841      168.311       77.984    33066.225    28328.646     6081.517       13.196        3.374      441.129       63.335        0.021      344.584       21.503      859.186
05/15/2013  17:46:00     -493.742     -241.125      -11.891      206.056      188.670       99.403    42458.967    35596.503     9880.958       19.499        4.397      549.475      106.162        0.037      344.520       21.394      859.191
05/15/2013  17:47:00     -307.066      -61.443        6.608      183.481      141.208       87.427    33665.370    19939.718     7643.503        7.967        3.062      313.153       96.467        0.095      344.678       21.664      859.187
05/15/2013  17:48:00     -429.084     -194.696      -26.041      180.791      142.292       85.442    32685.382    20246.893     7300.356       14.146        3.012      471.190       93.751        0.040      344.553       21.450      859.163
05/15/2013  17:49:00     -248.017     -146.813       -7.246      170.030      111.713       74.067    28910.231    12479.756     5485.934        6.499        2.344      288.213       72.850        0.064      344.701       21.703      859.139
05/15/2013  17:50:00     -234.101     -155.852        4.941      184.406      140.126       73.738    34005.514    19635.157     5437.223        6.909        2.954      281.235       85.838        0.093      344.898       22.042      859.152
05/15/2013  17:51:00     -273.752      -61.382       -5.000      125.483      101.549       67.502    15746.104    10312.196     4556.492        5.467        1.531      280.549       64.729        0.053      344.958       22.143      859.174
05/15/2013  17:52:00     -429.451     -254.895        8.072      297.035      278.968      139.610    88229.900    77823.207    19490.817       21.747        9.277      499.399      159.641        0.102      344.617       21.560      859.141
05/15/2013  17:53:00     -463.531     -293.301        0.274      244.188      181.070      104.827    59627.780    32786.379    10988.703       20.213        5.170      548.531      115.329        0.044      344.591       21.513      859.159
05/15/2013  17:54:00     -554.010     -286.222      -14.133      229.752      155.581       91.805    52786.139    24205.592     8428.129       23.722        4.271      623.578       98.982        0.025      344.506       21.369      859.189
05/15/2013  17:55:00     -331.475     -142.568       -4.007      247.614      170.399       87.548    61312.707    29035.894     7664.603       11.410        4.901      360.835      114.266        0.100      344.653       21.622      859.158
05/15/2013  17:56:00     -320.714     -181.360        4.554      171.295      192.587       78.179    29342.041    37089.801     6111.952       10.414        3.627      368.441       87.977        0.057      344.770       21.822      859.158
05/15/2013  17:57:00     -346.253     -176.726       11.136      242.667      175.303       88.358    58887.224    30731.107     7807.179       12.432        4.871      388.746      110.973        0.081      344.755       21.795      859.158
05/15/2013  17:58:00     -323.586     -248.636       -1.187      197.690      178.588      106.446    39081.369    31893.764    11330.830       12.440        4.115      408.078      108.565        0.071      344.635       21.590      859.133
05/15/2013  17:59:00     -397.346     -234.916       16.112      245.153      211.482      106.792    60100.122    44724.474    11404.638       16.476        5.811      461.594      118.472        0.066      344.589       21.511      859.151
05/15/2013  18:00:00     -467.368     -299.985       -3.234      238.380      222.006      108.266    56825.204    49286.728    11721.605       21.311        5.892      555.359      108.245        0.038      344.494       21.349      859.132
05/15/2013  18:01:00     -418.398     -250.479      -10.889      234.807      170.892      113.256    55134.245    29204.187    12827.009       16.752        4.858      487.644      123.814        0.064      344.502       21.361      859.132
05/15/2013  18:02:00     -338.261     -305.028      -20.023      247.178      186.092       98.301    61096.892    34630.101     9663.035       15.661        5.270      455.481      111.808        0.060      344.558       21.459      859.128
05/15/2013  18:03:00     -460.994     -329.149       -3.414      251.515      209.490      103.155    63259.829    43886.253    10640.920       21.931        5.889      566.440      126.933        0.050      344.547       21.439      859.152
05/15/2013  18:04:00     -389.175     -193.066      -11.125      282.430      188.132      102.471    79766.933    35393.733    10500.398       15.724        6.283      434.432      126.650        0.085      344.497       21.354      859.143
05/15/2013  18:05:00     -342.195     -172.988      -10.275      170.333      128.924       75.049    29013.270    16621.280     5632.359        9.919        2.563      383.435       81.961        0.046      344.514       21.384      859.183
05/15/2013  18:06:00     -350.102     -255.347       -9.986      220.377      176.201       86.662    48566.069    31046.869     7510.346       13.748        4.356      433.328      102.124        0.056      344.491       21.345      859.171
05/15/2013  18:07:00     -451.133     -318.112       -7.141      273.612      224.908      103.361    74863.356    50583.590    10683.415       22.043        6.807      552.011      115.006        0.043      344.474       21.314      859.147
05/15/2013  18:08:00     -487.932     -343.413      -28.593      222.158      193.807       97.975    49354.236    37561.146     9599.189       22.666        4.826      596.666       88.679        0.022      344.304       21.024      859.134
05/15/2013  18:09:00     -551.997     -442.746      -27.581      243.209      171.400      115.255    59150.615    29377.958    13283.737       30.163        5.091      707.619      111.240        0.025      344.350       21.102      859.152
05/15/2013  18:10:00     -483.596     -360.182      -13.119      273.970      199.614      121.059    75059.624    39845.725    14655.188       24.664        6.478      602.989      144.096        0.057      344.297       21.013      859.146
05/15/2013  18:11:00     -496.189     -313.569       -8.085      262.252      195.934      122.100    68775.997    38390.074    14908.476       23.331        6.104      586.966      130.811        0.050      344.252       20.935      859.148
05/15/2013  18:12:00     -424.267     -143.459       -8.390      244.083      179.674      109.094    59576.681    32282.912    11901.451       15.219        5.188      447.865      120.955        0.073      344.256       20.941      859.125
05/15/2013  18:13:00     -222.470     -193.885       14.259      191.776      173.388       84.994    36778.218    30063.388     7224.036        8.066        3.703      295.100       81.189        0.076      344.403       21.194      859.156
05/15/2013  18:14:00     -337.316      -72.791        3.784      184.041      124.211       79.222    33871.248    15428.358     6276.192        8.733        2.779      345.080       89.898        0.068      344.501       21.360      859.164
05/15/2013  18:15:00     -333.410     -259.982        2.177      177.206      193.869       88.577    31401.951    37585.254     7845.930       12.778        3.842      422.791       89.229        0.045      344.444       21.264      859.157
05/15/2013  18:16:00     -491.580     -226.726      -27.299      191.508      145.954       91.078    36675.405    21302.643     8295.265       18.003        3.314      541.346       87.119        0.026      344.367       21.132      859.150
05/15/2013  18:17:00     -402.122     -198.986        8.433      199.623      159.855       96.189    39849.373    25553.561     9252.352       13.800        3.733      448.662      100.816        0.050      344.387       21.168      859.157
05/15/2013  18:18:00     -411.986     -175.222      -10.059      211.665      181.039       91.261    44801.899    32775.150     8328.479       14.321        4.295      447.700      101.454        0.051      344.381       21.156      859.159
05/15/2013  18:19:00     -378.990     -301.238      -15.832      203.930      167.916       97.829    41587.554    28195.831     9570.496       15.698        3.968      484.125      109.067        0.051      344.361       21.122      859.179
05/15/2013  18:20:00     -406.315     -248.875       -8.342      234.525      195.882       88.053    55002.128    38369.797     7753.393       16.410        5.056      476.477      111.717        0.055      344.347       21.098      859.189
05/15/2013  18:21:00     -463.331     -116.049       -5.545      170.122      170.530       80.616    28941.339    29080.404     6498.886       14.634        3.226      477.643       59.783        0.016      344.336       21.080      859.158
05/15/2013  18:22:00     -212.644      -55.115       25.311      182.369      126.879       76.882    33258.272    16098.405     5910.794        5.207        2.763      219.671       85.041        0.150      344.515       21.386      859.154
05/15/2013  18:23:00     -192.780     -106.299       10.059      141.376      123.806       61.141    19987.090    15328.022     3738.189        4.380        1.953      220.145       67.285        0.093      344.551       21.447      859.148
05/15/2013  18:24:00     -488.856     -361.614      -21.007      262.908      202.657      102.022    69120.546    41069.832    10408.486       24.537        6.030      608.067      109.218        0.032      344.336       21.079      859.131
05/15/2013  18:25:00     -417.790     -403.032       -0.216      217.020      209.055      116.937    47097.513    43703.850    13674.287       22.071        5.224      580.502      131.923        0.052      344.295       21.010      859.086
05/15/2013  18:26:00     -330.479     -203.924      -18.292      228.355      109.165       62.650    52145.883    11917.097     3924.961       10.955        3.399      388.332       74.499        0.037      344.431       21.242      859.113
05/15/2013  18:27:00     -227.554     -210.288        7.200      181.774      143.240       84.231    33041.889    20517.563     7094.802        7.834        3.033      309.842      104.705        0.114      344.481       21.327      859.106
05/15/2013  18:28:00     -353.604     -124.223       -4.523      203.305      207.667       81.160    41333.028    43125.742     6586.879       11.575        4.552      374.789       85.710        0.052      344.489       21.341      859.098
05/15/2013  18:29:00     -536.777     -255.823       -9.496      229.191      187.075       95.936    52528.653    34997.174     9203.736       22.518        4.836      594.622      118.622        0.040      344.385       21.162      859.108
05/15/2013  18:30:00     -428.856     -275.742      -30.498      267.414      184.351       87.810    71510.335    33985.195     7710.513       18.702        5.660      509.854      102.572        0.040      344.309       21.033      859.098
05/15/2013  18:31:00     -338.035     -284.151        4.755      198.685      151.610       92.527    39475.927    22985.737     8561.224       13.302        3.551      441.598       84.641        0.037      344.289       20.999      859.106
05/15/2013  18:32:00     -481.274     -280.939      -30.851      161.408      146.406       75.123    26052.540    21434.646     5643.535       18.231        2.657      557.271       72.284        0.017      344.322       21.055      859.113
05/15/2013  18:33:00     -409.850     -217.492      -15.750      256.620      164.516       93.084    65853.589    27065.633     8664.655       15.854        5.079      463.983      112.664        0.059      344.389       21.171      859.134
05/15/2013  18:34:00     -459.642     -228.939       -7.014      281.969      197.390      101.743    79506.576    38962.727    10351.687       19.626        6.441      513.501      132.089        0.066      344.311       21.036      859.145
05/15/2013  18:35:00     -546.567     -306.921      -19.804      255.017      193.985      118.851    65033.879    37630.098    14125.612       25.504        5.839      626.846      122.232        0.038      344.164       20.786      859.109
05/15/2013  18:36:00     -443.484     -305.085      -17.977      195.624      202.864       97.104    38268.602    41153.741     9429.217       18.945        4.443      538.289      108.493        0.041      344.142       20.747      859.124
05/15/2013  18:37:00     -338.282     -266.715      -20.192      209.255      155.728      104.884    43787.566    24251.333    11000.692       13.250        3.952      430.780       96.119        0.050      344.119       20.708      859.116
05/15/2013  18:38:00     -220.950     -104.201        0.082      154.183      131.109       68.547    23772.313    17189.535     4698.695        5.266        2.283      244.289       69.563        0.081      344.261       20.951      859.120
05/15/2013  18:39:00     -431.307     -195.409        1.175      241.474      210.068      102.624    58309.514    44128.506    10531.684       16.857        5.648      473.509      117.612        0.062      344.098       20.672      859.081
05/15/2013  18:40:00     -526.986     -287.323      -37.339      199.465      205.312       90.116    39786.386    42153.072     8120.972       22.585        4.503      600.223       85.155        0.020      344.109       20.691      859.062
05/15/2013  18:41:00     -536.858     -283.537      -11.745      211.469      191.681      112.042    44719.172    36741.466    12553.487       23.137        4.701      607.132      105.311        0.030      344.094       20.665      859.088
05/15/2013  18:42:00     -260.438     -150.466       20.692      181.446      144.024       82.560    32922.624    20742.851     6816.129        7.568        3.024      300.779       91.332        0.092      344.239       20.913      859.140
05/15/2013  18:43:00     -317.761     -135.612       -8.545      167.449      144.114       71.658    28039.088    20768.944     5134.880        8.668        2.697      345.489       74.293        0.046      344.167       20.791      859.164
05/15/2013  18:44:00     -307.762     -169.545       -2.118      200.300      173.537       77.106    40120.161    30115.105     5945.292        9.981        3.809      351.373       82.632        0.055      344.154       20.768      859.153
05/15/2013  18:45:00     -483.798     -186.457      -30.063      270.449      165.065       74.115    73142.652    27246.408     5493.090       18.779        5.294      518.485       68.867        0.018      344.024       20.546      859.132
05/15/2013  18:46:00     -299.007     -189.336       17.683      188.594      138.241       89.062    35567.797    19110.548     7931.979        9.408        3.131      353.912       91.357        0.067      344.015       20.532      859.138
05/15/2013  18:47:00     -438.157     -259.782       -7.628      185.577      169.945       89.947    34438.979    28881.222     8090.408       16.546        3.571      509.380       87.534        0.030      344.001       20.506      859.149
05/15/2013  18:48:00     -377.318     -183.110      -10.205      211.082      195.047       93.425    44555.570    38043.484     8728.266       13.365        4.566      419.402      101.625        0.059      343.978       20.468      859.175
05/15/2013  18:49:00     -333.265     -126.718        3.393      267.897      175.897      118.011    71768.591    30939.792    13926.543       12.187        5.832      356.543      136.101        0.146      343.953       20.424      859.164
05/15/2013  18:50:00     -455.581     -219.511      -10.755      214.914      164.076       91.479    46187.983    26920.933     8368.398       16.865        4.074      505.706      105.681        0.044      343.887       20.311      859.183
05/15/2013  18:51:00     -347.879     -190.050      -17.759      242.209      212.091       97.515    58665.353    44982.434     9509.162       13.529        5.658      396.408      111.714        0.079      343.863       20.272      859.193
05/15/2013  18:52:00     -304.370     -248.347        1.937      238.474      189.324      125.307    56869.616    35843.402    15701.748       13.135        5.421      392.833      133.186        0.115      343.840       20.232      859.173
05/15/2013  18:53:00     -336.744     -142.161      -10.763      164.940      118.003       62.901    27205.321    13924.716     3956.500        8.940        2.254      365.522       73.410        0.040      343.846       20.243      859.207
05/15/2013  18:54:00     -331.584     -116.694       -1.800      232.466      177.850       77.235    54040.329    31630.688     5965.199       10.759        4.582      351.519      109.309        0.097      343.886       20.312      859.197
05/15/2013  18:55:00     -515.277     -196.191      -29.270      224.030      196.763       86.937    50189.275    38715.541     7558.128       20.064        4.823      551.363       92.244        0.028      343.817       20.192      859.166
05/15/2013  18:56:00     -350.649      -91.597      -19.568      150.095      145.629       76.894    22528.467    21207.685     5912.690        9.068        2.482      362.415       70.675        0.038      343.850       20.249      859.203
05/15/2013  18:57:00     -546.604     -303.996      -29.240      252.308      231.013      107.122    63659.217    53367.101    11475.023       26.025        6.425      625.452      107.002        0.029      343.750       20.078      859.199
05/15/2013  18:58:00     -346.753     -242.158       -6.310      205.098      191.822      104.216    42065.129    36795.602    10861.013       13.430        4.486      422.940      106.479        0.063      343.778       20.127      859.199
05/15/2013  18:59:00     -388.960     -190.649      -16.327      227.994      216.924       95.901    51981.076    47056.093     9197.079       14.805        5.412      433.171      104.263        0.058      343.801       20.166      859.245
05/15/2013  19:00:00     -415.629     -202.511        1.647      253.329      161.260       96.167    64175.652    26004.627     9248.084       15.658        4.971      462.340      115.433        0.062      343.768       20.109      859.249
05/15/2013  19:01:00     -451.276     -167.137      -14.561      211.772      149.136       81.760    44847.467    22241.453     6684.763       15.277        3.689      481.233       86.628        0.032      343.762       20.097      859.257
05/15/2013  19:02:00     -337.473     -185.124       -1.450      194.152      157.061       85.852    37694.810    24668.046     7370.640       10.894        3.487      384.914       83.104        0.047      343.801       20.164      859.265
05/15/2013  19:03:00     -402.483      -70.526      -16.984      177.450      104.204       83.002    31488.386    10858.411     6889.262       10.824        2.462      408.615       96.190        0.055      343.768       20.110      859.278
05/15/2013  19:04:00     -365.221     -236.372      -11.237      208.697      143.923       84.389    43554.235    20713.778     7121.548       13.038        3.569      435.038       76.640        0.031      343.782       20.134      859.266
05/15/2013  19:05:00     -495.589      -83.324      -27.329      200.628      164.163       93.673    40251.757    26949.413     8774.705       16.462        3.799      502.545       96.791        0.037      343.774       20.120      859.280
05/15/2013  19:06:00     -321.005     -190.066      -10.020      182.351      188.555       90.839    33251.973    35552.931     8251.659       10.815        3.853      373.054       98.173        0.069      343.807       20.176      859.274
05/15/2013  19:07:00     -334.451     -141.377      -15.770      181.373      155.635       85.344    32896.072    24222.185     7283.587        9.824        3.220      363.104       86.767        0.057      343.769       20.110      859.287
05/15/2013  19:08:00     -259.665     -148.658        6.408      205.516      137.925       78.768    42236.886    19023.289     6204.412        7.850        3.373      299.207       96.111        0.103      343.793       20.153      859.290
05/15/2013  19:09:00     -289.565      -74.181       10.018      204.410      119.296       71.236    41783.389    14231.568     5074.509        7.526        3.054      298.916       91.993        0.095      343.794       20.154      859.295
05/15/2013  19:10:00     -261.704     -114.645       -1.771      137.023      232.304       77.458    18775.278    53965.276     5999.742        8.017        3.937      285.714       87.408        0.094      343.809       20.178      859.311
05/15/2013  19:11:00     -442.982     -182.086        1.258      252.041      156.091       93.972    63524.474    24364.522     8830.785       16.304        4.836      478.945       98.918        0.043      343.706       20.004      859.303
05/15/2013  19:12:00     -374.528     -191.049        4.250      248.936      189.612      104.282    61969.171    35952.747    10874.642       14.277        5.440      420.442      113.138        0.072      343.652       19.910      859.306
05/15/2013  19:13:00     -412.379     -208.000       -5.594      189.887      162.631       92.093    36056.905    26448.901     8481.164       14.216        3.549      461.866      105.095        0.052      343.686       19.968      859.316
05/15/2013  19:14:00     -393.690     -227.243      -10.519      201.968      186.277       83.683    40791.011    34699.169     7002.910       14.460        4.125      454.567       88.917        0.038      343.657       19.917      859.340
05/15/2013  19:15:00     -474.109     -358.740        7.131      229.663      209.675      116.806    52745.296    43963.567    13643.731       23.192        5.518      594.536      131.730        0.049      343.585       19.798      859.330
05/15/2013  19:16:00     -368.708     -249.243       -7.035      197.062      143.663       86.285    38833.305    20638.983     7445.020       13.251        3.346      445.048       95.462        0.046      343.624       19.862      859.365
05/15/2013  19:17:00     -383.193     -183.881       -1.209      204.300      154.615       89.830    41738.417    23905.887     8069.511       12.717        3.686      425.028       96.637        0.052      343.649       19.905      859.402
05/15/2013  19:18:00     -373.141     -106.619       -1.743      217.765      167.602      114.167    47421.410    28090.543    13034.004       11.956        4.427      388.074      130.544        0.113      343.614       19.847      859.380
05/15/2013  19:19:00     -346.824     -238.371       -1.998      196.939      196.039       93.922    38785.030    38431.145     8821.377       13.156        4.302      420.842      101.948        0.059      343.608       19.835      859.400
05/15/2013  19:20:00     -431.410     -374.096       -4.262      255.124      211.100      122.158    65088.090    44563.384    14922.515       22.531        6.229      571.019      148.465        0.068      343.510       19.669      859.372
05/15/2013  19:21:00     -483.553     -236.972      -11.671      306.737      214.544      121.950    94087.773    46029.130    14871.707       22.253        7.749      538.497      127.385        0.056      343.442       19.554      859.409
05/15/2013  19:22:00     -413.752     -145.470       -4.805      247.045      185.224       89.057    61031.334    34307.757     7931.230       14.781        5.164      438.580      111.410        0.065      343.478       19.615      859.418
05/15/2013  19:23:00     -381.339     -214.384      -11.450      237.076      175.249       93.267    56205.027    30712.203     8698.667       14.355        4.781      437.470      108.247        0.061      343.458       19.581      859.432
05/15/2013  19:24:00     -245.921     -120.942       21.331      208.912      155.828       93.918    43644.158    24282.234     8820.550        7.614        3.837      274.051      104.965        0.147      343.497       19.648      859.445
05/15/2013  19:25:00     -431.577     -258.759      -10.586      239.868      218.626      101.112    57536.884    47797.325    10223.585       18.442        5.778      503.205      117.234        0.054      343.435       19.542      859.454
05/15/2013  19:26:00     -545.620     -264.074       -7.471      262.333      156.103       89.956    68818.433    24368.009     8092.066       23.437        5.064      606.165       82.518        0.019      343.392       19.469      859.455
05/15/2013  19:27:00     -402.501     -107.416      -30.605      201.679      151.053       85.093    40674.457    22816.971     7240.813       12.260        3.537      416.588       99.885        0.057      343.410       19.499      859.450
05/15/2013  19:28:00     -339.915     -264.380      -24.529      180.284      189.506       85.629    32502.317    35912.568     7332.348       13.088        3.787      430.626       85.655        0.040      343.411       19.501      859.461
05/15/2013  19:29:00     -374.240     -187.035       -7.768      206.182      163.727      100.052    42510.866    26806.486    10010.364       12.720        3.966      418.376      107.135        0.066      343.418       19.511      859.463
05/15/2013  19:30:00     -304.847     -238.273      -11.892      202.753      140.314       88.971    41108.826    19687.969     7915.907       10.927        3.436      386.918       98.857        0.065      343.420       19.517      859.496
05/15/2013  19:31:00     -467.599     -340.363      -32.885      205.533      194.872       98.465    42243.810    37975.104     9695.273       21.273        4.496      578.356       97.454        0.028      343.366       19.424      859.464
05/15/2013  19:32:00     -449.553     -349.113      -23.201      242.738      215.981      107.659    58921.558    46647.601    11590.518       22.082        5.858      569.191      112.522        0.039      343.330       19.363      859.492
05/15/2013  19:33:00     -433.117     -340.309      -14.224      219.265      154.908       98.682    48077.178    23996.568     9738.131       19.269        4.091      550.818      112.480        0.042      343.336       19.371      859.511
05/15/2013  19:34:00     -342.972     -262.951        1.297      240.782      160.551      108.830    57975.787    25776.736    11844.051       14.117        4.780      432.173      118.350        0.075      343.323       19.350      859.506
05/15/2013  19:35:00     -367.588     -174.181       -8.121      203.266      169.889       94.954    41317.204    28862.221     9016.237       12.235        3.960      406.767       98.617        0.059      343.332       19.365      859.526
05/15/2013  19:36:00     -526.692     -191.435      -10.378      303.275      188.088      114.254    91975.928    35376.969    13053.919       22.726        7.020      560.403      129.188        0.053      343.269       19.258      859.538
05/15/2013  19:37:00     -418.861      -81.663      -20.584      193.742      199.640       87.266    37535.869    39856.151     7615.271       13.376        4.250      426.747       83.309        0.038      343.287       19.290      859.558
05/15/2013  19:38:00     -201.671     -185.396        6.632      172.559      129.853       91.809    29776.497    16861.697     8428.953        6.507        2.753      273.939      107.905        0.155      343.306       19.322      859.581
05/15/2013  19:39:00     -321.865     -202.238      -21.521      216.749      179.869       84.819    46980.251    32352.921     7194.235       11.573        4.326      380.128       74.789        0.039      343.281       19.278      859.590
05/15/2013  19:40:00     -473.144     -150.294       -9.145      236.202      186.512       89.479    55791.260    34786.900     8006.575       17.254        4.929      496.441       88.482        0.032      343.243       19.213      859.593
05/15/2013  19:41:00     -347.102     -140.118       -4.812      219.255      143.606       90.541    48072.837    20622.580     8197.723       10.850        3.845      374.316      106.260        0.081      343.233       19.197      859.611
05/15/2013  19:42:00     -449.718     -293.070       -1.866      210.100      225.772       99.824    44142.041    50972.789     9964.919       19.659        5.254      536.783      100.567        0.035      343.199       19.139      859.648
05/15/2013  19:43:00     -375.104     -295.466      -14.507      236.413      215.580      108.310    55891.268    46474.645    11730.949       17.114        5.705      477.497      114.714        0.058      343.189       19.122      859.653
05/15/2013  19:44:00     -482.869     -310.364      -14.804      323.706      238.514      138.438   104785.266    56888.902    19165.030       25.524        9.042      574.011      166.309        0.084      343.143       19.042      859.644
05/15/2013  19:45:00     -340.347     -245.585       -8.320      189.272      177.531       72.109    35824.047    31517.236     5199.667       12.437        3.627      419.700       78.948        0.035      343.163       19.077      859.725
05/15/2013  19:46:00     -416.801     -250.699        1.001      232.616      174.611      107.083    54110.135    30488.965    11466.863       16.630        4.803      486.388      121.506        0.062      343.132       19.025      859.701
05/15/2013  19:47:00     -372.335     -123.657        1.868      247.439      179.420      102.148    61226.001    32191.655    10434.229       12.887        5.193      392.332      126.165        0.103      343.105       18.980      859.711
05/15/2013  19:48:00     -370.467     -180.784        5.422      239.309      198.706       97.560    57268.911    39484.259     9518.010       13.810        5.314      412.224      129.221        0.098      343.099       18.969      859.733
05/15/2013  19:49:00     -388.963     -159.510       -8.919      243.957      139.527       84.134    59514.845    19467.861     7078.454       13.142        4.303      420.399      103.702        0.061      343.104       18.976      859.725
05/15/2013  19:50:00     -344.775      -96.325       -2.735      173.427      161.263       90.873    30076.754    26005.915     8257.873        9.624        3.217      357.978       87.264        0.059      343.085       18.946      859.744
05/15/2013  19:51:00     -405.709     -187.834      -12.674      193.643      201.269       82.957    37497.600    40509.370     6881.906       14.245        4.244      447.081       89.985        0.041      343.077       18.931      859.754
05/15/2013  19:52:00     -450.871     -127.084      -14.958      211.547      167.175       86.753    44751.931    27947.457     7526.044       14.993        4.011      468.439      100.268        0.046      343.067       18.914      859.746
05/15/2013  19:53:00     -403.105     -230.760      -13.667      255.094      191.952       96.523    65072.917    36845.496     9316.710       16.356        5.562      464.482      117.331        0.064      343.049       18.883      859.763
05/15/2013  19:54:00     -391.874     -245.502       -8.169      241.939      230.929      111.431    58534.616    53328.248    12416.926       16.907        6.214      462.424      111.961        0.059      343.048       18.880      859.761
05/15/2013  19:55:00     -284.811     -147.785       -1.869      208.400      166.616       93.038    43430.376    27761.003     8656.007        9.139        3.992      320.870      103.097        0.103      343.046       18.878      859.785
05/15/2013  19:56:00     -364.345     -155.381        3.749      193.245      166.275       82.215    37343.767    27647.386     6759.346       11.432        3.588      396.094       89.417        0.051      343.033       18.856      859.824
05/15/2013  19:57:00     -282.623     -161.293        4.396      200.022      159.968       76.467    40008.899    25589.810     5847.231        8.867        3.572      325.409       99.448        0.093      343.024       18.841      859.812
05/15/2013  19:58:00     -441.535     -241.358      -24.624      166.080      176.114       72.508    27582.694    31016.181     5257.379       15.882        3.193      503.196       71.030        0.020      343.013       18.822      859.830
05/15/2013  19:59:00     -402.303     -138.956        1.326      274.284      202.624       98.371    75231.828    41056.327     9676.879       15.354        6.298      425.624      118.832        0.078      342.996       18.794      859.825
05/15/2013  20:00:00     -491.812     -247.802      -30.856      198.662      176.086       91.218    39466.646    31006.285     8320.636       19.150        3.940      550.713       90.869        0.027      342.994       18.790      859.842
05/15/2013  20:01:00     -490.475     -271.376       -7.534      200.281      207.896       92.572    40112.292    43220.662     8569.589       20.307        4.595      560.545       79.691        0.020      342.976       18.760      859.837
05/15/2013  20:02:00     -309.512     -161.129      -20.427      175.580      124.871       64.977    30828.470    15592.700     4222.021        8.640        2.532      348.942       58.118        0.028      342.986       18.777      859.863
05/15/2013  20:03:00     -422.896     -291.885      -38.302      262.054      143.634      104.840    68672.111    20630.785    10991.469       18.288        5.015      513.846      123.585        0.058      342.978       18.762      859.880
05/15/2013  20:04:00     -240.760     -214.114        6.071      194.456      152.642       90.213    37813.034    23299.472     8138.360        8.654        3.463      322.195      101.760        0.100      342.954       18.723      859.863
05/15/2013  20:05:00     -383.706     -257.092      -16.113      239.002      159.875       93.403    57121.894    25560.099     8724.075       15.248        4.570      461.873      111.365        0.058      342.955       18.723      859.864
05/15/2013  20:06:00     -419.438     -200.496      -15.296      190.819      115.869       62.220    36411.744    13425.644     3871.354       13.503        2.685      464.895       56.674        0.015      342.944       18.705      859.875
05/15/2013  20:07:00     -353.400     -201.958      -18.529      183.504      171.626       89.707    33673.710    29455.360     8047.399       11.859        3.559      407.036       97.009        0.057      342.918       18.662      859.889
05/15/2013  20:08:00     -355.249     -147.273       -2.478      223.368      159.170      102.648    49893.198    25335.248    10536.605       11.682        4.288      384.566      121.261        0.099      342.902       18.633      859.915
05/15/2013  20:09:00     -338.338     -123.766      -15.046      220.192      126.609       86.333    48484.635    16029.871     7453.366       10.098        3.598      360.265      107.321        0.089      342.904       18.638      859.920
05/15/2013  20:10:00     -308.015     -136.722       -8.638      152.598      147.831       73.406    23285.997    21853.983     5388.461        8.208        2.526      336.996       64.006        0.036      342.876       18.589      859.923
05/15/2013  20:11:00     -422.750     -103.182      -32.118      220.241      136.675       83.272    48506.311    18680.020     6934.249       13.225        3.706      435.160      108.802        0.063      342.864       18.568      859.914
05/15/2013  20:12:00     -273.099     -122.864       -5.749      158.958      128.660       64.125    25267.647    16553.276     4111.998        6.781        2.297      299.464       78.495        0.069      342.857       18.556      859.919
05/15/2013  20:13:00     -302.194     -253.019       -0.261      235.362      147.306       80.466    55395.223    21698.999     6474.774       11.944        4.178      394.132       86.884        0.049      342.845       18.536      859.910
05/15/2013  20:14:00     -328.968     -295.943       -8.298      205.339      177.828      105.836    42164.104    31622.868    11201.277       14.042        4.249      442.496      116.008        0.069      342.806       18.470      859.923
05/15/2013  20:15:00     -204.370      -89.390       17.176      158.189      132.702       74.924    25023.885    17609.799     5613.623        4.914        2.412      223.064       87.355        0.153      342.815       18.487      859.933
05/15/2013  20:16:00     -338.329     -120.655      -26.772      159.118      157.925       78.254    25318.595    24940.408     6123.675        9.305        2.819      359.200       70.927        0.039      342.799       18.459      859.980
05/15/2013  20:17:00     -325.399     -149.925       -3.002      185.356      122.411       69.571    34356.766    14984.389     4840.187        9.127        2.709      358.276       82.997        0.054      342.775       18.418      859.997
05/15/2013  20:18:00     -234.651     -105.494      -12.404      112.665       89.620       58.039    12693.386     8031.663     3368.581        4.521        1.205      257.274       51.840        0.041      342.789       18.439      860.005
05/15/2013  20:19:00     -312.793     -182.810      -17.162      159.978      131.367       61.874    25592.919    17257.325     3828.347        8.911        2.334      362.297       54.757        0.023      342.772       18.411      860.016
05/15/2013  20:20:00     -193.453     -116.906       17.111      144.939      114.574       69.084    21007.212    13127.115     4772.561        4.514        1.945      226.034       68.809        0.093      342.775       18.419      860.046
05/15/2013  20:21:00     -220.325     -130.379      -11.025      111.617      114.203       73.659    12458.367    13042.378     5425.701        4.829        1.546      256.011       64.139        0.063      342.750       18.374      860.040
05/15/2013  20:22:00     -251.733      -28.864        3.759      166.550       88.165       68.277    27738.740     7773.148     4661.686        5.219        2.009      253.383       84.398        0.111      342.705       18.298      860.052
05/15/2013  20:23:00     -199.307     -153.595        2.188      145.411      116.553       68.230    21144.225    13584.573     4655.267        5.135        1.969      251.624       79.956        0.101      342.708       18.305      860.066
05/15/2013  20:24:00     -117.002      -47.391       19.916      117.306      108.440       61.453    13760.715    11759.305     3776.455        2.281        1.465      126.235       57.526        0.208      342.660       18.224      860.063
05/15/2013  20:25:00     -235.359     -182.216      -11.642      177.312      143.923       80.711    31439.679    20713.925     6514.250        7.369        2.933      297.652       88.047        0.088      342.676       18.250      860.061
05/15/2013  20:26:00     -226.828      -91.337       13.406      189.250      143.157       61.796    35815.450    20494.024     3818.716        6.004        3.006      244.527       85.265        0.122      342.651       18.208      860.077
05/15/2013  20:27:00     -439.807     -127.093      -18.699      175.401      154.774       69.345    30765.447    23955.012     4808.750       13.472        2.976      457.802       82.097        0.032      342.651       18.206      860.088
05/15/2013  20:28:00     -273.497     -108.658       -5.323      137.246      107.338       61.358    18836.351    11521.374     3764.743        6.037        1.706      294.291       69.895        0.056      342.651       18.207      860.086
05/15/2013  20:29:00     -242.128     -105.319       -3.130      177.395      130.227       77.524    31469.146    16958.960     6010.028        6.207        2.722      264.042       75.053        0.081      342.649       18.204      860.095
05/15/2013  20:30:00     -429.630     -209.444      -24.838      196.118      177.111       74.646    38462.291    31368.229     5572.063       15.222        3.770      477.963       73.573        0.024      342.647       18.197      860.092
05/15/2013  20:31:00     -229.697      -64.139       22.689      161.946      116.874       65.362    26226.383    13659.572     4272.173        5.077        2.208      238.483       81.134        0.116      342.626       18.165      860.101
05/15/2013  20:32:00     -186.390      -17.680       16.812      117.197      105.439       58.891    13735.159    11117.433     3468.123        3.182        1.416      187.226       60.982        0.106      342.645       18.197      860.098
05/15/2013  20:33:00     -456.629      -22.597      -24.300      189.026      134.323       82.313    35730.681    18042.691     6775.360       13.507        3.027      457.188       90.963        0.040      342.594       18.109      860.111
05/15/2013  20:34:00     -371.568      -34.002      -12.508      166.986      116.809       66.423    27884.349    13644.399     4412.018        9.265        2.297      373.120       73.415        0.039      342.587       18.099      860.101
05/15/2013  20:35:00     -211.203      -99.016        1.662      133.478       89.387       51.206    17816.363     7990.020     2622.019        4.142        1.421      233.261       51.327        0.048      342.599       18.119      860.123
05/15/2013  20:36:00     -142.725      -91.685        2.030      100.251      102.916       61.660    10050.211    10591.674     3801.990        2.661        1.222      169.637       53.813        0.101      342.567       18.065      860.115
05/15/2013  20:37:00     -206.279     -133.937       -4.915      137.025      134.848       74.689    18775.887    18184.059     5578.465        5.152        2.127      245.947       71.079        0.084      342.566       18.062      860.107
05/15/2013  20:38:00     -298.278     -109.752      -11.769      193.579      131.766       85.699    37472.962    17362.227     7344.258        8.166        3.109      317.829       99.370        0.098      342.541       18.019      860.083
05/15/2013  20:39:00     -308.077     -230.625      -15.769      174.951      162.897       81.036    30607.692    26535.587     6566.833       10.602        3.186      384.836       80.547        0.044      342.513       17.972      860.087
05/15/2013  20:40:00     -281.831      -67.638      -13.260      122.390       84.047       47.564    14979.355     7063.936     2262.361        5.424        1.215      289.834       51.689        0.032      342.531       18.004      860.085
05/15/2013  20:41:00     -221.481      -74.197       -7.411      108.229       95.623       48.276    11713.468     9143.846     2330.594        3.890        1.159      233.579       49.931        0.046      342.471       17.901      860.100
05/15/2013  20:42:00     -164.956      -16.192        1.630      100.524       69.207       46.032    10105.142     4789.604     2118.983        2.224        0.851      165.749       50.164        0.092      342.464       17.890      860.091
05/15/2013  20:43:00     -435.812      -42.032      -35.250      140.022      101.571       73.165    19606.061    10316.588     5353.124       11.410        1.764      437.834       74.830        0.029      342.429       17.829      860.097
05/15/2013  20:44:00     -389.931      -72.219      -27.370      145.556       84.221       59.793    21186.487     7093.145     3575.164        9.493        1.593      396.562       57.463        0.021      342.436       17.841      860.091
05/15/2013  20:45:00     -159.190      -52.212       -1.936      113.449       92.909       46.012    12870.672     8632.121     2117.075        2.584        1.181      167.534       56.201        0.113      342.481       17.917      860.114
05/15/2013  20:46:00     -167.150      -33.824        4.898      100.500       67.848       55.350    10100.207     4603.370     3063.605        2.343        0.888      170.537       50.297        0.087      342.431       17.834      860.126
05/15/2013  20:47:00     -129.010      -31.447       30.020      140.062       93.637       62.054    19617.397     8767.921     3850.703        2.538        1.612      132.787       73.597        0.307      342.393       17.771      860.134
05/15/2013  20:48:00     -196.639      -29.019        0.595      196.984       95.329       58.780    38802.633     9087.594     3455.126        4.542        2.567      198.769       65.563        0.109      342.408       17.797      860.137
05/15/2013  20:49:00     -360.908       63.029      -21.616      147.791      102.688       55.473    21842.247    10544.895     3077.306        8.507        1.773      366.371       52.429        0.020      342.403       17.785      860.143
05/15/2013  20:50:00     -295.899      -41.400      -15.025      149.447       85.260       57.406    22334.374     7269.235     3295.436        6.119        1.645      298.781       66.576        0.050      342.369       17.726      860.147
05/15/2013  20:51:00     -327.559       16.736      -14.613      129.897      121.659       67.277    16873.169    14800.968     4526.209        7.199        1.810      327.986       64.001        0.038      342.394       17.770      860.149
05/15/2013  20:52:00     -181.986      -15.289        2.441      144.733       84.855       61.291    20947.633     7200.320     3756.557        3.263        1.595      182.627       66.341        0.132      342.387       17.760      860.151
05/15/2013  20:53:00     -156.309       -7.063       -2.308      109.381       91.732       44.807    11964.115     8414.715     2007.684        2.343        1.119      156.469       50.980        0.106      342.352       17.700      860.145
05/15/2013  20:54:00     -184.229     -130.742       -4.386      116.149       95.574       54.873    13490.523     9134.351     3011.027        3.834        1.282      225.906       63.355        0.079      342.345       17.686      860.158
05/15/2013  20:55:00     -219.836      -62.960       -9.594      144.796      112.691       70.026    20965.851    12699.203     4903.709        4.547        1.928      228.674       85.499        0.140      342.315       17.637      860.156
05/15/2013  20:56:00     -224.479      -65.058       -5.832      135.753      121.458       55.449    18428.858    14751.938     3074.580        4.545        1.813      233.717       63.231        0.073      342.329       17.660      860.168
05/15/2013  20:57:00     -101.343      -87.601        5.856       87.462       76.813       48.378     7649.643     5900.161     2340.420        1.693        0.795      133.957       40.570        0.092      342.343       17.685      860.174
05/15/2013  20:58:00     -168.274      -62.889        8.534      133.729      118.411       75.852    17883.323    14021.191     5753.489        3.499        1.883      179.642       79.182        0.194      342.319       17.643      860.187
05/15/2013  20:59:00     -301.645      -48.095       -9.551      175.390      126.246       62.817    30761.776    15937.955     3945.959        7.201        2.532      305.455       75.769        0.062      342.313       17.632      860.214
05/15/2013  21:00:00     -103.997      -67.994       14.034      129.145      108.879       56.369    16678.392    11854.661     3177.484        2.367        1.586      124.252       68.195        0.301      342.307       17.625      860.231
05/15/2013  21:01:00     -335.761        2.998       -3.721      206.898      149.363       81.902    42806.646    22309.265     6707.895        9.228        3.591      335.774       94.700        0.080      342.276       17.570      860.241
05/15/2013  21:02:00     -328.606      -40.224      -11.558      123.253      126.110       59.261    15191.386    15903.840     3511.918        7.216        1.730      331.059       58.482        0.031      342.294       17.599      860.269
05/15/2013  21:03:00     -229.321     -149.105       -3.688      132.021      114.605       65.115    17429.513    13134.234     4240.014        5.481        1.740      273.533       77.263        0.080      342.261       17.544      860.281
05/15/2013  21:04:00     -162.395     -145.979        8.606      136.918      115.134       71.596    18746.462    13255.809     5125.917        4.244        1.856      218.362       67.426        0.095      342.257       17.536      860.295
05/15/2013  21:05:00     -222.939      -28.336       -4.180      154.200      107.236       59.968    23777.585    11499.531     3596.153        4.469        1.944      224.733       77.693        0.120      342.246       17.519      860.328
05/15/2013  21:06:00     -199.340      -60.705       -9.419      112.709       83.506       50.644    12703.211     6973.260     2564.826        3.287        1.112      208.378       60.304        0.084      342.254       17.533      860.336
05/15/2013  21:07:00     -260.033      -32.760      -21.292      128.280       71.820       47.980    16455.709     5158.061     2302.054        4.653        1.196      262.088       52.785        0.041      342.241       17.510      860.342
05/15/2013  21:08:00     -260.425       -4.289      -16.342      135.985      119.432       44.016    18491.980    14264.070     1937.405        5.139        1.735      260.461       40.230        0.024      342.223       17.481      860.375
05/15/2013  21:09:00     -213.412     -111.075        3.869      144.760       99.236       59.205    20955.374     9847.810     3505.263        4.610        1.715      240.588       50.945        0.045      342.199       17.441      860.371
05/15/2013  21:10:00     -228.268      -36.035      -14.480      134.019       65.467       49.834    17961.226     4285.975     2483.421        3.917        1.237      231.095       51.938        0.051      342.185       17.415      860.405
05/15/2013  21:11:00     -167.255      -47.589       -5.781      173.809       62.083       50.905    30209.472     3854.293     2591.342        3.346        1.833      173.893       81.858        0.222      342.187       17.422      860.429
05/15/2013  21:12:00      -96.816      -56.038        6.776       88.683       68.273       40.487     7864.653     4661.191     1639.168        1.336        0.708      111.864       44.397        0.158      342.176       17.402      860.439
05/15/2013  21:13:00     -184.868       30.057       -5.913      135.326       87.301       56.372    18313.077     7621.550     3177.777        3.211        1.456      187.295       66.972        0.128      342.170       17.389      860.443
05/15/2013  21:14:00     -258.561      -56.772       -8.998      214.089       88.031       58.014    45834.209     7749.456     3365.642        6.354        2.847      264.720       82.173        0.096      342.152       17.359      860.445
05/15/2013  21:15:00      -89.971      -44.472        7.282      126.060      107.138       44.532    15891.171    11478.648     1983.057        1.973        1.468      100.363       50.799        0.256      342.150       17.357      860.470
05/15/2013  21:16:00     -159.843      -48.641       -3.378       84.151       82.347       45.730     7081.309     6780.953     2091.268        2.194        0.798      167.080       42.495        0.065      342.113       17.296      860.484
05/15/2013  21:17:00     -136.275       -8.928       -4.372       77.093       67.540       43.805     5943.400     4561.594     1918.879        1.554        0.621      136.567       34.290        0.063      342.098       17.269      860.487
05/15/2013  21:18:00      -42.203      -60.525        6.499       55.783       53.726       33.453     3111.731     2886.469     1119.072        0.630        0.356       73.786       26.707        0.131      342.112       17.294      860.506
05/15/2013  21:19:00     -153.100       -9.952      -16.399       63.478       47.156       26.329     4029.422     2223.683      693.237        1.538        0.347      153.424       22.577        0.022      342.107       17.286      860.516
05/15/2013  21:20:00     -212.395       48.511      -14.705       74.431       65.980       36.922     5539.945     4353.405     1363.263        2.947        0.563      217.864       27.518        0.016      342.097       17.265      860.518
05/15/2013  21:21:00     -311.374      -95.607      -29.668      132.418      131.501       49.120    17534.453    17292.571     2412.780        7.210        1.862      325.721       37.083        0.013      342.094       17.261      860.521
05/15/2013  21:22:00     -255.996       71.540      -22.392       92.456       60.075       38.244     8548.187     3609.026     1462.640        4.238        0.681      265.804       28.387        0.011      342.069       17.217      860.529
05/15/2013  21:23:00     -147.795       25.939      -10.350       93.899       85.012       54.539     8817.101     7227.035     2974.520        2.082        0.951      150.054       46.694        0.097      342.070       17.219      860.552
05/15/2013  21:24:00     -157.338      -24.273       -2.469       88.515       92.634       49.382     7834.980     8580.983     2438.593        2.210        0.943      159.200       45.589        0.082      342.052       17.189      860.564
05/15/2013  21:25:00     -193.694       55.899      -11.285       92.975       74.625       38.891     8644.335     5568.954     1512.548        2.825        0.786      201.599       25.555        0.016      342.062       17.205      860.584
05/15/2013  21:26:00     -178.369      -83.425      -11.129      116.786       84.576       50.258    13639.030     7153.107     2525.849        3.110        1.166      196.915       48.579        0.061      342.042       17.172      860.612
05/15/2013  21:27:00     -161.729        0.330       -4.977       78.767       84.696       34.784     6204.306     7173.419     1209.942        2.038        0.729      161.729       34.148        0.045      342.047       17.183      860.626
05/15/2013  21:28:00     -177.678      -45.507       -8.787       81.655       55.944       46.210     6667.562     3129.765     2135.407        2.282        0.597      183.413       46.409        0.064      342.022       17.140      860.628
05/15/2013  21:29:00     -101.856       36.180      -21.686       51.570       82.965       38.156     2659.515     6883.162     1455.881        1.157        0.550      108.090       22.429        0.043      342.034       17.161      860.625
05/15/2013  21:30:00     -109.898       78.456       -5.436       61.383      138.248       46.771     3767.905    19112.576     2187.551        2.166        1.253      135.029       34.412        0.065      342.017       17.131      860.624
05/15/2013  21:31:00      -50.424      -38.067        1.601       63.250       64.513       35.893     4000.590     4161.879     1288.279        0.672        0.473       63.180       34.335        0.295      342.055       17.198      860.623
05/15/2013  21:32:00     -252.982       50.852      -24.096      146.701       80.527       50.171    21521.263     6484.659     2517.159        4.884        1.526      258.042       59.473        0.053      342.020       17.135      860.632
05/15/2013  21:33:00     -246.874      -23.491      -17.066      119.592       79.904       44.145    14302.312     6384.712     1948.757        4.221        1.132      247.989       53.730        0.047      342.005       17.109      860.627
05/15/2013  21:34:00     -183.243     -108.612        3.308       96.133       93.641       64.587     9241.580     8768.663     4171.435        3.378        1.109      213.013       57.029        0.072      341.999       17.098      860.641
05/15/2013  21:35:00      -38.956        5.516       17.754       72.885       64.215       37.283     5312.201     4123.595     1390.039        0.634        0.541       39.344       45.767        1.353      341.978       17.066      860.659
05/15/2013  21:36:00      -22.054       63.040       -9.306       36.030       41.467       22.681     1298.143     1719.473      514.421        0.404        0.177       66.787       25.770        0.149      341.968       17.050      860.666
05/15/2013  21:37:00     -153.421        4.440      -25.149      120.035       84.639       41.089    14408.380     7163.700     1688.293        2.372        1.163      153.485       46.557        0.092      341.986       17.077      860.675
05/15/2013  21:38:00      -90.796       83.186      -13.482       90.068       53.026       46.201     8112.287     2811.766     2134.508        1.420        0.653      123.141       55.300        0.202      341.946       17.010      860.684
05/15/2013  21:39:00      -13.698        0.252        7.902       21.550       25.820       16.064      464.407      666.664      258.049        0.082        0.069       13.700       10.310        0.566      341.913       16.956      860.692
05/15/2013  21:40:00     -216.301      -56.783      -17.186       79.450       74.311       38.662     6312.251     5522.071     1494.764        3.182        0.666      223.630       29.991        0.018      341.989       17.081      860.691
05/15/2013  21:41:00     -159.178      -49.313      -15.250       91.858      101.877       38.999     8437.923    10378.827     1520.958        2.417        1.017      166.642       26.267        0.025      341.966       17.045      860.685
05/15/2013  21:42:00      -95.914       52.701      -27.292       39.965       50.183       26.321     1597.236     2518.330      692.787        0.876        0.240      109.439       19.729        0.032      341.948       17.014      860.685
05/15/2013  21:43:00      -63.658        4.401        2.037       76.785       62.870       28.588     5895.939     3952.674      817.274        0.737        0.533       63.810       19.010        0.089      341.922       16.970      860.680
05/15/2013  21:44:00      -63.159      -17.016        1.708       66.030       46.797       23.228     4360.024     2189.928      539.550        0.568        0.354       65.412       27.868        0.182      341.922       16.972      860.677
05/15/2013  21:45:00     -126.257      -13.027        0.521       79.952       47.427       32.238     6392.284     2249.343     1039.295        1.289        0.484      126.927       35.870        0.080      341.861       16.867      860.695
05/15/2013  21:46:00     -252.075       71.570      -24.860       73.183       55.260       27.703     5355.701     3053.710      767.468        3.923        0.459      262.038       21.873        0.007      341.900       16.930      860.691
05/15/2013  21:47:00      -53.070       -2.126        3.076       86.077       76.840       34.878     7409.207     5904.347     1216.442        0.868        0.726       53.112       45.690        0.740      341.865       16.874      860.686
05/15/2013  21:48:00      -72.439       -5.121      -13.942       42.634       38.787       20.583     1817.688     1504.395      423.668        0.461        0.187       72.619       18.806        0.067      341.913       16.956      860.692
05/15/2013  21:49:00       -3.092       -8.282       13.209       58.942       42.540       35.355     3474.151     1809.617     1249.959        0.339        0.327        8.840       30.873       12.196      341.885       16.910      860.708
05/15/2013  21:50:00     -145.037       -5.731       -6.107      101.106       67.310       49.795    10222.440     4530.591     2479.505        1.917        0.862      145.150       55.435        0.146      341.896       16.925      860.686
05/15/2013  21:51:00     -158.486       47.030      -23.413       60.478       68.772       26.296     3657.621     4729.540      691.504        1.848        0.454      165.317       30.179        0.033      341.834       16.819      860.696
05/15/2013  21:52:00      -89.787        9.083       -8.912       56.833       49.087       25.162     3229.959     2409.533      633.123        0.725        0.314       90.246       24.002        0.071      341.841       16.834      860.674
05/15/2013  21:53:00     -136.562        4.513      -10.000       66.041       44.869       33.765     4361.384     2013.239     1140.052        1.314        0.376      136.636       29.544        0.047      341.822       16.801      860.673
05/15/2013  21:54:00     -107.386        0.434       -5.328       67.552       39.716       33.599     4563.241     1577.322     1128.914        0.941        0.363      107.387       35.212        0.108      341.816       16.791      860.700
05/15/2013  21:55:00      -10.667       23.005        9.327       43.821       18.797       32.836     1920.310      353.344     1078.211        0.204        0.168       25.358       35.392        1.948      341.757       16.693      860.678
05/15/2013  21:56:00     -108.132       30.575      -14.383       39.135       24.158       19.681     1531.587      583.608      387.352        0.767        0.125      112.371       18.765        0.028      341.764       16.704      860.695
05/15/2013  21:57:00     -132.005        1.591       -8.766       76.922       45.874       26.074     5916.933     2104.446      679.869        1.310        0.435      132.014       29.553        0.050      341.716       16.623      860.686
05/15/2013  21:58:00     -136.075      -27.967       -2.661       82.915       42.932       36.540     6874.928     1843.192     1335.156        1.468        0.503      138.919       38.024        0.075      341.742       16.665      860.684
05/15/2013  21:59:00     -118.533      -94.716        7.814       74.901       55.062       42.681     5610.147     3031.849     1821.665        1.677        0.523      151.727       39.533        0.068      341.721       16.630      860.697
05/15/2013  22:00:00     -186.631     -104.145       -2.534       81.353       68.629       36.223     6618.285     4709.999     1312.133        2.916        0.632      213.723       33.183        0.024      341.723       16.631      860.689
05/15/2013  22:01:00     -175.025      -12.862      -12.357      117.748       56.849       30.348    13864.690     3231.814      920.973        2.448        0.901      175.497       43.406        0.061      341.763       16.699      860.692
05/15/2013  22:02:00      -48.898       -1.545       27.173       91.396       79.759       43.393     8353.220     6361.506     1882.990        0.986        0.830       48.923       47.922        0.960      341.742       16.666      860.665
05/15/2013  22:03:00     -149.468      -54.963       -0.074       81.270       61.285       35.499     6604.857     3755.903     1260.182        1.849        0.581      159.253       38.479        0.058      341.713       16.614      860.690
05/15/2013  22:04:00     -156.433      -14.593        0.227       74.489       74.060       42.931     5548.611     5484.929     1843.052        1.878        0.644      157.112       39.797        0.064      341.750       16.678      860.700
05/15/2013  22:05:00     -170.112      -40.260       -3.521       67.429       68.598       37.319     4546.624     4705.680     1392.675        2.061        0.532      174.811       24.865        0.020      341.703       16.598      860.688
05/15/2013  22:06:00     -262.147        3.033      -26.052       81.375      100.882       39.346     6621.959    10177.259     1548.144        4.388        0.917      262.164       34.960        0.018      341.721       16.625      860.681
05/15/2013  22:07:00     -250.255      -98.209       -5.125       80.696       98.594       47.462     6511.775     9720.747     2252.670        4.539        0.924      268.835       37.939        0.020      341.711       16.611      860.666
05/15/2013  22:08:00     -175.427      -39.113       -9.131       69.020       70.607       40.931     4763.813     4985.371     1675.345        2.190        0.571      179.735       30.607        0.029      341.681       16.561      860.680
05/15/2013  22:09:00     -263.151      -45.979      -19.774       86.648       82.034       41.013     7507.855     6729.590     1682.065        4.383        0.796      267.137       43.583        0.027      341.673       16.545      860.670
05/15/2013  22:10:00     -210.712      -54.294        5.051      101.925       73.177       47.251    10388.613     5354.893     2232.648        3.267        0.899      217.595       53.762        0.061      341.601       16.424      860.690
05/15/2013  22:11:00     -115.917      -64.613        2.749       96.270       56.271       49.529     9267.936     3166.472     2453.114        1.625        0.744      132.709       47.853        0.130      341.648       16.507      860.649
05/15/2013  22:12:00     -114.624      -75.776        7.344      133.205       90.253       51.671    17743.492     8145.611     2669.855        2.374        1.428      137.407       53.642        0.152      341.692       16.580      860.652
05/15/2013  22:13:00     -426.495      -77.864      -21.885      129.120      110.847       58.528    16671.859    12287.047     3425.534       11.041        1.619      433.544       64.077        0.022      341.657       16.519      860.642
05/15/2013  22:14:00     -253.580      -43.408        1.790      131.176      129.866       67.821    17207.257    16865.095     4599.678        5.242        1.934      257.268       67.229        0.068      341.629       16.473      860.637
05/15/2013  22:15:00     -326.722     -113.101      -11.665      158.562      111.308       64.187    25141.764    12389.501     4119.981        8.066        2.083      345.744       75.031        0.047      341.679       16.557      860.623
05/15/2013  22:16:00     -280.050      -74.885      -24.433      120.254       81.559       48.416    14460.999     6651.947     2344.077        5.404        1.173      289.889       47.117        0.026      341.638       16.487      860.620
05/15/2013  22:17:00     -206.284      -45.356       -5.706      135.604      114.093       49.297    18388.510    13017.128     2430.203        3.923        1.692      211.211       58.544        0.077      341.631       16.475      860.624
05/15/2013  22:18:00     -256.103      -61.785      -20.665      143.911       75.613       52.115    20710.293     5717.396     2715.969        4.948        1.457      263.450       59.643        0.051      341.628       16.471      860.629
05/15/2013  22:19:00     -210.037       10.092      -13.967       97.612       86.326       42.235     9528.125     7452.181     1783.765        3.159        0.938      210.279       38.716        0.034      341.590       16.406      860.623
05/15/2013  22:20:00     -315.564      -17.579      -10.489      158.910      112.127       59.837    25252.306    12572.479     3580.412        7.070        2.070      316.054       67.354        0.045      341.575       16.380      860.599
05/15/2013  22:21:00     -207.169       -0.589      -10.457      107.509       75.361       44.984    11558.244     5679.275     2023.590        3.114        0.963      207.170       46.920        0.051      341.556       16.348      860.609
05/15/2013  22:22:00     -169.100      -53.197        4.276      111.558       54.532       41.908    12445.148     2973.776     1756.320        2.431        0.859      177.270       48.607        0.075      341.562       16.359      860.592
05/15/2013  22:23:00     -248.949      -26.819      -10.174      117.329      102.641       43.849    13766.023    10535.192     1922.709        4.451        1.311      250.390       44.054        0.031      341.548       16.335      860.576
05/15/2013  22:24:00      -43.626       -7.605        9.933       58.957       43.143       35.208     3475.938     1861.325     1239.572        0.432        0.329       44.284       26.536        0.359      341.511       16.273      860.560
05/15/2013  22:25:00     -171.874      -91.889       -1.084      132.300       97.718       58.978    17503.255     9548.857     3478.432        3.425        1.527      194.895       62.688        0.103      341.579       16.386      860.554
05/15/2013  22:26:00     -284.159     -202.467       -4.050      129.621      118.787       69.454    16801.542    14110.314     4823.910        7.874        1.787      348.911       68.348        0.038      341.551       16.340      860.518
05/15/2013  22:27:00     -196.640      -95.898        9.603      140.743      121.865       63.328    19808.542    14851.112     4010.381        4.331        1.934      218.777       77.725        0.126      341.515       16.278      860.503
05/15/2013  22:28:00     -238.310     -206.305       -8.370      157.512      120.430       77.097    24810.008    14503.421     5944.007        7.233        2.263      315.204       81.615        0.067      341.529       16.302      860.494
05/15/2013  22:29:00     -334.101     -164.990       -3.750      166.435      133.846       65.346    27700.528    17914.740     4270.042        9.436        2.494      372.619       79.344        0.045      341.514       16.278      860.473
05/15/2013  22:30:00     -309.516     -164.485      -28.349      107.780      122.667       56.543    11616.473    15047.093     3197.158        7.675        1.493      350.507       63.935        0.033      341.515       16.276      860.465
05/15/2013  22:31:00     -204.097     -150.866        3.538      140.276      127.747       62.097    19677.455    16319.311     3856.020        5.213        1.993      253.803       56.047        0.049      341.480       16.219      860.448
05/15/2013  22:32:00     -343.139     -166.796       -3.318      195.793      158.257       86.611    38334.884    25045.197     7501.464       10.822        3.544      381.530       82.394        0.047      341.504       16.259      860.419
05/15/2013  22:33:00     -220.489     -192.690       10.160      191.551      137.922       99.573    36691.711    19022.368     9914.867        7.573        3.281      292.823       97.942        0.112      341.488       16.230      860.395
05/15/2013  22:34:00     -254.212     -148.818       13.065      184.482      126.911       80.548    34033.727    16106.519     6488.014        7.178        2.831      294.569       98.999        0.113      341.482       16.220      860.399
05/15/2013  22:35:00     -358.576     -168.300        5.147      230.263      163.680       86.225    53021.055    26791.187     7434.693       12.207        4.362      396.108      100.170        0.064      341.488       16.231      860.391
05/15/2013  22:36:00     -340.064     -185.029       -9.947      138.436       98.929       63.066    19164.459     9787.023     3977.272        9.145        1.646      387.142       64.464        0.028      341.476       16.212      860.389
05/15/2013  22:37:00     -224.583     -157.800       -8.163      203.186      124.410       82.158    41284.645    15477.862     6749.895        6.945        3.176      274.478       98.906        0.130      341.479       16.215      860.375
05/15/2013  22:38:00     -330.220     -208.501       -5.793      165.146      143.071       79.601    27273.155    20469.419     6336.338       10.331        2.704      390.536       80.046        0.042      341.456       16.178      860.371
05/15/2013  22:39:00     -310.500     -207.035      -10.246      162.744      145.585       79.340    26485.599    21194.997     6294.872        9.667        2.699      373.194       83.847        0.050      341.446       16.162      860.351
05/15/2013  22:40:00     -237.665     -180.950       -3.628      181.569      141.075       97.142    32967.457    19902.064     9436.525        7.576        3.115      298.710      102.773        0.118      341.445       16.160      860.352
05/15/2013  22:41:00     -320.048     -167.410      -15.671      149.492      101.042       62.467    22347.925    10209.478     3902.126        8.357        1.823      361.188       69.245        0.037      341.424       16.123      860.357
05/15/2013  22:42:00     -189.935     -142.513       -1.249      172.906      134.487       89.274    29896.556    18086.875     7969.882        5.616        2.798      237.456      101.410        0.182      341.393       16.070      860.344
05/15/2013  22:43:00     -275.149     -201.069       -3.118      163.057      140.264       84.302    26587.436    19673.981     7106.844        8.475        2.668      340.787       73.551        0.047      341.379       16.047      860.333
05/15/2013  22:44:00     -256.991     -181.459        4.239      157.231      123.415       73.788    24721.474    15231.156     5444.736        7.219        2.270      314.598       75.197        0.057      341.366       16.025      860.351
05/15/2013  22:45:00     -429.928     -267.360      -20.846      158.055      126.006       81.231    24981.392    15877.575     6598.434       15.210        2.373      506.280       67.340        0.018      341.364       16.021      860.338
05/15/2013  22:46:00     -357.594     -171.610      -20.589      184.717      175.834       83.711    34120.411    30917.489     7007.457       11.488        3.602      396.640       92.692        0.055      341.372       16.035      860.335
05/15/2013  22:47:00     -324.293     -196.075      -34.392      177.246      139.943       76.497    31416.209    19584.112     5851.733       10.081        2.843      378.961       75.869        0.040      341.369       16.032      860.337
05/15/2013  22:48:00     -260.545     -199.180       -9.921      179.852      126.664       89.664    32346.639    16043.663     8039.634        8.203        2.821      327.958      105.253        0.103      341.349       15.997      860.329
05/15/2013  22:49:00     -286.507     -163.375        0.655      160.942      111.659       80.720    25902.460    12467.830     6515.729        7.682        2.244      329.815       93.952        0.081      341.323       15.954      860.326
05/15/2013  22:50:00     -124.979     -129.359       25.442      139.337      115.426       68.126    19414.796    13323.079     4641.133        3.518        1.869      179.870       87.111        0.235      341.304       15.922      860.334
05/15/2013  22:51:00     -233.616     -112.676       -7.473      142.920       86.788       58.724    20426.199     7532.200     3448.462        4.936        1.570      259.369       65.869        0.064      341.304       15.922      860.346
05/15/2013  22:52:00     -155.467      -59.664        4.465      121.934      123.699       62.595    14867.913    15301.476     3918.129        3.091        1.704      166.522       67.603        0.165      341.287       15.893      860.347
05/15/2013  22:53:00     -161.069      -65.747        7.565      152.357      112.571       70.428    23212.649    12672.204     4960.112        3.558        2.042      173.971       79.420        0.208      341.282       15.885      860.341
05/15/2013  22:54:00     -311.352      -47.508      -15.738      109.923       82.679       55.000    12083.042     6835.892     3024.968        6.069        1.097      314.956       61.359        0.038      341.274       15.871      860.327
05/15/2013  22:55:00     -202.815      -65.917       10.159      129.046      121.091       55.087    16652.876    14663.110     3034.531        3.996        1.718      213.259       56.655        0.071      341.249       15.829      860.334
05/15/2013  22:56:00     -263.726      -75.579      -28.375      203.713       94.946       60.799    41499.012     9014.811     3696.497        6.513        2.711      274.342       79.895        0.085      341.264       15.853      860.332
05/15/2013  22:57:00     -179.335      -82.797        0.651      129.723       93.133       52.787    16827.947     8673.671     2786.503        3.365        1.414      197.525       61.668        0.097      341.222       15.783      860.327
05/15/2013  22:58:00     -131.159      -11.017       -1.448       87.771       77.037       41.475     7703.739     5934.731     1720.209        1.634        0.768      131.621       40.663        0.095      341.178       15.710      860.329
05/15/2013  22:59:00     -251.584      -17.951      -20.306       81.065       94.342       40.000     6571.458     8900.441     1600.037        4.055        0.854      252.224       36.880        0.021      341.209       15.760      860.327
05/15/2013  23:00:00     -232.199      -49.581      -40.692       50.648       71.993       29.738     2565.260     5183.004      884.328        3.333        0.432      237.434       21.650        0.008      341.223       15.783      860.318
05/15/2013  23:01:00     -322.225       32.078      -31.198      130.510       95.307       59.492    17032.941     9083.514     3539.259        6.774        1.483      323.818       57.610        0.032      341.164       15.683      860.326
05/15/2013  23:02:00     -228.392      -20.373       -9.900      100.501      102.304       53.354    10100.507    10466.016     2846.682        3.804        1.171      229.299       51.090        0.050      341.139       15.639      860.353
05/15/2013  23:03:00     -193.938      -17.578       -8.215      111.237       81.864       43.919    12373.612     6701.638     1928.915        2.949        1.050      194.733       47.698        0.060      341.139       15.640      860.362
05/15/2013  23:04:00     -120.125       14.191       -5.940       98.082       73.202       49.133     9620.163     5358.492     2414.023        1.603        0.870      120.960       41.501        0.118      341.113       15.598      860.372
05/15/2013  23:05:00      -93.533       48.709       -0.339       59.835       59.751       36.701     3580.274     3570.148     1346.937        0.981        0.425      105.456       20.732        0.039      341.060       15.510      860.375
05/15/2013  23:06:00     -162.131      -28.290      -22.241       90.901       37.558       34.550     8262.942     1410.603     1193.709        1.922        0.543      164.581       28.448        0.030      341.122       15.614      860.365
05/15/2013  23:07:00      -65.151       17.536      -14.356       33.497       36.462       24.148     1122.029     1329.485      583.141        0.390        0.152       67.470       19.765        0.086      341.100       15.576      860.375
05/15/2013  23:08:00     -119.773       30.869      -12.084       40.931       36.198       23.211     1675.309     1310.296      538.752        0.948        0.176      123.687       16.153        0.017      341.037       15.473      860.363
05/15/2013  23:09:00      -48.967       36.252        0.931       61.592       59.606       34.734     3793.565     3552.862     1206.430        0.613        0.428       60.926       31.510        0.267      341.026       15.453      860.348
05/15/2013  23:10:00     -103.813       24.310       -6.282       43.223       36.628       25.621     1868.238     1341.617      656.458        0.764        0.193      106.621       20.163        0.036      341.051       15.497      860.365
05/15/2013  23:11:00      -82.648       85.195      -16.677       42.059       48.729       27.041     1768.931     2374.564      731.195        0.962        0.244      118.697       22.879        0.037      340.987       15.387      860.363
05/15/2013  23:12:00     -113.707       33.255      -15.076       38.191       60.917       30.037     1458.523     3710.935      902.233        1.017        0.304      118.470       24.744        0.044      340.995       15.402      860.358
05/15/2013  23:13:00     -119.806       91.017       -3.888       78.829       82.798       49.230     6213.933     6855.465     2423.570        1.907        0.775      150.458       47.134        0.098      340.952       15.325      860.347
05/15/2013  23:14:00     -112.763       90.066       -5.362       84.526       68.975       41.929     7144.679     4757.604     1758.039        1.726        0.683      144.317       46.641        0.104      340.993       15.395      860.359
05/15/2013  23:15:00      -81.576       11.705       -5.444       67.313       70.075       34.482     4531.023     4910.565     1188.976        0.872        0.532       82.411       31.058        0.142      340.965       15.349      860.351
05/15/2013  23:16:00     -172.528       49.824      -27.193       84.256       87.824       40.740     7099.041     7712.993     1659.761        2.473        0.824      179.578       37.899        0.045      340.950       15.322      860.371
05/15/2013  23:17:00      -61.900       43.153       -5.585       68.022       58.603       33.352     4626.959     3434.296     1112.376        0.745        0.459       75.457       30.264        0.161      340.926       15.284      860.370
05/15/2013  23:18:00      -28.542       33.638       23.720       38.671       40.981       34.513     1495.441     1679.457     1191.162        0.344        0.218       44.116       24.434        0.307      340.857       15.166      860.360
05/15/2013  23:19:00     -122.490       68.627      -20.334       64.305       78.982       28.571     4135.188     6238.208      816.305        1.566        0.559      140.404       30.202        0.046      340.910       15.256      860.358
05/15/2013  23:20:00      -92.184       57.273      -17.798       60.899       65.821       36.302     3708.677     4332.391     1317.856        1.073        0.468      108.527       35.754        0.109      340.870       15.188      860.361
05/15/2013  23:21:00      -99.712       58.542      -12.639       94.847       52.152       40.105     8995.910     2719.852     1608.428        1.342        0.666      115.627       33.211        0.082      340.903       15.243      860.364
05/15/2013  23:22:00     -105.639       91.641      -19.355       62.158       56.146       37.668     3863.564     3152.377     1418.893        1.418        0.422      139.849       26.933        0.037      340.864       15.180      860.366
05/15/2013  23:23:00     -214.835       72.580      -34.432       68.398       84.939       41.480     4678.278     7214.637     1720.631        3.311        0.681      226.764       39.094        0.030      340.929       15.285      860.362
05/15/2013  23:24:00     -134.775       16.399      -18.851       95.820       57.296       42.189     9181.533     3282.784     1779.940        1.651        0.712      135.769       36.902        0.074      340.928       15.286      860.354
05/15/2013  23:25:00     -135.828       63.254      -26.822       61.507      100.448       42.166     3783.119    10089.709     1777.932        1.941        0.783      149.834       26.011        0.030      340.934       15.297      860.349
05/15/2013  23:26:00     -170.503       74.262      -24.051      112.984       98.692       50.094    12765.407     9740.081     2509.379        3.009        1.251      185.973       58.594        0.099      340.963       15.344      860.342
05/15/2013  23:27:00     -165.503       88.279      -22.558       65.852       64.601       48.296     4336.515     4173.249     2332.512        2.327        0.542      187.575       33.691        0.032      340.980       15.373      860.348
05/15/2013  23:28:00     -104.312       29.305       -4.585       57.204       96.920       41.438     3272.343     9393.440     1717.141        1.307        0.719      108.350       41.436        0.146      340.977       15.368      860.360
05/15/2013  23:29:00     -180.769       49.743      -26.721       82.295       97.266       43.617     6772.529     9460.756     1902.465        2.700        0.907      187.488       44.410        0.056      340.972       15.361      860.366
05/15/2013  23:30:00     -234.076       37.977      -32.072       63.423       59.876       40.831     4022.469     3585.194     1667.138        3.327        0.464      237.137       37.124        0.025      340.995       15.398      860.374
05/15/2013  23:31:00     -197.010       54.048      -17.842       79.302       88.001       49.323     6288.747     7744.210     2432.721        2.926        0.823      204.290       35.529        0.030      340.984       15.378      860.376
05/15/2013  23:32:00     -231.517      111.831      -24.688      129.356       67.688       53.064    16733.098     4581.618     2815.782        4.542        1.207      257.111       62.567        0.059      340.941       15.307      860.390
05/15/2013  23:33:00     -161.501       76.982       -9.964      105.206       98.374       50.709    11068.233     9677.378     2571.431        2.771        1.166      178.910       46.753        0.068      340.952       15.325      860.369
05/15/2013  23:34:00     -193.116       67.524      -15.259       60.953       65.603       40.050     3715.249     4303.802     1604.035        2.585        0.481      204.580       33.781        0.027      340.959       15.338      860.376
05/15/2013  23:35:00     -140.862       24.177      -15.910       57.774       69.605       39.833     3337.878     4844.822     1586.633        1.522        0.488      142.922       37.357        0.068      340.991       15.394      860.370
05/15/2013  23:36:00     -180.165       85.503      -29.834      107.262       61.486       37.374    11505.175     3780.534     1396.795        2.867        0.834      199.424       30.656        0.024      340.989       15.387      860.368
05/15/2013  23:37:00     -175.843       56.563      -23.014       81.304       97.328       43.504     6610.285     9472.763     1892.604        2.631        0.899      184.716       45.456        0.061      340.979       15.371      860.367
05/15/2013  23:38:00     -126.630       64.305      -10.548       78.771       90.733       48.157     6204.933     8232.455     2319.062        1.852        0.838      142.023       44.442        0.098      340.972       15.361      860.363
05/15/2013  23:39:00     -172.018       79.565      -15.092       59.909       71.032       41.775     3589.036     5045.479     1745.171        2.326        0.519      189.528       34.607        0.033      340.962       15.341      860.366
05/15/2013  23:40:00      -98.085        9.971      -12.903       66.886       36.199       32.910     4473.673     1310.374     1083.057        0.838        0.343       98.590       10.985        0.012      340.983       15.380      860.373
05/15/2013  23:41:00     -198.518      -69.262       -5.504       98.409       60.883       40.288     9684.362     3706.757     1623.089        2.962        0.751      210.253       39.842        0.036      340.956       15.334      860.372
05/15/2013  23:42:00     -151.819      -18.660      -27.310       58.312       63.715       41.832     3400.317     4059.657     1749.894        1.667        0.460      152.961       30.648        0.040      340.965       15.350      860.366
05/15/2013  23:43:00     -172.415       12.622       -8.678       98.555       92.626       57.981     9713.088     8579.539     3361.813        2.580        1.083      172.876       62.329        0.130      340.940       15.305      860.347
05/15/2013  23:44:00     -181.125       37.901      -36.309       65.868       92.475       43.657     4338.619     8551.564     1905.923        2.518        0.740      185.047       27.929        0.023      340.939       15.304      860.351
05/15/2013  23:45:00     -119.600      -20.462       12.486       77.920       86.873       49.274     6071.451     7546.902     2427.966        1.546        0.802      121.338       46.889        0.149      340.928       15.287      860.348
05/15/2013  23:46:00     -145.039      -14.000       -5.448      103.685       96.314       52.036    10750.477     9276.325     2707.728        2.199        1.137      145.713       46.531        0.102      340.911       15.255      860.354
05/15/2013  23:47:00     -137.526        0.487        4.492       92.691       88.070       48.800     8591.579     7756.300     2381.412        1.883        0.936      137.527       49.897        0.132      340.898       15.234      860.365
05/15/2013  23:48:00     -267.066       88.918      -39.004      122.734      115.708       52.216    15063.616    13388.358     2726.540        5.596        1.559      281.479       64.241        0.052      340.942       15.306      860.380
05/15/2013  23:49:00     -178.056      -15.826      -22.139      107.762       95.069       36.883    11612.634     9038.073     1360.362        2.722        1.101      178.758       29.017        0.026      340.937       15.300      860.381
05/15/2013  23:50:00     -141.923      -65.060       -9.392       84.813       71.177       48.438     7193.177     5066.140     2346.232        1.953        0.730      156.125       45.140        0.084      340.873       15.193      860.399
05/15/2013  23:51:00     -181.134      -79.868       -2.478       91.758       90.464       49.979     8419.598     8183.708     2497.920        2.914        0.955      197.960       47.606        0.058      340.850       15.152      860.408
05/15/2013  23:52:00     -324.248      -61.016      -19.275      114.119       81.411       51.084    13023.237     6627.734     2609.583        6.574        1.113      329.939       53.142        0.026      340.857       15.164      860.411
05/15/2013  23:53:00     -319.681      -85.085      -30.093      110.615      108.092       58.314    12235.650    11683.982     3400.501        6.883        1.366      330.810       41.579        0.016      340.873       15.189      860.412
05/15/2013  23:54:00     -269.098      -79.680      -11.458       81.955       85.861       44.602     6716.553     7372.151     1989.367        4.748        0.804      280.646       35.544        0.016      340.851       15.153      860.420
05/15/2013  23:55:00     -342.972      -14.571      -39.608       92.960       67.422       44.769     8641.542     4545.695     2004.265        6.730        0.760      343.282       33.369        0.009      340.846       15.143      860.428
05/15/2013  23:56:00     -299.255      -65.576      -28.076       81.100       86.203       44.761     6577.153     7431.021     2003.529        5.532        0.801      306.355       34.256        0.013      340.826       15.110      860.416
05/15/2013  23:57:00     -280.252       28.711      -37.977       81.735      120.808       35.637     6680.546    14594.457     1269.989        5.167        1.127      281.718       33.247        0.014      340.812       15.089      860.414
05/15/2013  23:58:00     -319.467      -27.124      -15.512      110.032      128.066       63.618    12107.093    16401.004     4047.306        6.779        1.628      320.616       57.698        0.032      340.854       15.159      860.402
05/15/2013  23:59:00     -243.758      -95.594       -6.932      104.851       89.816       44.682    10993.835     8066.973     1996.497        4.483        1.053      261.832       43.624        0.028      340.781       15.036      860.415
